| time (UTC) | temp F | wind direction | speed MPH | gust MPH | rain 1hr in | rain 24hr in | rain mn in | humidity % | barometer mb |
| 20260904075808 | 62 | 48 | 1.0 | 0.0 | 0.00 | 0.00 | 0.00 | 78 | 1012.3 |
| 20260904075739 | 62 | 48 | 1.0 | 0.0 | 0.00 | 0.00 | 0.00 | 78 | 1012.3 |
| 20260904075709 | 62 | 48 | 1.0 | 0.0 | 0.00 | 0.00 | 0.00 | 78 | 1012.3 |
| 20260904075643 | 62 | 24 | 1.0 | 1.0 | 0.00 | 0.00 | 0.00 | 78 | 1013.1 |
| 20260904075609 | 62 | 48 | 1.0 | 0.0 | 0.00 | 0.00 | 0.00 | 78 | 1012.3 |
| 20260904075538 | 62 | 48 | 1.0 | 0.0 | 0.00 | 0.00 | 0.00 | 78 | 1012.3 |
| 20260904075508 | 62 | 48 | 1.0 | 0.0 | 0.00 | 0.00 | 0.00 | 78 | 1012.3 |
| 20260904075458 | 62 | 48 | 1.0 | 0.0 | 0.00 | 0.00 | 0.00 | 78 | 1012.3 |
| 20260904075408 | 62 | 48 | 1.0 | 0.0 | 0.00 | 0.00 | 0.00 | 78 | 1012.3 |
| 20260904075308 | 62 | 48 | 1.0 | 0.0 | 0.00 | 0.00 | 0.00 | 78 | 1012.3 |
| 20260904075238 | 62 | 48 | 1.0 | 0.0 | 0.00 | 0.00 | 0.00 | 78 | 1012.3 |
| 20260904075208 | 62 | 48 | 1.0 | 0.0 | 0.00 | 0.00 | 0.00 | 78 | 1012.3 |
| 20260904075137 | 62 | 33 | 1.0 | 2.0 | 0.00 | 0.00 | 0.00 | 79 | 1013.2 |
| 20260904075127 | 62 | 35 | 0.0 | 0.0 | 0.00 | 0.00 | 0.00 | 78 | 1012.1 |
| 20260904075123 | 62 | 48 | 1.0 | 0.0 | 0.00 | 0.00 | 0.00 | 78 | 1012.3 |
| 20260904074908 | 62 | 48 | 1.0 | 0.0 | 0.00 | 0.00 | 0.00 | 78 | 1012.3 |
| 20260904074840 | 62 | 48 | 1.0 | 1.0 | 0.00 | 0.00 | 0.00 | 78 | 1012.3 |
| 20260904074808 | 62 | 35 | 0.0 | 0.0 | 0.00 | 0.00 | 0.00 | 78 | 1012.1 |
| 20260904074725 | 62 | 35 | 0.0 | 0.0 | 0.00 | 0.00 | 0.00 | 78 | 1012.1 |
| 20260904074636 | 62 | 48 | 0.0 | 1.0 | 0.00 | 0.00 | 0.00 | 78 | 1013.3 |
| 20260904074538 | 62 | 35 | 0.0 | 0.0 | 0.00 | 0.00 | 0.00 | 78 | 1012.1 |
| 20260904074508 | 62 | 35 | 0.0 | 0.0 | 0.00 | 0.00 | 0.00 | 78 | 1012.1 |
| 20260904074449 | 62 | 35 | 0.0 | 0.0 | 0.00 | 0.00 | 0.00 | 78 | 1012.1 |
| 20260904074439 | 62 | 35 | 0.0 | 0.0 | 0.00 | 0.00 | 0.00 | 78 | 1012.1 |
| 20260904074409 | 62 | 35 | 0.0 | 0.0 | 0.00 | 0.00 | 0.00 | 78 | 1012.1 |
| 20260904074338 | 62 | 35 | 0.0 | 0.0 | 0.00 | 0.00 | 0.00 | 78 | 1012.1 |
| 20260904074308 | 62 | 35 | 0.0 | 0.0 | 0.00 | 0.00 | 0.00 | 78 | 1012.1 |
| 20260904074208 | 62 | 35 | 0.0 | 0.0 | 0.00 | 0.00 | 0.00 | 78 | 1012.1 |
| 20260904074131 | 62 | 53 | 0.0 | 2.0 | 0.00 | 0.00 | 0.00 | 78 | 1013.2 |
| 20260904074124 | 62 | 35 | 0.0 | 0.0 | 0.00 | 0.00 | 0.00 | 78 | 1012.1 |
| 20260904073947 | 62 | 48 | 1.0 | 0.0 | 0.00 | 0.00 | 0.00 | 77 | 1012.1 |
| 20260904073909 | 62 | 35 | 0.0 | 0.0 | 0.00 | 0.00 | 0.00 | 78 | 1012.1 |
| 20260904073842 | 62 | 35 | 0.0 | 2.0 | 0.00 | 0.00 | 0.00 | 78 | 1012.1 |
| 20260904073831 | 62 | 48 | 1.0 | 0.0 | 0.00 | 0.00 | 0.00 | 77 | 1012.1 |
| 20260904073809 | 62 | 48 | 1.0 | 0.0 | 0.00 | 0.00 | 0.00 | 77 | 1012.1 |
| 20260904073740 | 62 | 48 | 1.0 | 0.0 | 0.00 | 0.00 | 0.00 | 77 | 1012.1 |
| 20260904073709 | 62 | 48 | 1.0 | 0.0 | 0.00 | 0.00 | 0.00 | 77 | 1012.1 |
| 20260904073626 | 62 | 25 | 1.0 | 3.0 | 0.00 | 0.00 | 0.00 | 77 | 1013.1 |
| 20260904073619 | 62 | 48 | 1.0 | 0.0 | 0.00 | 0.00 | 0.00 | 77 | 1012.1 |
| 20260904073605 | 62 | 48 | 1.0 | 0.0 | 0.00 | 0.00 | 0.00 | 78 | 1012.1 |
| 20260904073310 | 62 | 48 | 1.0 | 0.0 | 0.00 | 0.00 | 0.00 | 77 | 1012.1 |
| 20260904073300 | 62 | 48 | 0.0 | 0.0 | 0.00 | 0.00 | 0.00 | 77 | 1012.0 |
| 20260904073209 | 62 | 48 | 1.0 | 0.0 | 0.00 | 0.00 | 0.00 | 77 | 1012.1 |
| 20260904073138 | 62 | 48 | 1.0 | 0.0 | 0.00 | 0.00 | 0.00 | 77 | 1012.1 |
| 20260904073122 | 62 | 33 | 1.0 | 2.0 | 0.00 | 0.00 | 0.00 | 77 | 1013.2 |
| 20260904073108 | 62 | 48 | 1.0 | 0.0 | 0.00 | 0.00 | 0.00 | 77 | 1012.1 |
| 20260904073021 | 62 | 48 | 1.0 | 0.0 | 0.00 | 0.00 | 0.00 | 77 | 1012.1 |
| 20260904072951 | 62 | 48 | 0.0 | 0.0 | 0.00 | 0.00 | 0.00 | 77 | 1012.0 |
| 20260904072938 | 62 | 48 | 1.0 | 0.0 | 0.00 | 0.00 | 0.00 | 77 | 1012.1 |
| 20260904072922 | 62 | 48 | 1.0 | 2.0 | 0.00 | 0.00 | 0.00 | 77 | 1012.1 |
| 20260904072740 | 62 | 48 | 0.0 | 0.0 | 0.00 | 0.00 | 0.00 | 77 | 1012.0 |
| 20260904072708 | 62 | 48 | 0.0 | 0.0 | 0.00 | 0.00 | 0.00 | 77 | 1012.0 |
| 20260904072621 | 62 | 48 | 0.0 | 0.0 | 0.00 | 0.00 | 0.00 | 77 | 1012.0 |
| 20260904072617 | 62 | 53 | 1.0 | 2.0 | 0.00 | 0.00 | 0.00 | 77 | 1013.1 |
| 20260904072610 | 62 | 48 | 0.0 | 0.0 | 0.00 | 0.00 | 0.00 | 77 | 1012.0 |
| 20260904072555 | 62 | 48 | 0.0 | 0.0 | 0.00 | 0.00 | 0.00 | 77 | 1012.0 |
| 20260904072548 | 62 | 48 | 0.0 | 0.0 | 0.00 | 0.00 | 0.00 | 77 | 1012.0 |
| 20260904072409 | 62 | 48 | 0.0 | 0.0 | 0.00 | 0.00 | 0.00 | 77 | 1012.0 |
| 20260904072352 | 62 | 39 | 1.0 | 0.0 | 0.00 | 0.00 | 0.00 | 77 | 1012.0 |
| 20260904072346 | 62 | 39 | 1.0 | 0.0 | 0.00 | 0.00 | 0.00 | 77 | 1012.0 |
| 20260904072325 | 62 | 48 | 0.0 | 0.0 | 0.00 | 0.00 | 0.00 | 77 | 1012.0 |
| 20260904072309 | 62 | 48 | 0.0 | 0.0 | 0.00 | 0.00 | 0.00 | 77 | 1012.0 |
| 20260904072258 | 62 | 48 | 0.0 | 0.0 | 0.00 | 0.00 | 0.00 | 77 | 1012.0 |
| 20260904072113 | 62 | 66 | 0.0 | 2.0 | 0.00 | 0.00 | 0.00 | 77 | 1012.9 |
| 20260904072010 | 63 | 48 | 0.0 | 0.0 | 0.00 | 0.00 | 0.00 | 77 | 1012.0 |
| 20260904072000 | 62 | 48 | 0.0 | 1.0 | 0.00 | 0.00 | 0.00 | 77 | 1012.0 |
| 20260904071711 | 62 | 39 | 1.0 | 0.0 | 0.00 | 0.00 | 0.00 | 77 | 1012.0 |
| 20260904071639 | 62 | 39 | 1.0 | 0.0 | 0.00 | 0.00 | 0.00 | 77 | 1012.0 |
| 20260904071608 | 62 | 39 | 1.0 | 0.0 | 0.00 | 0.00 | 0.00 | 77 | 1012.0 |
| 20260904071538 | 62 | 39 | 1.0 | 0.0 | 0.00 | 0.00 | 0.00 | 77 | 1012.0 |
| 20260904071508 | 62 | 39 | 1.0 | 0.0 | 0.00 | 0.00 | 0.00 | 77 | 1012.0 |
| 20260904071409 | 62 | 39 | 1.0 | 0.0 | 0.00 | 0.00 | 0.00 | 77 | 1012.0 |
| 20260904071346 | 62 | 39 | 1.0 | 0.0 | 0.00 | 0.00 | 0.00 | 77 | 1012.0 |
| 20260904071309 | 63 | 39 | 1.0 | 0.0 | 0.00 | 0.00 | 0.00 | 77 | 1012.0 |
| 20260904071223 | 63 | 39 | 1.0 | 0.0 | 0.00 | 0.00 | 0.00 | 76 | 1012.0 |
| 20260904071108 | 63 | 39 | 1.0 | 0.0 | 0.00 | 0.00 | 0.00 | 76 | 1012.0 |
| 20260904071103 | 63 | 82 | 0.0 | 1.0 | 0.00 | 0.00 | 0.00 | 76 | 1012.9 |
| 20260904071054 | 63 | 46 | 2.0 | 0.0 | 0.00 | 0.00 | 0.00 | 76 | 1011.8 |
| 20260904071038 | 63 | 39 | 1.0 | 0.0 | 0.00 | 0.00 | 0.00 | 77 | 1012.0 |
| 20260904071008 | 63 | 39 | 1.0 | 0.0 | 0.00 | 0.00 | 0.00 | 77 | 1012.0 |
| 20260904070938 | 63 | 39 | 1.0 | 0.0 | 0.00 | 0.00 | 0.00 | 77 | 1012.0 |
| 20260904070920 | 63 | 46 | 2.0 | 0.0 | 0.00 | 0.00 | 0.00 | 76 | 1011.8 |
| 20260904070908 | 63 | 39 | 1.0 | 0.0 | 0.00 | 0.00 | 0.00 | 77 | 1012.0 |
| 20260904070839 | 63 | 39 | 1.0 | 1.0 | 0.00 | 0.00 | 0.00 | 77 | 1012.0 |
| 20260904070808 | 63 | 46 | 2.0 | 0.0 | 0.00 | 0.00 | 0.00 | 77 | 1011.8 |
| 20260904070732 | 63 | 46 | 2.0 | 0.0 | 0.00 | 0.00 | 0.00 | 76 | 1011.8 |
| 20260904070727 | 63 | 46 | 2.0 | 0.0 | 0.00 | 0.00 | 0.00 | 77 | 1011.8 |
| 20260904070719 | 63 | 46 | 2.0 | 0.0 | 0.00 | 0.00 | 0.00 | 77 | 1011.8 |
| 20260904070602 | 63 | 48 | 0.0 | 1.0 | 0.00 | 0.00 | 0.00 | 76 | 1012.7 |
| 20260904070555 | 63 | 46 | 2.0 | 0.0 | 0.00 | 0.00 | 0.00 | 76 | 1011.8 |
| 20260904070549 | 63 | 46 | 2.0 | 0.0 | 0.00 | 0.00 | 0.00 | 76 | 1011.8 |
| 20260904070409 | 63 | 46 | 2.0 | 0.0 | 0.00 | 0.00 | 0.00 | 76 | 1011.8 |
| 20260904070327 | 63 | 46 | 2.0 | 0.0 | 0.00 | 0.00 | 0.00 | 76 | 1011.8 |
| 20260904070124 | 63 | 46 | 2.0 | 0.0 | 0.00 | 0.00 | 0.00 | 76 | 1011.8 |
| 20260904070057 | 63 | 22 | 0.0 | 2.0 | 0.00 | 0.00 | 0.00 | 76 | 1013.0 |
| 20260904065939 | 63 | 46 | 2.0 | 0.0 | 0.00 | 0.00 | 0.00 | 76 | 1011.8 |
| 20260904065908 | 63 | 46 | 2.0 | 0.0 | 0.00 | 0.00 | 0.00 | 76 | 1011.8 |
| 20260904065840 | 63 | 46 | 2.0 | 2.0 | 0.00 | 0.00 | 0.00 | 76 | 1011.8 |
| 20260904065820 | 63 | 0.0 | 0.0 | 0.00 | 0.00 | 0.00 | 76 | 1012.1 | |
| 20260904065744 | 0 | 0.0 | 0.0 | 0.00 | 0.00 | 0.00 | 1011.9 | ||
| 20260904065611 | 0 | 0.0 | 0.0 | 0.00 | 0.00 | 0.00 | 1012.1 | ||
| 20260904065552 | 63 | 13 | 1.0 | 2.0 | 0.00 | 0.00 | 0.00 | 76 | 1013.1 |
| 20260904065414 | 0 | 0.0 | 0.0 | 0.00 | 0.00 | 0.00 | 1012.1 | ||
| 20260904065109 | 0 | 0.0 | 0.0 | 0.00 | 0.00 | 0.00 | 1012.0 | ||
| 20260904065048 | 63 | 81 | 0.0 | 2.0 | 0.00 | 0.00 | 0.00 | 76 | 1012.7 |
| 20260904064620 | 0 | 0.0 | 0.0 | 0.00 | 0.00 | 0.00 | 1012.0 | ||
| 20260904064544 | 63 | 52 | 0.0 | 2.0 | 0.00 | 0.00 | 0.00 | 76 | 1013.0 |
| 20260904064412 | 0 | 0.0 | 0.0 | 0.00 | 0.00 | 0.00 | 1011.8 | ||
| 20260904064205 | 0 | 0.0 | 0.0 | 0.00 | 0.00 | 0.00 | 1012.1 | ||
| 20260904064043 | 63 | 49 | 0.0 | 1.0 | 0.00 | 0.00 | 0.00 | 76 | 1012.7 |
| 20260904063922 | 0 | 0.0 | 0.0 | 0.00 | 0.00 | 0.00 | 1011.9 | ||
| 20260904063715 | 0 | 0.0 | 0.0 | 0.00 | 0.00 | 0.00 | 1011.9 | ||
| 20260904063540 | 63 | 76 | 0.0 | 0.0 | 0.00 | 0.00 | 0.00 | 75 | 1012.7 |
| 20260904063508 | 0 | 0.0 | 0.0 | 0.00 | 0.00 | 0.00 | 1011.9 | ||
| 20260904063225 | 0 | 0.0 | 0.0 | 0.00 | 0.00 | 0.00 | 1011.8 | ||
| 20260904063035 | 63 | 44 | 0.0 | 0.0 | 0.00 | 0.00 | 0.00 | 74 | 1012.6 |
| 20260904063028 | 0 | 0.0 | 0.0 | 0.00 | 0.00 | 0.00 | 1011.5 | ||
| 20260904062833 | 0 | 0.0 | 0.0 | 0.00 | 0.00 | 0.00 | 1011.8 | ||
| 20260904062811 | 0 | 0.0 | 0.0 | 0.00 | 0.00 | 0.00 | 1011.6 | ||
| 20260904062604 | 0 | 0.0 | 0.0 | 0.00 | 0.00 | 0.00 | 1011.9 | ||
| 20260904062532 | 64 | 46 | 0.0 | 1.0 | 0.00 | 0.00 | 0.00 | 74 | 1012.6 |
| 20260904062158 | 64 | 28 | 2.0 | 0.0 | 0.00 | 0.00 | 0.00 | 72 | 1011.5 |
| 20260904062114 | 0 | 0.0 | 0.0 | 0.00 | 0.00 | 0.00 | 1011.7 | ||
| 20260904062027 | 64 | 47 | 1.0 | 2.0 | 0.00 | 0.00 | 0.00 | 74 | 1012.6 |
| 20260904062009 | 64 | 28 | 2.0 | 0.0 | 0.00 | 0.00 | 0.00 | 72 | 1011.8 |
| 20260904061906 | 0 | 0.0 | 0.0 | 0.00 | 0.00 | 0.00 | 1011.7 | ||
| 20260904061641 | 64 | 28 | 2.0 | 0.0 | 0.00 | 0.00 | 0.00 | 72 | 1011.8 |
| 20260904061522 | 64 | 40 | 0.0 | 2.0 | 0.00 | 0.00 | 0.00 | 74 | 1012.5 |
| 20260904061457 | 64 | 28 | 2.0 | 0.0 | 0.00 | 0.00 | 0.00 | 72 | 1011.7 |
| 20260904061426 | 64 | 28 | 2.0 | 0.0 | 0.00 | 0.00 | 0.00 | 72 | 1011.7 |
| 20260904061356 | 64 | 28 | 2.0 | 0.0 | 0.00 | 0.00 | 0.00 | 72 | 1011.8 |
| 20260904061127 | 64 | 28 | 2.0 | 0.0 | 0.00 | 0.00 | 0.00 | 72 | 1011.6 |
| 20260904061105 | 64 | 359 | 1.0 | 0.0 | 0.00 | 0.00 | 0.00 | 72 | 1011.5 |
| 20260904061042 | 64 | 28 | 2.0 | 0.0 | 0.00 | 0.00 | 0.00 | 72 | 1011.7 |
| 20260904061014 | 64 | 69 | 1.0 | 2.0 | 0.00 | 0.00 | 0.00 | 74 | 1012.5 |
| 20260904060932 | 64 | 359 | 1.0 | 0.0 | 0.00 | 0.00 | 0.00 | 72 | 1011.5 |
| 20260904060926 | 64 | 28 | 2.0 | 0.0 | 0.00 | 0.00 | 0.00 | 72 | 1011.7 |
| 20260904060830 | 64 | 28 | 2.0 | 0.0 | 0.00 | 0.00 | 0.00 | 72 | 1011.7 |
| 20260904060748 | 64 | 28 | 2.0 | 0.0 | 0.00 | 0.00 | 0.00 | 72 | 1011.6 |
| 20260904060737 | 64 | 28 | 2.0 | 2.0 | 0.00 | 0.00 | 0.00 | 72 | 1011.6 |
| 20260904060614 | 64 | 359 | 1.0 | 0.0 | 0.00 | 0.00 | 0.00 | 72 | 1011.5 |
| 20260904060608 | 64 | 359 | 1.0 | 0.0 | 0.00 | 0.00 | 0.00 | 72 | 1011.5 |
| 20260904060509 | 64 | 60 | 0.0 | 1.0 | 0.00 | 0.00 | 0.00 | 73 | 1012.5 |
| 20260904060427 | 64 | 359 | 1.0 | 0.0 | 0.00 | 0.00 | 0.00 | 72 | 1011.5 |
| 20260904060339 | 64 | 359 | 1.0 | 0.0 | 0.00 | 0.00 | 0.00 | 72 | 1011.5 |
| 20260904060314 | 64 | 359 | 1.0 | 0.0 | 0.00 | 0.00 | 0.00 | 72 | 1011.5 |
| 20260904060227 | 64 | 359 | 1.0 | 0.0 | 0.00 | 0.00 | 0.00 | 72 | 1011.5 |
| 20260904060158 | 64 | 359 | 1.0 | 2.0 | 0.00 | 0.00 | 0.00 | 72 | 1011.5 |
| 20260904060148 | 64 | 359 | 1.0 | 0.0 | 0.00 | 0.00 | 0.00 | 72 | 1011.5 |
| 20260904060005 | 64 | 35 | 2.0 | 2.0 | 0.00 | 0.00 | 0.00 | 72 | 1012.5 |
| 20260904055940 | 64 | 359 | 1.0 | 0.0 | 0.00 | 0.00 | 0.00 | 72 | 1011.5 |
| 20260904055808 | 64 | 359 | 1.0 | 0.0 | 0.00 | 0.00 | 0.00 | 72 | 1011.5 |
| 20260904055635 | 64 | 22 | 0.0 | 0.0 | 0.00 | 0.00 | 0.00 | 72 | 1011.6 |
| 20260904055627 | 64 | 22 | 0.0 | 0.0 | 0.00 | 0.00 | 0.00 | 72 | 1011.6 |
| 20260904055557 | 64 | 22 | 0.0 | 0.0 | 0.00 | 0.00 | 0.00 | 72 | 1011.6 |
| 20260904055527 | 64 | 22 | 0.0 | 0.0 | 0.00 | 0.00 | 0.00 | 72 | 1011.6 |
| 20260904055509 | 64 | 22 | 0.0 | 0.0 | 0.00 | 0.00 | 0.00 | 72 | 1011.6 |
| 20260904055500 | 64 | 7 | 2.0 | 3.0 | 0.00 | 0.00 | 0.00 | 72 | 1012.6 |
| 20260904055427 | 64 | 22 | 0.0 | 0.0 | 0.00 | 0.00 | 0.00 | 72 | 1011.6 |
| 20260904055357 | 64 | 22 | 0.0 | 0.0 | 0.00 | 0.00 | 0.00 | 72 | 1011.6 |
| 20260904055326 | 64 | 22 | 0.0 | 0.0 | 0.00 | 0.00 | 0.00 | 72 | 1011.6 |
| 20260904055307 | 64 | 36 | 1.0 | 0.0 | 0.00 | 0.00 | 0.00 | 72 | 1011.8 |
| 20260904055258 | 64 | 22 | 0.0 | 0.0 | 0.00 | 0.00 | 0.00 | 72 | 1011.6 |
| 20260904054956 | 64 | 22 | 0.0 | 0.0 | 0.00 | 0.00 | 0.00 | 72 | 1011.6 |
| 20260904054926 | 64 | 22 | 0.0 | 0.0 | 0.00 | 0.00 | 0.00 | 72 | 1011.6 |
| 20260904054911 | 64 | 36 | 1.0 | 0.0 | 0.00 | 0.00 | 0.00 | 72 | 1011.8 |
| 20260904054827 | 64 | 22 | 0.0 | 0.0 | 0.00 | 0.00 | 0.00 | 72 | 1011.6 |
| 20260904054749 | 64 | 22 | 0.0 | 0.0 | 0.00 | 0.00 | 0.00 | 72 | 1011.6 |
| 20260904054740 | 64 | 22 | 0.0 | 1.0 | 0.00 | 0.00 | 0.00 | 72 | 1011.6 |
| 20260904054545 | 64 | 36 | 1.0 | 0.0 | 0.00 | 0.00 | 0.00 | 71 | 1011.8 |
| 20260904054541 | 64 | 36 | 1.0 | 0.0 | 0.00 | 0.00 | 0.00 | 72 | 1011.8 |
| 20260904054451 | 64 | 65 | 0.0 | 4.0 | 0.00 | 0.00 | 0.00 | 72 | 1012.7 |
| 20260904054326 | 64 | 36 | 1.0 | 0.0 | 0.00 | 0.00 | 0.00 | 72 | 1011.8 |
| 20260904054243 | 65 | 36 | 1.0 | 0.0 | 0.00 | 0.00 | 0.00 | 71 | 1011.8 |
| 20260904054229 | 64 | 36 | 1.0 | 0.0 | 0.00 | 0.00 | 0.00 | 72 | 1011.8 |
| 20260904054157 | 64 | 36 | 1.0 | 0.0 | 0.00 | 0.00 | 0.00 | 71 | 1011.8 |
| 20260904054127 | 64 | 36 | 1.0 | 0.0 | 0.00 | 0.00 | 0.00 | 71 | 1011.8 |
| 20260904054106 | 64 | 36 | 1.0 | 0.0 | 0.00 | 0.00 | 0.00 | 71 | 1011.8 |
| 20260904053947 | 64 | 41 | 0.0 | 1.0 | 0.00 | 0.00 | 0.00 | 71 | 1012.6 |
| 20260904053932 | 65 | 332 | 0.0 | 0.0 | 0.00 | 0.00 | 0.00 | 71 | 1011.7 |
| 20260904053927 | 64 | 36 | 1.0 | 0.0 | 0.00 | 0.00 | 0.00 | 71 | 1011.8 |
| 20260904053918 | 64 | 36 | 1.0 | 0.0 | 0.00 | 0.00 | 0.00 | 71 | 1011.8 |
| 20260904053908 | 65 | 36 | 1.0 | 0.0 | 0.00 | 0.00 | 0.00 | 71 | 1011.8 |
| 20260904053726 | 65 | 36 | 1.0 | 0.0 | 0.00 | 0.00 | 0.00 | 71 | 1011.8 |
| 20260904053703 | 65 | 332 | 0.0 | 0.0 | 0.00 | 0.00 | 0.00 | 71 | 1011.7 |
| 20260904053658 | 65 | 36 | 1.0 | 2.0 | 0.00 | 0.00 | 0.00 | 71 | 1011.8 |
| 20260904053626 | 65 | 332 | 0.0 | 0.0 | 0.00 | 0.00 | 0.00 | 71 | 1011.7 |
| 20260904053537 | 65 | 332 | 0.0 | 0.0 | 0.00 | 0.00 | 0.00 | 71 | 1011.7 |
| 20260904053533 | 65 | 332 | 0.0 | 0.0 | 0.00 | 0.00 | 0.00 | 71 | 1011.7 |
| 20260904053520 | 65 | 332 | 0.0 | 0.0 | 0.00 | 0.00 | 0.00 | 71 | 1011.7 |
| 20260904053446 | 65 | 32 | 2.0 | 2.0 | 0.00 | 0.00 | 0.00 | 71 | 1012.6 |
| 20260904053338 | 65 | 332 | 0.0 | 0.0 | 0.00 | 0.00 | 0.00 | 71 | 1011.7 |
| 20260904053334 | 65 | 332 | 0.0 | 0.0 | 0.00 | 0.00 | 0.00 | 71 | 1011.7 |
| 20260904053320 | 65 | 332 | 0.0 | 0.0 | 0.00 | 0.00 | 0.00 | 71 | 1011.7 |
| 20260904053030 | 65 | 332 | 0.0 | 0.0 | 0.00 | 0.00 | 0.00 | 71 | 1011.7 |
| 20260904052942 | 65 | 50 | 0.0 | 1.0 | 0.00 | 0.00 | 0.00 | 71 | 1012.5 |
| 20260904052926 | 65 | 332 | 0.0 | 0.0 | 0.00 | 0.00 | 0.00 | 71 | 1011.7 |
| 20260904052906 | 65 | 332 | 0.0 | 0.0 | 0.00 | 0.00 | 0.00 | 71 | 1011.7 |
| 20260904052728 | 65 | 332 | 0.0 | 0.0 | 0.00 | 0.00 | 0.00 | 70 | 1011.7 |
| 20260904052705 | 65 | 355 | 0.0 | 0.0 | 0.00 | 0.00 | 0.00 | 70 | 1011.8 |
| 20260904052657 | 65 | 332 | 0.0 | 2.0 | 0.00 | 0.00 | 0.00 | 70 | 1011.7 |
| 20260904052627 | 65 | 355 | 0.0 | 0.0 | 0.00 | 0.00 | 0.00 | 70 | 1011.8 |
| 20260904052557 | 65 | 355 | 0.0 | 0.0 | 0.00 | 0.00 | 0.00 | 70 | 1011.8 |
| 20260904052527 | 65 | 355 | 0.0 | 0.0 | 0.00 | 0.00 | 0.00 | 70 | 1011.8 |
| 20260904052456 | 65 | 355 | 0.0 | 0.0 | 0.00 | 0.00 | 0.00 | 70 | 1011.8 |
| 20260904052438 | 65 | 24 | 2.0 | 3.0 | 0.00 | 0.00 | 0.00 | 70 | 1012.7 |
| 20260904052427 | 65 | 355 | 0.0 | 0.0 | 0.00 | 0.00 | 0.00 | 71 | 1011.8 |
| 20260904052357 | 65 | 355 | 0.0 | 0.0 | 0.00 | 0.00 | 0.00 | 71 | 1011.8 |
| 20260904052345 | 66 | 355 | 0.0 | 0.0 | 0.00 | 0.00 | 0.00 | 70 | 1011.8 |
| 20260904052341 | 65 | 355 | 0.0 | 0.0 | 0.00 | 0.00 | 0.00 | 70 | 1011.8 |
| 20260904052157 | 65 | 355 | 0.0 | 0.0 | 0.00 | 0.00 | 0.00 | 70 | 1011.8 |
| 20260904052126 | 65 | 355 | 0.0 | 0.0 | 0.00 | 0.00 | 0.00 | 70 | 1011.8 |
| 20260904052029 | 65 | 355 | 0.0 | 0.0 | 0.00 | 0.00 | 0.00 | 70 | 1011.8 |
| 20260904051940 | 66 | 355 | 0.0 | 0.0 | 0.00 | 0.00 | 0.00 | 70 | 1011.8 |
| 20260904051934 | 66 | 50 | 0.0 | 1.0 | 0.00 | 0.00 | 0.00 | 70 | 1012.5 |
| 20260904051756 | 66 | 355 | 0.0 | 0.0 | 0.00 | 0.00 | 0.00 | 70 | 1011.8 |
| 20260904051726 | 66 | 355 | 0.0 | 0.0 | 0.00 | 0.00 | 0.00 | 70 | 1011.8 |
| 20260904051658 | 66 | 355 | 0.0 | 1.0 | 0.00 | 0.00 | 0.00 | 70 | 1011.8 |
| 20260904051638 | 66 | 0.0 | 0.0 | 0.00 | 0.00 | 0.00 | 70 | 1011.8 | |
| 20260904051431 | 66 | 46 | 0.0 | 1.0 | 0.00 | 0.00 | 0.00 | 69 | 1012.5 |
| 20260904051405 | 0 | 0.0 | 0.0 | 0.00 | 0.00 | 0.00 | 1011.7 | ||
| 20260904051130 | 0 | 0.0 | 0.0 | 0.00 | 0.00 | 0.00 | 1012.0 | ||
| 20260904051121 | 0 | 0.0 | 0.0 | 0.00 | 0.00 | 0.00 | 1011.6 | ||
| 20260904050929 | 66 | 44 | 0.0 | 2.0 | 0.00 | 0.00 | 0.00 | 70 | 1012.6 |
| 20260904050915 | 0 | 0.0 | 0.0 | 0.00 | 0.00 | 0.00 | 1011.8 | ||
| 20260904050852 | 0 | 0.0 | 0.0 | 0.00 | 0.00 | 0.00 | 1012.0 | ||
| 20260904050426 | 66 | 56 | 0.0 | 1.0 | 0.00 | 0.00 | 0.00 | 70 | 1012.6 |
| 20260904050141 | 0 | 0.0 | 0.0 | 0.00 | 0.00 | 0.00 | 1011.9 | ||
| 20260904045925 | 66 | 55 | 0.0 | 1.0 | 0.00 | 0.00 | 0.00 | 70 | 1012.6 |
| 20260904045901 | 67 | 0.0 | 0.0 | 0.00 | 0.00 | 0.00 | 69 | 1011.9 | |
| 20260904045617 | 67 | 0.0 | 0.0 | 0.00 | 0.00 | 0.00 | 69 | 1011.9 | |
| 20260904045541 | 67 | 89 | 0.0 | 0.0 | 0.00 | 0.00 | 0.00 | 69 | 1011.7 |
| 20260904045420 | 66 | 44 | 0.0 | 0.0 | 0.00 | 0.00 | 0.00 | 70 | 1012.7 |
| 20260904045328 | 67 | 89 | 0.0 | 0.0 | 0.00 | 0.00 | 0.00 | 69 | 1011.8 |
| 20260904045229 | 67 | 89 | 0.0 | 0.0 | 0.00 | 0.00 | 0.00 | 69 | 1011.8 |
| 20260904045210 | 67 | 89 | 0.0 | 0.0 | 0.00 | 0.00 | 0.00 | 69 | 1011.8 |
| 20260904045031 | 67 | 89 | 0.0 | 0.0 | 0.00 | 0.00 | 0.00 | 69 | 1011.7 |
| 20260904044929 | 67 | 89 | 0.0 | 0.0 | 0.00 | 0.00 | 0.00 | 69 | 1011.9 |
| 20260904044920 | 67 | 44 | 0.0 | 0.0 | 0.00 | 0.00 | 0.00 | 69 | 1012.7 |
| 20260904044829 | 67 | 89 | 0.0 | 0.0 | 0.00 | 0.00 | 0.00 | 69 | 1011.9 |
| 20260904044813 | 67 | 61 | 0.0 | 0.0 | 0.00 | 0.00 | 0.00 | 69 | 1011.7 |
| 20260904044800 | 67 | 89 | 0.0 | 0.0 | 0.00 | 0.00 | 0.00 | 69 | 1011.9 |
| 20260904044728 | 67 | 89 | 0.0 | 0.0 | 0.00 | 0.00 | 0.00 | 69 | 1011.9 |
| 20260904044658 | 67 | 89 | 0.0 | 0.0 | 0.00 | 0.00 | 0.00 | 69 | 1011.9 |
| 20260904044628 | 67 | 89 | 0.0 | 0.0 | 0.00 | 0.00 | 0.00 | 69 | 1011.9 |
| 20260904044529 | 67 | 89 | 0.0 | 0.0 | 0.00 | 0.00 | 0.00 | 69 | 1011.9 |
| 20260904044458 | 67 | 89 | 0.0 | 0.0 | 0.00 | 0.00 | 0.00 | 69 | 1011.9 |
| 20260904044447 | 67 | 89 | 0.0 | 0.0 | 0.00 | 0.00 | 0.00 | 69 | 1011.9 |
| 20260904044417 | 67 | 50 | 0.0 | 0.0 | 0.00 | 0.00 | 0.00 | 69 | 1012.6 |
| 20260904044230 | 67 | 61 | 0.0 | 0.0 | 0.00 | 0.00 | 0.00 | 69 | 1011.7 |
| 20260904044158 | 67 | 61 | 0.0 | 0.0 | 0.00 | 0.00 | 0.00 | 69 | 1011.7 |
| 20260904044128 | 67 | 61 | 0.0 | 0.0 | 0.00 | 0.00 | 0.00 | 69 | 1011.7 |
| 20260904044030 | 67 | 61 | 0.0 | 0.0 | 0.00 | 0.00 | 0.00 | 69 | 1011.7 |
| 20260904043959 | 67 | 61 | 0.0 | 0.0 | 0.00 | 0.00 | 0.00 | 69 | 1011.7 |
| 20260904043928 | 67 | 61 | 0.0 | 0.0 | 0.00 | 0.00 | 0.00 | 69 | 1011.7 |
| 20260904043907 | 67 | 89 | 0.0 | 0.0 | 0.00 | 0.00 | 0.00 | 69 | 1012.5 |
| 20260904043901 | 67 | 61 | 0.0 | 0.0 | 0.00 | 0.00 | 0.00 | 69 | 1011.7 |
| 20260904043852 | 68 | 0.0 | 0.0 | 0.00 | 0.00 | 0.00 | 69 | 1011.8 | |
| 20260904043829 | 67 | 61 | 0.0 | 0.0 | 0.00 | 0.00 | 0.00 | 69 | 1011.7 |
| 20260904043729 | 67 | 61 | 0.0 | 0.0 | 0.00 | 0.00 | 0.00 | 69 | 1011.7 |
| 20260904043629 | 67 | 61 | 0.0 | 0.0 | 0.00 | 0.00 | 0.00 | 69 | 1011.7 |
| 20260904043541 | 67 | 61 | 0.0 | 0.0 | 0.00 | 0.00 | 0.00 | 69 | 1011.7 |
| 20260904043533 | 67 | 61 | 0.0 | 0.0 | 0.00 | 0.00 | 0.00 | 69 | 1011.7 |
| 20260904043523 | 67 | 61 | 0.0 | 1.0 | 0.00 | 0.00 | 0.00 | 69 | 1011.7 |
| 20260904043404 | 67 | 22 | 0.0 | 1.0 | 0.00 | 0.00 | 0.00 | 69 | 1012.3 |
| 20260904043140 | 68 | 89 | 0.0 | 0.0 | 0.00 | 0.00 | 0.00 | 69 | 1011.6 |
| 20260904043109 | 68 | 89 | 0.0 | 0.0 | 0.00 | 0.00 | 0.00 | 69 | 1011.7 |
| 20260904043039 | 68 | 89 | 0.0 | 0.0 | 0.00 | 0.00 | 0.00 | 69 | 1011.7 |
| 20260904043010 | 68 | 89 | 0.0 | 0.0 | 0.00 | 0.00 | 0.00 | 69 | 1011.6 |
| 20260904042940 | 68 | 89 | 0.0 | 0.0 | 0.00 | 0.00 | 0.00 | 69 | 1011.6 |
| 20260904042909 | 68 | 89 | 0.0 | 0.0 | 0.00 | 0.00 | 0.00 | 69 | 1011.8 |
| 20260904042859 | 67 | 54 | 0.0 | 0.0 | 0.00 | 0.00 | 0.00 | 70 | 1012.4 |
| 20260904042841 | 68 | 89 | 0.0 | 0.0 | 0.00 | 0.00 | 0.00 | 69 | 1011.8 |
| 20260904042814 | 68 | 89 | 0.0 | 0.0 | 0.00 | 0.00 | 0.00 | 69 | 1011.6 |
| 20260904042810 | 68 | 89 | 0.0 | 0.0 | 0.00 | 0.00 | 0.00 | 69 | 1011.7 |
| 20260904042740 | 68 | 89 | 0.0 | 0.0 | 0.00 | 0.00 | 0.00 | 69 | 1011.7 |
| 20260904042710 | 68 | 89 | 0.0 | 0.0 | 0.00 | 0.00 | 0.00 | 69 | 1011.6 |
| 20260904042613 | 68 | 89 | 0.0 | 0.0 | 0.00 | 0.00 | 0.00 | 69 | 1011.6 |
| 20260904042513 | 68 | 89 | 0.0 | 0.0 | 0.00 | 0.00 | 0.00 | 69 | 1011.6 |
| 20260904042503 | 68 | 6 | 0.0 | 0.0 | 0.00 | 0.00 | 0.00 | 69 | 1011.6 |
| 20260904042450 | 68 | 89 | 0.0 | 0.0 | 0.00 | 0.00 | 0.00 | 69 | 1011.6 |
| 20260904042355 | 67 | 37 | 0.0 | 1.0 | 0.00 | 0.00 | 0.00 | 70 | 1012.4 |
| 20260904042310 | 68 | 89 | 0.0 | 0.0 | 0.00 | 0.00 | 0.00 | 69 | 1011.6 |
| 20260904042245 | 68 | 6 | 0.0 | 0.0 | 0.00 | 0.00 | 0.00 | 69 | 1011.6 |
| 20260904042240 | 68 | 89 | 0.0 | 0.0 | 0.00 | 0.00 | 0.00 | 69 | 1011.6 |
| 20260904042210 | 68 | 89 | 0.0 | 0.0 | 0.00 | 0.00 | 0.00 | 69 | 1011.6 |
| 20260904042110 | 68 | 6 | 0.0 | 0.0 | 0.00 | 0.00 | 0.00 | 69 | 1011.6 |
| 20260904042100 | 68 | 6 | 0.0 | 0.0 | 0.00 | 0.00 | 0.00 | 69 | 1011.6 |
| 20260904042046 | 68 | 6 | 0.0 | 0.0 | 0.00 | 0.00 | 0.00 | 69 | 1011.6 |
| 20260904042037 | 68 | 6 | 0.0 | 0.0 | 0.00 | 0.00 | 0.00 | 69 | 1011.6 |
| 20260904041919 | 68 | 6 | 0.0 | 0.0 | 0.00 | 0.00 | 0.00 | 69 | 1011.6 |
| 20260904041905 | 68 | 6 | 0.0 | 0.0 | 0.00 | 0.00 | 0.00 | 69 | 1011.6 |
| 20260904041855 | 68 | 58 | 0.0 | 1.0 | 0.00 | 0.00 | 0.00 | 70 | 1012.7 |
| 20260904041732 | 68 | 6 | 0.0 | 0.0 | 0.00 | 0.00 | 0.00 | 68 | 1011.6 |
| 20260904041726 | 68 | 6 | 0.0 | 0.0 | 0.00 | 0.00 | 0.00 | 69 | 1011.6 |
| 20260904041527 | 68 | 6 | 0.0 | 0.0 | 0.00 | 0.00 | 0.00 | 69 | 1011.6 |
| 20260904041351 | 68 | 123 | 0.0 | 2.0 | 0.00 | 0.00 | 0.00 | 69 | 1012.5 |
| 20260904041222 | 68 | 6 | 0.0 | 1.0 | 0.00 | 0.00 | 0.00 | 68 | 1011.6 |
| 20260904041124 | 0 | 0.0 | 0.0 | 0.00 | 0.00 | 0.00 | 1011.8 | ||
| 20260904040918 | 0 | 0.0 | 0.0 | 0.00 | 0.00 | 0.00 | 1011.8 | ||
| 20260904040847 | 68 | 49 | 2.0 | 2.0 | 0.00 | 0.00 | 0.00 | 68 | 1012.6 |
| 20260904040711 | 0 | 0.0 | 0.0 | 0.00 | 0.00 | 0.00 | 1011.6 | ||
| 20260904040427 | 0 | 0.0 | 0.0 | 0.00 | 0.00 | 0.00 | 1011.6 | ||
| 20260904040342 | 68 | 50 | 0.0 | 0.0 | 0.00 | 0.00 | 0.00 | 67 | 1012.4 |
| 20260904040222 | 0 | 0.0 | 0.0 | 0.00 | 0.00 | 0.00 | 1011.6 | ||
| 20260904040014 | 0 | 0.0 | 0.0 | 0.00 | 0.00 | 0.00 | 1011.7 | ||
| 20260904035838 | 68 | 339 | 0.0 | 1.0 | 0.00 | 0.00 | 0.00 | 66 | 1012.5 |
| 20260904035806 | 0 | 0.0 | 0.0 | 0.00 | 0.00 | 0.00 | 1011.3 | ||
| 20260904035559 | 0 | 0.0 | 0.0 | 0.00 | 0.00 | 0.00 | 1011.5 | ||
| 20260904035334 | 68 | 32 | 0.0 | 2.0 | 0.00 | 0.00 | 0.00 | 66 | 1012.3 |
| 20260904035317 | 0 | 0.0 | 0.0 | 0.00 | 0.00 | 0.00 | 1011.6 | ||
| 20260904035306 | 0 | 0.0 | 0.0 | 0.00 | 0.00 | 0.00 | 1011.3 | ||
| 20260904035110 | 0 | 0.0 | 0.0 | 0.00 | 0.00 | 0.00 | 1011.7 | ||
| 20260904034833 | 68 | 55 | 0.0 | 1.0 | 0.00 | 0.00 | 0.00 | 67 | 1012.3 |
| 20260904034620 | 0 | 0.0 | 0.0 | 0.00 | 0.00 | 0.00 | 1011.1 | ||
| 20260904034412 | 0 | 0.0 | 0.0 | 0.00 | 0.00 | 0.00 | 1011.2 | ||
| 20260904034401 | 0 | 0.0 | 0.0 | 0.00 | 0.00 | 0.00 | 1011.2 | ||
| 20260904034329 | 69 | 142 | 0.0 | 0.0 | 0.00 | 0.00 | 0.00 | 67 | 1012.3 |
| 20260904034205 | 0 | 0.0 | 0.0 | 0.00 | 0.00 | 0.00 | 1011.3 | ||
| 20260904033825 | 69 | 49 | 0.0 | 2.0 | 0.00 | 0.00 | 0.00 | 67 | 1012.1 |
| 20260904033714 | 0 | 0.0 | 0.0 | 0.00 | 0.00 | 0.00 | 1011.1 | ||
| 20260904033456 | 0 | 0.0 | 0.0 | 0.00 | 0.00 | 0.00 | 1011.3 | ||
| 20260904033321 | 69 | 19 | 0.0 | 0.0 | 0.00 | 0.00 | 0.00 | 66 | 1012.0 |
| 20260904033226 | 0 | 0.0 | 0.0 | 0.00 | 0.00 | 0.00 | 1011.2 | ||
| 20260904033024 | 0 | 0.0 | 0.0 | 0.00 | 0.00 | 0.00 | 1011.1 | ||
| 20260904032817 | 69 | 0 | 0.0 | 0.0 | 0.00 | 0.00 | 0.00 | 66 | 1012.1 |
| 20260904032810 | 0 | 0.0 | 0.0 | 0.00 | 0.00 | 0.00 | 1011.2 | ||
| 20260904032757 | 0 | 0.0 | 0.0 | 0.00 | 0.00 | 0.00 | 1011.1 | ||
| 20260904032604 | 0 | 0.0 | 0.0 | 0.00 | 0.00 | 0.00 | 1011.1 | ||
| 20260904032316 | 69 | 249 | 0.0 | 2.0 | 0.00 | 0.00 | 0.00 | 66 | 1012.1 |
| 20260904032124 | 0 | 0.0 | 0.0 | 0.00 | 0.00 | 0.00 | 1010.9 | ||
| 20260904032115 | 0 | 0.0 | 0.0 | 0.00 | 0.00 | 0.00 | 1011.1 | ||
| 20260904031907 | 0 | 0.0 | 0.0 | 0.00 | 0.00 | 0.00 | 1011.1 | ||
| 20260904031847 | 70 | 0.0 | 0.0 | 0.00 | 0.00 | 0.00 | 64 | 1011.0 | |
| 20260904031810 | 69 | 38 | 0.0 | 0.0 | 0.00 | 0.00 | 0.00 | 66 | 1012.0 |
| 20260904031306 | 70 | 6 | 0.0 | 1.0 | 0.00 | 0.00 | 0.00 | 66 | 1011.9 |
| 20260904031124 | 70 | 0.0 | 0.0 | 0.00 | 0.00 | 0.00 | 64 | 1011.0 | |
| 20260904031025 | 70 | 355 | 0.0 | 0.0 | 0.00 | 0.00 | 0.00 | 64 | 1011.0 |
| 20260904030905 | 70 | 0.0 | 0.0 | 0.00 | 0.00 | 0.00 | 64 | 1011.1 | |
| 20260904030802 | 70 | 38 | 0.0 | 1.0 | 0.00 | 0.00 | 0.00 | 65 | 1011.8 |
| 20260904030738 | 70 | 355 | 0.0 | 0.0 | 0.00 | 0.00 | 0.00 | 64 | 1010.9 |
| 20260904030702 | 70 | 355 | 0.0 | 0.0 | 0.00 | 0.00 | 0.00 | 64 | 1011.0 |
| 20260904030525 | 70 | 355 | 0.0 | 0.0 | 0.00 | 0.00 | 0.00 | 64 | 1011.0 |
| 20260904030425 | 70 | 355 | 0.0 | 0.0 | 0.00 | 0.00 | 0.00 | 64 | 1010.9 |
| 20260904030403 | 70 | 355 | 0.0 | 0.0 | 0.00 | 0.00 | 0.00 | 64 | 1010.9 |
| 20260904030257 | 70 | 299 | 0.0 | 1.0 | 0.00 | 0.00 | 0.00 | 65 | 1011.8 |
| 20260904030223 | 70 | 355 | 0.0 | 0.0 | 0.00 | 0.00 | 0.00 | 64 | 1010.9 |
| 20260904030153 | 70 | 355 | 0.0 | 0.0 | 0.00 | 0.00 | 0.00 | 64 | 1010.9 |
| 20260904030123 | 70 | 355 | 0.0 | 0.0 | 0.00 | 0.00 | 0.00 | 64 | 1010.9 |
| 20260904030106 | 70 | 355 | 0.0 | 0.0 | 0.00 | 0.00 | 0.00 | 64 | 1010.9 |
| 20260904030026 | 70 | 355 | 0.0 | 0.0 | 0.00 | 0.00 | 0.00 | 64 | 1010.9 |
| 20260904030006 | 70 | 355 | 0.0 | 0.0 | 0.00 | 0.00 | 0.00 | 64 | 1010.9 |
| 20260904025922 | 70 | 355 | 0.0 | 0.0 | 0.00 | 0.00 | 0.00 | 64 | 1010.9 |
| 20260904025854 | 70 | 355 | 0.0 | 0.0 | 0.00 | 0.00 | 0.00 | 64 | 1010.9 |
| 20260904025823 | 70 | 355 | 0.0 | 0.0 | 0.00 | 0.00 | 0.00 | 64 | 1010.9 |
| 20260904025753 | 70 | 104 | 0.0 | 1.0 | 0.00 | 0.00 | 0.00 | 64 | 1011.8 |
| 20260904025739 | 71 | 19 | 0.0 | 0.0 | 0.00 | 0.00 | 0.00 | 63 | 1010.9 |
| 20260904025723 | 70 | 355 | 0.0 | 0.0 | 0.00 | 0.00 | 0.00 | 64 | 1010.9 |
| 20260904025654 | 70 | 355 | 0.0 | 2.0 | 0.00 | 0.00 | 0.00 | 64 | 1010.9 |
| 20260904025633 | 71 | 19 | 0.0 | 0.0 | 0.00 | 0.00 | 0.00 | 63 | 1010.9 |
| 20260904025625 | 70 | 19 | 0.0 | 0.0 | 0.00 | 0.00 | 0.00 | 64 | 1011.0 |
| 20260904025523 | 70 | 19 | 0.0 | 0.0 | 0.00 | 0.00 | 0.00 | 64 | 1011.0 |
| 20260904025432 | 71 | 19 | 0.0 | 0.0 | 0.00 | 0.00 | 0.00 | 63 | 1010.8 |
| 20260904025428 | 71 | 19 | 0.0 | 0.0 | 0.00 | 0.00 | 0.00 | 63 | 1011.0 |
| 20260904025415 | 71 | 19 | 0.0 | 0.0 | 0.00 | 0.00 | 0.00 | 63 | 1010.9 |
| 20260904025248 | 71 | 43 | 0.0 | 2.0 | 0.00 | 0.00 | 0.00 | 64 | 1011.9 |
| 20260904025122 | 71 | 19 | 0.0 | 0.0 | 0.00 | 0.00 | 0.00 | 63 | 1010.9 |
| 20260904025030 | 71 | 19 | 0.0 | 0.0 | 0.00 | 0.00 | 0.00 | 63 | 1011.0 |
| 20260904024939 | 71 | 19 | 0.0 | 0.0 | 0.00 | 0.00 | 0.00 | 63 | 1010.9 |
| 20260904024752 | 71 | 19 | 0.0 | 0.0 | 0.00 | 0.00 | 0.00 | 63 | 1010.8 |
| 20260904024743 | 71 | 337 | 1.0 | 2.0 | 0.00 | 0.00 | 0.00 | 64 | 1011.9 |
| 20260904024722 | 71 | 19 | 0.0 | 0.0 | 0.00 | 0.00 | 0.00 | 63 | 1010.8 |
| 20260904024655 | 71 | 19 | 0.0 | 0.0 | 0.00 | 0.00 | 0.00 | 63 | 1010.8 |
| 20260904024632 | 71 | 29 | 0.0 | 0.0 | 0.00 | 0.00 | 0.00 | 63 | 1010.8 |
| 20260904024622 | 71 | 29 | 0.0 | 0.0 | 0.00 | 0.00 | 0.00 | 63 | 1010.8 |
| 20260904024605 | 71 | 29 | 0.0 | 0.0 | 0.00 | 0.00 | 0.00 | 63 | 1010.8 |
| 20260904024523 | 71 | 29 | 0.0 | 0.0 | 0.00 | 0.00 | 0.00 | 63 | 1010.8 |
| 20260904024510 | 71 | 29 | 0.0 | 0.0 | 0.00 | 0.00 | 0.00 | 63 | 1010.8 |
| 20260904024506 | 71 | 29 | 0.0 | 0.0 | 0.00 | 0.00 | 0.00 | 63 | 1010.8 |
| 20260904024422 | 71 | 29 | 0.0 | 0.0 | 0.00 | 0.00 | 0.00 | 63 | 1010.8 |
| 20260904024323 | 71 | 29 | 0.0 | 0.0 | 0.00 | 0.00 | 0.00 | 63 | 1010.8 |
| 20260904024306 | 71 | 29 | 0.0 | 0.0 | 0.00 | 0.00 | 0.00 | 63 | 1010.8 |
| 20260904024238 | 71 | 99 | 0.0 | 2.0 | 0.00 | 0.00 | 0.00 | 64 | 1011.8 |
| 20260904024142 | 71 | 29 | 0.0 | 0.0 | 0.00 | 0.00 | 0.00 | 63 | 1010.8 |
| 20260904024006 | 71 | 29 | 0.0 | 0.0 | 0.00 | 0.00 | 0.00 | 63 | 1010.8 |
| 20260904023923 | 71 | 29 | 0.0 | 0.0 | 0.00 | 0.00 | 0.00 | 63 | 1010.8 |
| 20260904023827 | 71 | 29 | 0.0 | 0.0 | 0.00 | 0.00 | 0.00 | 63 | 1010.8 |
| 20260904023815 | 71 | 29 | 0.0 | 0.0 | 0.00 | 0.00 | 0.00 | 63 | 1010.8 |
| 20260904023735 | 71 | 329 | 1.0 | 1.0 | 0.00 | 0.00 | 0.00 | 63 | 1011.6 |
| 20260904023637 | 71 | 29 | 0.0 | 1.0 | 0.00 | 0.00 | 0.00 | 63 | 1010.8 |
| 20260904023626 | 72 | 354 | 0.0 | 0.0 | 0.00 | 0.00 | 0.00 | 62 | 1010.6 |
| 20260904023506 | 72 | 354 | 0.0 | 0.0 | 0.00 | 0.00 | 0.00 | 62 | 1010.5 |
| 20260904023502 | 72 | 0.0 | 0.0 | 0.00 | 0.00 | 0.00 | 62 | 1010.9 | |
| 20260904023314 | 72 | 354 | 0.0 | 0.0 | 0.00 | 0.00 | 0.00 | 62 | 1010.6 |
| 20260904023307 | 72 | 354 | 0.0 | 0.0 | 0.00 | 0.00 | 0.00 | 62 | 1010.8 |
| 20260904023257 | 72 | 354 | 0.0 | 0.0 | 0.00 | 0.00 | 0.00 | 62 | 1010.6 |
| 20260904023231 | 71 | 22 | 0.0 | 2.0 | 0.00 | 0.00 | 0.00 | 63 | 1011.7 |
| 20260904023137 | 72 | 354 | 0.0 | 0.0 | 0.00 | 0.00 | 0.00 | 62 | 1010.8 |
| 20260904023129 | 72 | 354 | 0.0 | 0.0 | 0.00 | 0.00 | 0.00 | 62 | 1010.8 |
| 20260904022945 | 72 | 354 | 0.0 | 0.0 | 0.00 | 0.00 | 0.00 | 62 | 1010.5 |
| 20260904022933 | 72 | 354 | 0.0 | 0.0 | 0.00 | 0.00 | 0.00 | 62 | 1010.8 |
| 20260904022929 | 72 | 354 | 0.0 | 0.0 | 0.00 | 0.00 | 0.00 | 62 | 1010.6 |
| 20260904022745 | 72 | 354 | 0.0 | 0.0 | 0.00 | 0.00 | 0.00 | 62 | 1010.6 |
| 20260904022730 | 71 | 39 | 2.0 | 3.0 | 0.00 | 0.00 | 0.00 | 63 | 1011.7 |
| 20260904022714 | 72 | 354 | 0.0 | 0.0 | 0.00 | 0.00 | 0.00 | 62 | 1010.8 |
| 20260904022645 | 72 | 354 | 0.0 | 0.0 | 0.00 | 0.00 | 0.00 | 62 | 1010.8 |
| 20260904022628 | 72 | 13 | 0.0 | 0.0 | 0.00 | 0.00 | 0.00 | 62 | 1010.7 |
| 20260904022615 | 72 | 354 | 0.0 | 0.0 | 0.00 | 0.00 | 0.00 | 62 | 1010.8 |
| 20260904022515 | 72 | 354 | 0.0 | 0.0 | 0.00 | 0.00 | 0.00 | 62 | 1010.8 |
| 20260904022501 | 72 | 13 | 0.0 | 0.0 | 0.00 | 0.00 | 0.00 | 62 | 1010.7 |
| 20260904022454 | 72 | 354 | 0.0 | 0.0 | 0.00 | 0.00 | 0.00 | 62 | 1010.8 |
| 20260904022316 | 72 | 354 | 0.0 | 0.0 | 0.00 | 0.00 | 0.00 | 62 | 1010.8 |
| 20260904022254 | 72 | 13 | 0.0 | 0.0 | 0.00 | 0.00 | 0.00 | 62 | 1010.7 |
| 20260904022228 | 72 | 130 | 0.0 | 0.0 | 0.00 | 0.00 | 0.00 | 63 | 1011.8 |
| 20260904022115 | 72 | 13 | 0.0 | 0.0 | 0.00 | 0.00 | 0.00 | 62 | 1010.7 |
| 20260904022103 | 72 | 13 | 0.0 | 0.0 | 0.00 | 0.00 | 0.00 | 62 | 1010.7 |
| 20260904022056 | 72 | 13 | 0.0 | 0.0 | 0.00 | 0.00 | 0.00 | 62 | 1010.7 |
| 20260904021914 | 72 | 13 | 0.0 | 0.0 | 0.00 | 0.00 | 0.00 | 62 | 1010.7 |
| 20260904021845 | 72 | 13 | 0.0 | 0.0 | 0.00 | 0.00 | 0.00 | 62 | 1010.7 |
| 20260904021824 | 72 | 13 | 0.0 | 0.0 | 0.00 | 0.00 | 0.00 | 62 | 1010.7 |
| 20260904021815 | 72 | 13 | 0.0 | 0.0 | 0.00 | 0.00 | 0.00 | 62 | 1010.7 |
| 20260904021723 | 72 | 353 | 0.0 | 2.0 | 0.00 | 0.00 | 0.00 | 63 | 1011.7 |
| 20260904021715 | 72 | 13 | 0.0 | 0.0 | 0.00 | 0.00 | 0.00 | 62 | 1010.7 |
| 20260904021635 | 72 | 324 | 1.0 | 0.0 | 0.00 | 0.00 | 0.00 | 62 | 1010.9 |
| 20260904021631 | 72 | 13 | 0.0 | 0.0 | 0.00 | 0.00 | 0.00 | 62 | 1010.7 |
| 20260904021454 | 72 | 13 | 0.0 | 0.0 | 0.00 | 0.00 | 0.00 | 62 | 1010.7 |
| 20260904021326 | 72 | 324 | 1.0 | 0.0 | 0.00 | 0.00 | 0.00 | 62 | 1010.9 |
| 20260904021316 | 72 | 13 | 0.0 | 0.0 | 0.00 | 0.00 | 0.00 | 62 | 1010.7 |
| 20260904021233 | 73 | 324 | 1.0 | 0.0 | 0.00 | 0.00 | 0.00 | 62 | 1010.9 |
| 20260904021229 | 72 | 324 | 1.0 | 0.0 | 0.00 | 0.00 | 0.00 | 62 | 1010.9 |
| 20260904021223 | 72 | 0 | 0.0 | 1.0 | 0.00 | 0.00 | 0.00 | 62 | 1011.8 |
| 20260904021047 | 72 | 324 | 1.0 | 0.0 | 0.00 | 0.00 | 0.00 | 62 | 1010.9 |
| 20260904021014 | 72 | 324 | 1.0 | 0.0 | 0.00 | 0.00 | 0.00 | 62 | 1010.9 |
| 20260904020955 | 72 | 324 | 1.0 | 0.0 | 0.00 | 0.00 | 0.00 | 62 | 1010.9 |
| 20260904020821 | 73 | 324 | 1.0 | 2.0 | 0.00 | 0.00 | 0.00 | 61 | 1010.9 |
| 20260904020816 | 72 | 324 | 1.0 | 0.0 | 0.00 | 0.00 | 0.00 | 62 | 1010.9 |
| 20260904020741 | 73 | 324 | 1.0 | 0.0 | 0.00 | 0.00 | 0.00 | 62 | 1010.9 |
| 20260904020719 | 73 | 326 | 0.0 | 2.0 | 0.00 | 0.00 | 0.00 | 62 | 1011.8 |
| 20260904020514 | 73 | 324 | 1.0 | 0.0 | 0.00 | 0.00 | 0.00 | 61 | 1010.9 |
| 20260904020500 | 73 | 324 | 1.0 | 0.0 | 0.00 | 0.00 | 0.00 | 61 | 1010.9 |
| 20260904020449 | 73 | 324 | 1.0 | 0.0 | 0.00 | 0.00 | 0.00 | 62 | 1010.9 |
| 20260904020439 | 73 | 324 | 1.0 | 0.0 | 0.00 | 0.00 | 0.00 | 61 | 1010.9 |
| 20260904020257 | 73 | 24 | 0.0 | 0.0 | 0.00 | 0.00 | 0.00 | 62 | 1010.7 |
| 20260904020219 | 73 | 309 | 0.0 | 2.0 | 0.00 | 0.00 | 0.00 | 61 | 1011.8 |
| 20260904020214 | 73 | 24 | 0.0 | 0.0 | 0.00 | 0.00 | 0.00 | 61 | 1010.7 |
| 20260904020120 | 73 | 24 | 0.0 | 0.0 | 0.00 | 0.00 | 0.00 | 61 | 1010.7 |
| 20260904020057 | 73 | 24 | 0.0 | 0.0 | 0.00 | 0.00 | 0.00 | 61 | 1010.7 |
| 20260904020015 | 73 | 24 | 0.0 | 0.0 | 0.00 | 0.00 | 0.00 | 61 | 1010.7 |
| 20260904015915 | 73 | 24 | 0.0 | 0.0 | 0.00 | 0.00 | 0.00 | 61 | 1010.7 |
| 20260904015855 | 74 | 24 | 0.0 | 0.0 | 0.00 | 0.00 | 0.00 | 60 | 1010.7 |
| 20260904015845 | 73 | 24 | 0.0 | 0.0 | 0.00 | 0.00 | 0.00 | 61 | 1010.7 |
| 20260904015814 | 73 | 24 | 0.0 | 0.0 | 0.00 | 0.00 | 0.00 | 61 | 1010.7 |
| 20260904015744 | 73 | 24 | 0.0 | 0.0 | 0.00 | 0.00 | 0.00 | 61 | 1010.7 |
| 20260904015717 | 73 | 285 | 0.0 | 2.0 | 0.00 | 0.00 | 0.00 | 61 | 1011.8 |
| 20260904015714 | 73 | 24 | 0.0 | 0.0 | 0.00 | 0.00 | 0.00 | 61 | 1010.7 |
| 20260904015615 | 73 | 24 | 0.0 | 0.0 | 0.00 | 0.00 | 0.00 | 61 | 1010.7 |
| 20260904015534 | 73 | 24 | 0.0 | 0.0 | 0.00 | 0.00 | 0.00 | 61 | 1010.7 |
| 20260904015525 | 73 | 24 | 0.0 | 0.0 | 0.00 | 0.00 | 0.00 | 61 | 1010.7 |
| 20260904015344 | 74 | 24 | 0.0 | 0.0 | 0.00 | 0.00 | 0.00 | 60 | 1010.7 |
| 20260904015316 | 74 | 24 | 0.0 | 2.0 | 0.00 | 0.00 | 0.00 | 60 | 1010.7 |
| 20260904015216 | 74 | 322 | 0.0 | 0.0 | 0.00 | 0.00 | 0.00 | 60 | 1010.7 |
| 20260904015213 | 74 | 274 | 1.0 | 2.0 | 0.00 | 0.00 | 0.00 | 60 | 1011.6 |
| 20260904015145 | 74 | 322 | 0.0 | 0.0 | 0.00 | 0.00 | 0.00 | 60 | 1010.7 |
| 20260904015114 | 74 | 322 | 0.0 | 0.0 | 0.00 | 0.00 | 0.00 | 60 | 1010.7 |
| 20260904015014 | 74 | 322 | 0.0 | 0.0 | 0.00 | 0.00 | 0.00 | 60 | 1010.7 |
| 20260904014945 | 74 | 322 | 0.0 | 0.0 | 0.00 | 0.00 | 0.00 | 60 | 1010.7 |
| 20260904014914 | 74 | 322 | 0.0 | 0.0 | 0.00 | 0.00 | 0.00 | 60 | 1010.7 |
| 20260904014824 | 75 | 322 | 0.0 | 0.0 | 0.00 | 0.00 | 0.00 | 59 | 1010.7 |
| 20260904014815 | 74 | 322 | 0.0 | 0.0 | 0.00 | 0.00 | 0.00 | 60 | 1010.7 |
| 20260904014746 | 74 | 322 | 0.0 | 0.0 | 0.00 | 0.00 | 0.00 | 60 | 1010.7 |
| 20260904014714 | 74 | 322 | 0.0 | 0.0 | 0.00 | 0.00 | 0.00 | 60 | 1010.7 |
| 20260904014711 | 74 | 347 | 3.0 | 3.0 | 0.00 | 0.00 | 0.00 | 59 | 1011.6 |
| 20260904014644 | 74 | 322 | 0.0 | 0.0 | 0.00 | 0.00 | 0.00 | 59 | 1010.7 |
| 20260904014614 | 74 | 322 | 0.0 | 0.0 | 0.00 | 0.00 | 0.00 | 59 | 1010.7 |
| 20260904014515 | 74 | 322 | 0.0 | 0.0 | 0.00 | 0.00 | 0.00 | 60 | 1010.7 |
| 20260904014505 | 75 | 359 | 1.0 | 0.0 | 0.00 | 0.00 | 0.00 | 59 | 1010.7 |
| 20260904014454 | 75 | 322 | 0.0 | 0.0 | 0.00 | 0.00 | 0.00 | 59 | 1010.7 |
| 20260904014325 | 75 | 359 | 1.0 | 0.0 | 0.00 | 0.00 | 0.00 | 59 | 1010.7 |
| 20260904014316 | 75 | 322 | 0.0 | 1.0 | 0.00 | 0.00 | 0.00 | 59 | 1010.7 |
| 20260904014245 | 75 | 359 | 1.0 | 0.0 | 0.00 | 0.00 | 0.00 | 59 | 1010.7 |
| 20260904014214 | 75 | 359 | 1.0 | 0.0 | 0.00 | 0.00 | 0.00 | 59 | 1010.7 |
| 20260904014207 | 75 | 300 | 1.0 | 2.0 | 0.00 | 0.00 | 0.00 | 59 | 1011.6 |
| 20260904014155 | 75 | 359 | 1.0 | 0.0 | 0.00 | 0.00 | 0.00 | 59 | 1010.7 |
| 20260904014148 | 75 | 359 | 1.0 | 0.0 | 0.00 | 0.00 | 0.00 | 59 | 1010.7 |
| 20260904014129 | 75 | 359 | 1.0 | 0.0 | 0.00 | 0.00 | 0.00 | 59 | 1010.7 |
| 20260904013958 | 75 | 359 | 1.0 | 0.0 | 0.00 | 0.00 | 0.00 | 59 | 1010.7 |
| 20260904013822 | 75 | 359 | 1.0 | 0.0 | 0.00 | 0.00 | 0.00 | 59 | 1010.7 |
| 20260904013703 | 75 | 356 | 2.0 | 2.0 | 0.00 | 0.00 | 0.00 | 59 | 1011.6 |
| 20260904013514 | 75 | 359 | 1.0 | 0.0 | 0.00 | 0.00 | 0.00 | 59 | 1010.7 |
| 20260904013444 | 75 | 359 | 1.0 | 0.0 | 0.00 | 0.00 | 0.00 | 59 | 1010.7 |
| 20260904013414 | 75 | 359 | 1.0 | 0.0 | 0.00 | 0.00 | 0.00 | 59 | 1010.7 |
| 20260904013344 | 75 | 359 | 1.0 | 0.0 | 0.00 | 0.00 | 0.00 | 59 | 1010.7 |
| 20260904013316 | 75 | 359 | 1.0 | 2.0 | 0.00 | 0.00 | 0.00 | 59 | 1010.7 |
| 20260904013257 | 75 | 311 | 1.0 | 0.0 | 0.00 | 0.00 | 0.00 | 59 | 1010.6 |
| 20260904013214 | 75 | 311 | 1.0 | 0.0 | 0.00 | 0.00 | 0.00 | 59 | 1010.6 |
| 20260904013159 | 75 | 20 | 0.0 | 2.0 | 0.00 | 0.00 | 0.00 | 59 | 1011.5 |
| 20260904013126 | 76 | 311 | 1.0 | 0.0 | 0.00 | 0.00 | 0.00 | 58 | 1010.6 |
| 20260904013115 | 75 | 311 | 1.0 | 0.0 | 0.00 | 0.00 | 0.00 | 58 | 1010.6 |
| 20260904013015 | 75 | 311 | 1.0 | 0.0 | 0.00 | 0.00 | 0.00 | 58 | 1010.6 |
| 20260904012951 | 76 | 311 | 1.0 | 0.0 | 0.00 | 0.00 | 0.00 | 58 | 1010.6 |
| 20260904012945 | 75 | 311 | 1.0 | 0.0 | 0.00 | 0.00 | 0.00 | 58 | 1010.6 |
| 20260904012914 | 75 | 311 | 1.0 | 0.0 | 0.00 | 0.00 | 0.00 | 58 | 1010.6 |
| 20260904012857 | 75 | 311 | 1.0 | 0.0 | 0.00 | 0.00 | 0.00 | 58 | 1010.6 |
| 20260904012814 | 75 | 311 | 1.0 | 0.0 | 0.00 | 0.00 | 0.00 | 58 | 1010.6 |
| 20260904012749 | 75 | 311 | 1.0 | 0.0 | 0.00 | 0.00 | 0.00 | 58 | 1010.6 |
| 20260904012740 | 75 | 311 | 1.0 | 0.0 | 0.00 | 0.00 | 0.00 | 58 | 1010.6 |
| 20260904012654 | 75 | 1 | 0.0 | 2.0 | 0.00 | 0.00 | 0.00 | 58 | 1011.5 |
| 20260904012414 | 76 | 311 | 1.0 | 0.0 | 0.00 | 0.00 | 0.00 | 58 | 1010.6 |
| 20260904012345 | 76 | 311 | 1.0 | 0.0 | 0.00 | 0.00 | 0.00 | 58 | 1010.6 |
| 20260904012316 | 76 | 311 | 1.0 | 2.0 | 0.00 | 0.00 | 0.00 | 58 | 1010.6 |
| 20260904012244 | 76 | 326 | 1.0 | 0.0 | 0.00 | 0.00 | 0.00 | 58 | 1010.8 |
| 20260904012214 | 76 | 326 | 1.0 | 0.0 | 0.00 | 0.00 | 0.00 | 58 | 1010.8 |
| 20260904012153 | 76 | 341 | 1.0 | 2.0 | 0.00 | 0.00 | 0.00 | 57 | 1011.6 |
| 20260904012115 | 76 | 326 | 1.0 | 0.0 | 0.00 | 0.00 | 0.00 | 58 | 1010.8 |
| 20260904012046 | 76 | 326 | 1.0 | 0.0 | 0.00 | 0.00 | 0.00 | 58 | 1010.8 |
| 20260904012015 | 76 | 326 | 1.0 | 0.0 | 0.00 | 0.00 | 0.00 | 58 | 1010.8 |
| 20260904011945 | 76 | 326 | 1.0 | 0.0 | 0.00 | 0.00 | 0.00 | 58 | 1010.8 |
| 20260904011919 | 76 | 326 | 1.0 | 0.0 | 0.00 | 0.00 | 0.00 | 57 | 1010.8 |
| 20260904011914 | 76 | 326 | 1.0 | 0.0 | 0.00 | 0.00 | 0.00 | 58 | 1010.8 |
| 20260904011815 | 76 | 326 | 1.0 | 0.0 | 0.00 | 0.00 | 0.00 | 58 | 1010.8 |
| 20260904011715 | 76 | 326 | 1.0 | 0.0 | 0.00 | 0.00 | 0.00 | 58 | 1010.8 |
| 20260904011653 | 76 | 291 | 2.0 | 2.0 | 0.00 | 0.00 | 0.00 | 57 | 1011.5 |
| 20260904011626 | 77 | 335 | 0.0 | 0.0 | 0.00 | 0.00 | 0.00 | 57 | 1010.8 |
| 20260904011614 | 76 | 326 | 1.0 | 0.0 | 0.00 | 0.00 | 0.00 | 58 | 1010.8 |
| 20260904011604 | 76 | 326 | 1.0 | 0.0 | 0.00 | 0.00 | 0.00 | 58 | 1010.8 |
| 20260904011555 | 76 | 326 | 1.0 | 0.0 | 0.00 | 0.00 | 0.00 | 57 | 1010.8 |
| 20260904011431 | 77 | 335 | 0.0 | 0.0 | 0.00 | 0.00 | 0.00 | 57 | 1010.8 |
| 20260904011415 | 76 | 326 | 1.0 | 0.0 | 0.00 | 0.00 | 0.00 | 57 | 1010.8 |
| 20260904011344 | 76 | 326 | 1.0 | 0.0 | 0.00 | 0.00 | 0.00 | 57 | 1010.8 |
| 20260904011330 | 76 | 326 | 1.0 | 2.0 | 0.00 | 0.00 | 0.00 | 57 | 1010.8 |
| 20260904011305 | 77 | 335 | 0.0 | 0.0 | 0.00 | 0.00 | 0.00 | 57 | 1010.8 |
| 20260904011255 | 77 | 335 | 0.0 | 0.0 | 0.00 | 0.00 | 0.00 | 57 | 1010.8 |
| 20260904011148 | 77 | 347 | 1.0 | 2.0 | 0.00 | 0.00 | 0.00 | 57 | 1011.5 |
| 20260904011119 | 77 | 335 | 0.0 | 0.0 | 0.00 | 0.00 | 0.00 | 57 | 1010.8 |
| 20260904011115 | 77 | 335 | 0.0 | 0.0 | 0.00 | 0.00 | 0.00 | 57 | 1010.8 |
| 20260904011050 | 77 | 335 | 0.0 | 0.0 | 0.00 | 0.00 | 0.00 | 57 | 1010.8 |
| 20260904010743 | 77 | 335 | 0.0 | 0.0 | 0.00 | 0.00 | 0.00 | 57 | 1010.8 |
| 20260904010644 | 77 | 7 | 1.0 | 2.0 | 0.00 | 0.00 | 0.00 | 57 | 1011.7 |
| 20260904010545 | 77 | 335 | 0.0 | 0.0 | 0.00 | 0.00 | 0.00 | 57 | 1010.8 |
| 20260904010514 | 77 | 335 | 0.0 | 0.0 | 0.00 | 0.00 | 0.00 | 57 | 1010.8 |
| 20260904010447 | 77 | 335 | 0.0 | 0.0 | 0.00 | 0.00 | 0.00 | 57 | 1010.8 |
| 20260904010418 | 77 | 335 | 0.0 | 0.0 | 0.00 | 0.00 | 0.00 | 56 | 1010.8 |
| 20260904010406 | 78 | 351 | 1.0 | 0.0 | 0.00 | 0.00 | 0.00 | 56 | 1010.7 |
| 20260904010344 | 77 | 335 | 0.0 | 0.0 | 0.00 | 0.00 | 0.00 | 56 | 1010.8 |
| 20260904010315 | 77 | 335 | 0.0 | 1.0 | 0.00 | 0.00 | 0.00 | 56 | 1010.8 |
| 20260904010222 | 78 | 351 | 1.0 | 0.0 | 0.00 | 0.00 | 0.00 | 56 | 1010.7 |
| 20260904010215 | 77 | 351 | 1.0 | 0.0 | 0.00 | 0.00 | 0.00 | 56 | 1010.7 |
| 20260904010145 | 77 | 351 | 1.0 | 0.0 | 0.00 | 0.00 | 0.00 | 56 | 1010.7 |
| 20260904010140 | 78 | 7 | 2.0 | 2.0 | 0.00 | 0.00 | 0.00 | 56 | 1011.8 |
| 20260904010129 | 78 | 351 | 1.0 | 0.0 | 0.00 | 0.00 | 0.00 | 56 | 1010.7 |
| 20260904010041 | 78 | 351 | 1.0 | 0.0 | 0.00 | 0.00 | 0.00 | 56 | 1010.7 |
| 20260904005915 | 78 | 351 | 1.0 | 0.0 | 0.00 | 0.00 | 0.00 | 56 | 1010.7 |
| 20260904005855 | 78 | 351 | 1.0 | 0.0 | 0.00 | 0.00 | 0.00 | 56 | 1010.7 |
| 20260904005714 | 78 | 351 | 1.0 | 0.0 | 0.00 | 0.00 | 0.00 | 56 | 1010.7 |
| 20260904005645 | 78 | 351 | 1.0 | 0.0 | 0.00 | 0.00 | 0.00 | 55 | 1010.7 |
| 20260904005635 | 78 | 236 | 1.0 | 3.0 | 0.00 | 0.00 | 0.00 | 55 | 1011.6 |
| 20260904005614 | 78 | 351 | 1.0 | 0.0 | 0.00 | 0.00 | 0.00 | 55 | 1010.7 |
| 20260904005556 | 78 | 351 | 1.0 | 0.0 | 0.00 | 0.00 | 0.00 | 56 | 1010.7 |
| 20260904005428 | 78 | 351 | 1.0 | 0.0 | 0.00 | 0.00 | 0.00 | 56 | 1010.7 |
| 20260904005344 | 78 | 351 | 1.0 | 0.0 | 0.00 | 0.00 | 0.00 | 56 | 1010.7 |
| 20260904005318 | 78 | 351 | 1.0 | 2.0 | 0.00 | 0.00 | 0.00 | 56 | 1010.7 |
| 20260904005250 | 78 | 346 | 1.0 | 0.0 | 0.00 | 0.00 | 0.00 | 56 | 1010.5 |
| 20260904005215 | 78 | 346 | 1.0 | 0.0 | 0.00 | 0.00 | 0.00 | 56 | 1010.5 |
| 20260904005145 | 78 | 346 | 1.0 | 0.0 | 0.00 | 0.00 | 0.00 | 56 | 1010.5 |
| 20260904005130 | 78 | 240 | 2.0 | 2.0 | 0.00 | 0.00 | 0.00 | 56 | 1011.5 |
| 20260904005126 | 78 | 346 | 1.0 | 0.0 | 0.00 | 0.00 | 0.00 | 56 | 1010.5 |
| 20260904005115 | 78 | 346 | 1.0 | 0.0 | 0.00 | 0.00 | 0.00 | 56 | 1010.5 |
| 20260904005030 | 79 | 313 | 2.0 | 0.0 | 0.00 | 0.00 | 0.00 | 56 | 1010.6 |
| 20260904005015 | 78 | 346 | 1.0 | 0.0 | 0.00 | 0.00 | 0.00 | 56 | 1010.5 |
| 20260904004949 | 78 | 313 | 2.0 | 0.0 | 0.00 | 0.00 | 0.00 | 56 | 1010.6 |
| 20260904004935 | 78 | 346 | 1.0 | 0.0 | 0.00 | 0.00 | 0.00 | 56 | 1010.5 |
| 20260904004921 | 78 | 346 | 1.0 | 0.0 | 0.00 | 0.00 | 0.00 | 56 | 1010.5 |
| 20260904004755 | 78 | 346 | 1.0 | 0.0 | 0.00 | 0.00 | 0.00 | 56 | 1010.5 |
| 20260904004626 | 78 | 252 | 2.0 | 2.0 | 0.00 | 0.00 | 0.00 | 55 | 1011.6 |
| 20260904004514 | 78 | 346 | 1.0 | 0.0 | 0.00 | 0.00 | 0.00 | 56 | 1010.5 |
| 20260904004428 | 78 | 313 | 2.0 | 0.0 | 0.00 | 0.00 | 0.00 | 56 | 1010.6 |
| 20260904004414 | 78 | 346 | 1.0 | 0.0 | 0.00 | 0.00 | 0.00 | 56 | 1010.5 |
| 20260904004403 | 79 | 313 | 2.0 | 0.0 | 0.00 | 0.00 | 0.00 | 55 | 1010.6 |
| 20260904004359 | 79 | 313 | 2.0 | 0.0 | 0.00 | 0.00 | 0.00 | 56 | 1010.6 |
| 20260904004354 | 78 | 346 | 1.0 | 0.0 | 0.00 | 0.00 | 0.00 | 55 | 1010.5 |
| 20260904004345 | 78 | 346 | 1.0 | 2.0 | 0.00 | 0.00 | 0.00 | 56 | 1010.5 |
| 20260904004219 | 78 | 313 | 2.0 | 0.0 | 0.00 | 0.00 | 0.00 | 56 | 1010.6 |
| 20260904004208 | 78 | 313 | 2.0 | 0.0 | 0.00 | 0.00 | 0.00 | 55 | 1010.6 |
| 20260904004126 | 79 | 339 | 1.0 | 1.0 | 0.00 | 0.00 | 0.00 | 56 | 1011.7 |
| 20260904003914 | 78 | 313 | 2.0 | 0.0 | 0.00 | 0.00 | 0.00 | 56 | 1010.6 |
| 20260904003844 | 79 | 313 | 2.0 | 0.0 | 0.00 | 0.00 | 0.00 | 55 | 1010.6 |
| 20260904003816 | 79 | 313 | 2.0 | 0.0 | 0.00 | 0.00 | 0.00 | 56 | 1010.6 |
| 20260904003800 | 79 | 312 | 0.0 | 0.0 | 0.00 | 0.00 | 0.00 | 56 | 1010.7 |
| 20260904003756 | 79 | 313 | 2.0 | 0.0 | 0.00 | 0.00 | 0.00 | 56 | 1010.6 |
| 20260904003746 | 79 | 313 | 2.0 | 0.0 | 0.00 | 0.00 | 0.00 | 55 | 1010.6 |
| 20260904003622 | 79 | 1 | 1.0 | 2.0 | 0.00 | 0.00 | 0.00 | 56 | 1011.6 |
| 20260904003458 | 79 | 313 | 2.0 | 0.0 | 0.00 | 0.00 | 0.00 | 56 | 1010.6 |
| 20260904003426 | 79 | 312 | 0.0 | 0.0 | 0.00 | 0.00 | 0.00 | 55 | 1010.7 |
| 20260904003415 | 79 | 313 | 2.0 | 0.0 | 0.00 | 0.00 | 0.00 | 56 | 1010.6 |
| 20260904003353 | 79 | 313 | 2.0 | 0.0 | 0.00 | 0.00 | 0.00 | 55 | 1010.6 |
| 20260904003316 | 79 | 313 | 2.0 | 2.0 | 0.00 | 0.00 | 0.00 | 55 | 1010.6 |
| 20260904003237 | 79 | 312 | 0.0 | 0.0 | 0.00 | 0.00 | 0.00 | 55 | 1010.7 |
| 20260904003231 | 79 | 312 | 0.0 | 0.0 | 0.00 | 0.00 | 0.00 | 55 | 1010.7 |
| 20260904003118 | 79 | 251 | 1.0 | 3.0 | 0.00 | 0.00 | 0.00 | 55 | 1011.6 |
| 20260904003103 | 79 | 312 | 0.0 | 0.0 | 0.00 | 0.00 | 0.00 | 55 | 1010.7 |
| 20260904003055 | 79 | 312 | 0.0 | 0.0 | 0.00 | 0.00 | 0.00 | 56 | 1010.7 |
| 20260904002914 | 79 | 312 | 0.0 | 0.0 | 0.00 | 0.00 | 0.00 | 55 | 1010.7 |
| 20260904002901 | 80 | 318 | 2.0 | 0.0 | 0.00 | 0.00 | 0.00 | 54 | 1010.8 |
| 20260904002843 | 79 | 312 | 0.0 | 0.0 | 0.00 | 0.00 | 0.00 | 55 | 1010.7 |
| 20260904002614 | 79 | 230 | 2.0 | 3.0 | 0.00 | 0.00 | 0.00 | 55 | 1011.6 |
| 20260904002600 | 80 | 318 | 2.0 | 0.0 | 0.00 | 0.00 | 0.00 | 54 | 1010.8 |
| 20260904002514 | 79 | 312 | 0.0 | 0.0 | 0.00 | 0.00 | 0.00 | 55 | 1010.7 |
| 20260904002430 | 79 | 312 | 0.0 | 0.0 | 0.00 | 0.00 | 0.00 | 55 | 1010.7 |
| 20260904002421 | 79 | 312 | 0.0 | 0.0 | 0.00 | 0.00 | 0.00 | 55 | 1010.7 |
| 20260904002411 | 80 | 312 | 0.0 | 2.0 | 0.00 | 0.00 | 0.00 | 54 | 1010.7 |
| 20260904002245 | 80 | 318 | 2.0 | 0.0 | 0.00 | 0.00 | 0.00 | 55 | 1010.8 |
| 20260904002231 | 80 | 318 | 2.0 | 0.0 | 0.00 | 0.00 | 0.00 | 54 | 1010.8 |
| 20260904002114 | 80 | 326 | 0.0 | 2.0 | 0.00 | 0.00 | 0.00 | 54 | 1011.5 |
| 20260904002014 | 80 | 318 | 2.0 | 0.0 | 0.00 | 0.00 | 0.00 | 54 | 1010.8 |
| 20260904001946 | 81 | 318 | 2.0 | 0.0 | 0.00 | 0.00 | 0.00 | 53 | 1010.8 |
| 20260904001935 | 80 | 318 | 2.0 | 0.0 | 0.00 | 0.00 | 0.00 | 54 | 1010.8 |
| 20260904001925 | 80 | 318 | 2.0 | 0.0 | 0.00 | 0.00 | 0.00 | 53 | 1010.8 |
| 20260904001744 | 80 | 318 | 2.0 | 0.0 | 0.00 | 0.00 | 0.00 | 53 | 1010.8 |
| 20260904001714 | 80 | 318 | 2.0 | 0.0 | 0.00 | 0.00 | 0.00 | 53 | 1010.8 |
| 20260904001646 | 80 | 318 | 2.0 | 0.0 | 0.00 | 0.00 | 0.00 | 54 | 1010.8 |
| 20260904001615 | 80 | 318 | 2.0 | 0.0 | 0.00 | 0.00 | 0.00 | 54 | 1010.8 |
| 20260904001609 | 82 | 339 | 1.0 | 2.0 | 0.00 | 0.00 | 0.00 | 51 | 1011.7 |
| 20260904001605 | 80 | 318 | 2.0 | 0.0 | 0.00 | 0.00 | 0.00 | 54 | 1010.8 |
| 20260904001555 | 80 | 318 | 2.0 | 0.0 | 0.00 | 0.00 | 0.00 | 53 | 1010.8 |
| 20260904001422 | 83 | 257 | 3.0 | 0.0 | 0.00 | 0.00 | 0.00 | 51 | 1010.6 |
| 20260904001415 | 81 | 318 | 2.0 | 0.0 | 0.00 | 0.00 | 0.00 | 53 | 1010.8 |
| 20260904001344 | 81 | 318 | 2.0 | 0.0 | 0.00 | 0.00 | 0.00 | 53 | 1010.8 |
| 20260904001316 | 81 | 318 | 2.0 | 2.0 | 0.00 | 0.00 | 0.00 | 52 | 1010.8 |
| 20260904001257 | 82 | 257 | 3.0 | 0.0 | 0.00 | 0.00 | 0.00 | 52 | 1010.6 |
| 20260904001215 | 82 | 257 | 3.0 | 0.0 | 0.00 | 0.00 | 0.00 | 52 | 1010.6 |
| 20260904001144 | 82 | 257 | 3.0 | 0.0 | 0.00 | 0.00 | 0.00 | 51 | 1010.6 |
| 20260904001114 | 82 | 257 | 3.0 | 0.0 | 0.00 | 0.00 | 0.00 | 52 | 1010.6 |
| 20260904001108 | 82 | 327 | 0.0 | 2.0 | 0.00 | 0.00 | 0.00 | 51 | 1011.6 |
| 20260904001101 | 83 | 257 | 3.0 | 0.0 | 0.00 | 0.00 | 0.00 | 50 | 1010.6 |
| 20260904001054 | 82 | 257 | 3.0 | 0.0 | 0.00 | 0.00 | 0.00 | 51 | 1010.6 |
| 20260904000914 | 83 | 257 | 3.0 | 0.0 | 0.00 | 0.00 | 0.00 | 51 | 1010.6 |
| 20260904000815 | 83 | 257 | 3.0 | 0.0 | 0.00 | 0.00 | 0.00 | 51 | 1010.6 |
| 20260904000743 | 83 | 257 | 3.0 | 0.0 | 0.00 | 0.00 | 0.00 | 51 | 1010.6 |
| 20260904000713 | 83 | 257 | 3.0 | 0.0 | 0.00 | 0.00 | 0.00 | 51 | 1010.6 |
| 20260904000633 | 85 | 240 | 1.0 | 0.0 | 0.00 | 0.00 | 0.00 | 49 | 1010.9 |
| 20260904000628 | 83 | 257 | 3.0 | 0.0 | 0.00 | 0.00 | 0.00 | 50 | 1010.6 |
| 20260904000603 | 85 | 316 | 2.0 | 3.0 | 0.00 | 0.00 | 0.00 | 49 | 1011.7 |
| 20260904000414 | 83 | 257 | 3.0 | 0.0 | 0.00 | 0.00 | 0.00 | 50 | 1010.6 |
| 20260904000356 | 83 | 257 | 3.0 | 0.0 | 0.00 | 0.00 | 0.00 | 50 | 1010.6 |
| 20260904000325 | 85 | 240 | 1.0 | 0.0 | 0.00 | 0.00 | 0.00 | 48 | 1010.9 |
| 20260904000314 | 84 | 257 | 3.0 | 4.0 | 0.00 | 0.00 | 0.00 | 49 | 1010.6 |
| 20260904000255 | 84 | 240 | 1.0 | 0.0 | 0.00 | 0.00 | 0.00 | 49 | 1010.9 |
| 20260904000113 | 85 | 240 | 1.0 | 0.0 | 0.00 | 0.00 | 0.00 | 48 | 1010.9 |
| 20260904000059 | 85 | 293 | 2.0 | 2.0 | 0.00 | 0.00 | 0.00 | 48 | 1011.7 |
| 20260904000020 | 85 | 240 | 1.0 | 0.0 | 0.00 | 0.00 | 0.00 | 48 | 1010.9 |
| 20260904000007 | 85 | 240 | 1.0 | 0.0 | 0.00 | 0.00 | 0.00 | 48 | 1010.9 |
| 20260903235813 | 85 | 240 | 1.0 | 0.0 | 0.00 | 0.00 | 0.00 | 48 | 1010.9 |
| 20260903235755 | 85 | 240 | 1.0 | 2.0 | 0.00 | 0.00 | 0.00 | 48 | 1010.9 |
| 20260903235714 | 85 | 240 | 1.0 | 0.0 | 0.00 | 0.00 | 0.00 | 48 | 1010.9 |
| 20260903235643 | 85 | 240 | 1.0 | 0.0 | 0.00 | 0.00 | 0.00 | 49 | 1010.9 |
| 20260903235613 | 85 | 240 | 1.0 | 0.0 | 0.00 | 0.00 | 0.00 | 49 | 1010.9 |
| 20260903235558 | 84 | 331 | 1.0 | 3.0 | 0.00 | 0.00 | 0.00 | 49 | 1011.7 |
| 20260903235544 | 85 | 240 | 1.0 | 0.0 | 0.00 | 0.00 | 0.00 | 49 | 1010.9 |
| 20260903235514 | 84 | 240 | 1.0 | 0.0 | 0.00 | 0.00 | 0.00 | 49 | 1010.9 |
| 20260903235444 | 84 | 240 | 1.0 | 0.0 | 0.00 | 0.00 | 0.00 | 48 | 1010.9 |
| 20260903235434 | 84 | 240 | 1.0 | 0.0 | 0.00 | 0.00 | 0.00 | 49 | 1010.9 |
| 20260903235425 | 85 | 240 | 1.0 | 0.0 | 0.00 | 0.00 | 0.00 | 49 | 1010.9 |
| 20260903235243 | 85 | 235 | 2.0 | 0.0 | 0.00 | 0.00 | 0.00 | 48 | 1010.9 |
| 20260903235213 | 85 | 235 | 2.0 | 0.0 | 0.00 | 0.00 | 0.00 | 49 | 1010.9 |
| 20260903235145 | 85 | 235 | 2.0 | 0.0 | 0.00 | 0.00 | 0.00 | 49 | 1010.9 |
| 20260903235114 | 84 | 235 | 2.0 | 0.0 | 0.00 | 0.00 | 0.00 | 49 | 1010.9 |
| 20260903235054 | 85 | 302 | 1.0 | 3.0 | 0.00 | 0.00 | 0.00 | 49 | 1011.8 |
| 20260903235042 | 84 | 235 | 2.0 | 0.0 | 0.00 | 0.00 | 0.00 | 49 | 1010.9 |
| 20260903235031 | 85 | 235 | 2.0 | 0.0 | 0.00 | 0.00 | 0.00 | 48 | 1010.9 |
| 20260903235013 | 85 | 235 | 2.0 | 0.0 | 0.00 | 0.00 | 0.00 | 49 | 1010.9 |
| 20260903234944 | 85 | 235 | 2.0 | 0.0 | 0.00 | 0.00 | 0.00 | 48 | 1010.9 |
| 20260903234913 | 85 | 235 | 2.0 | 0.0 | 0.00 | 0.00 | 0.00 | 49 | 1010.9 |
| 20260903234816 | 85 | 235 | 2.0 | 0.0 | 0.00 | 0.00 | 0.00 | 48 | 1010.9 |
| 20260903234744 | 85 | 235 | 2.0 | 0.0 | 0.00 | 0.00 | 0.00 | 48 | 1010.9 |
| 20260903234715 | 86 | 235 | 2.0 | 0.0 | 0.00 | 0.00 | 0.00 | 47 | 1010.9 |
| 20260903234705 | 86 | 235 | 2.0 | 0.0 | 0.00 | 0.00 | 0.00 | 47 | 1010.9 |
| 20260903234655 | 86 | 235 | 2.0 | 0.0 | 0.00 | 0.00 | 0.00 | 48 | 1010.9 |
| 20260903234549 | 85 | 282 | 1.0 | 3.0 | 0.00 | 0.00 | 0.00 | 49 | 1011.8 |
| 20260903234513 | 85 | 235 | 2.0 | 0.0 | 0.00 | 0.00 | 0.00 | 48 | 1010.9 |
| 20260903234443 | 85 | 235 | 2.0 | 0.0 | 0.00 | 0.00 | 0.00 | 49 | 1010.9 |
| 20260903234414 | 84 | 235 | 2.0 | 0.0 | 0.00 | 0.00 | 0.00 | 49 | 1010.9 |
| 20260903234346 | 84 | 235 | 2.0 | 0.0 | 0.00 | 0.00 | 0.00 | 49 | 1010.9 |
| 20260903234323 | 85 | 225 | 0.0 | 0.0 | 0.00 | 0.00 | 0.00 | 49 | 1010.8 |
| 20260903234316 | 85 | 235 | 2.0 | 4.0 | 0.00 | 0.00 | 0.00 | 49 | 1010.9 |
| 20260903234258 | 85 | 225 | 0.0 | 0.0 | 0.00 | 0.00 | 0.00 | 48 | 1010.8 |
| 20260903234215 | 85 | 225 | 0.0 | 0.0 | 0.00 | 0.00 | 0.00 | 48 | 1010.8 |
| 20260903234143 | 85 | 225 | 0.0 | 0.0 | 0.00 | 0.00 | 0.00 | 48 | 1010.8 |
| 20260903234113 | 85 | 225 | 0.0 | 0.0 | 0.00 | 0.00 | 0.00 | 48 | 1010.8 |
| 20260903234045 | 85 | 295 | 0.0 | 4.0 | 0.00 | 0.00 | 0.00 | 48 | 1011.7 |
| 20260903234018 | 84 | 225 | 0.0 | 0.0 | 0.00 | 0.00 | 0.00 | 49 | 1010.8 |
| 20260903234014 | 85 | 225 | 0.0 | 0.0 | 0.00 | 0.00 | 0.00 | 49 | 1010.8 |
| 20260903234004 | 85 | 225 | 0.0 | 0.0 | 0.00 | 0.00 | 0.00 | 48 | 1010.8 |
| 20260903233954 | 85 | 225 | 0.0 | 0.0 | 0.00 | 0.00 | 0.00 | 49 | 1010.8 |
| 20260903233817 | 85 | 225 | 0.0 | 0.0 | 0.00 | 0.00 | 0.00 | 49 | 1010.8 |
| 20260903233749 | 85 | 225 | 0.0 | 3.0 | 0.00 | 0.00 | 0.00 | 49 | 1010.8 |
| 20260903233745 | 84 | 225 | 0.0 | 0.0 | 0.00 | 0.00 | 0.00 | 50 | 1010.8 |
| 20260903233714 | 84 | 225 | 0.0 | 0.0 | 0.00 | 0.00 | 0.00 | 50 | 1010.8 |
| 20260903233643 | 84 | 225 | 0.0 | 0.0 | 0.00 | 0.00 | 0.00 | 50 | 1010.8 |
| 20260903233634 | 85 | 266 | 2.0 | 0.0 | 0.00 | 0.00 | 0.00 | 49 | 1010.8 |
| 20260903233628 | 84 | 225 | 0.0 | 0.0 | 0.00 | 0.00 | 0.00 | 49 | 1010.8 |
| 20260903233541 | 84 | 247 | 2.0 | 5.0 | 0.00 | 0.00 | 0.00 | 49 | 1011.8 |
| 20260903233448 | 83 | 266 | 2.0 | 0.0 | 0.00 | 0.00 | 0.00 | 51 | 1010.8 |
| 20260903233437 | 84 | 225 | 0.0 | 0.0 | 0.00 | 0.00 | 0.00 | 50 | 1010.8 |
| 20260903233427 | 84 | 225 | 0.0 | 0.0 | 0.00 | 0.00 | 0.00 | 49 | 1010.8 |
| 20260903233254 | 85 | 266 | 2.0 | 0.0 | 0.00 | 0.00 | 0.00 | 49 | 1010.8 |
| 20260903233114 | 85 | 266 | 2.0 | 0.0 | 0.00 | 0.00 | 0.00 | 49 | 1010.8 |
| 20260903233036 | 85 | 257 | 3.0 | 3.0 | 0.00 | 0.00 | 0.00 | 48 | 1011.9 |
| 20260903233013 | 85 | 266 | 2.0 | 0.0 | 0.00 | 0.00 | 0.00 | 49 | 1010.8 |
| 20260903232957 | 85 | 266 | 2.0 | 0.0 | 0.00 | 0.00 | 0.00 | 50 | 1010.8 |
| 20260903232944 | 85 | 266 | 2.0 | 0.0 | 0.00 | 0.00 | 0.00 | 49 | 1010.8 |
| 20260903232934 | 84 | 266 | 2.0 | 0.0 | 0.00 | 0.00 | 0.00 | 50 | 1010.8 |
| 20260903232924 | 84 | 266 | 2.0 | 0.0 | 0.00 | 0.00 | 0.00 | 50 | 1010.8 |
| 20260903232746 | 84 | 266 | 2.0 | 0.0 | 0.00 | 0.00 | 0.00 | 51 | 1010.8 |
| 20260903232713 | 84 | 266 | 2.0 | 0.0 | 0.00 | 0.00 | 0.00 | 50 | 1010.8 |
| 20260903232647 | 83 | 340 | 0.0 | 0.0 | 0.00 | 0.00 | 0.00 | 51 | 1010.9 |
| 20260903232643 | 84 | 266 | 2.0 | 0.0 | 0.00 | 0.00 | 0.00 | 50 | 1010.8 |
| 20260903232633 | 84 | 266 | 2.0 | 0.0 | 0.00 | 0.00 | 0.00 | 49 | 1010.8 |
| 20260903232623 | 84 | 266 | 2.0 | 0.0 | 0.00 | 0.00 | 0.00 | 50 | 1010.8 |
| 20260903232531 | 85 | 281 | 2.0 | 3.0 | 0.00 | 0.00 | 0.00 | 49 | 1011.9 |
| 20260903232444 | 85 | 266 | 2.0 | 0.0 | 0.00 | 0.00 | 0.00 | 49 | 1010.8 |
| 20260903232413 | 84 | 266 | 2.0 | 0.0 | 0.00 | 0.00 | 0.00 | 50 | 1010.8 |
| 20260903232352 | 84 | 340 | 0.0 | 0.0 | 0.00 | 0.00 | 0.00 | 50 | 1010.9 |
| 20260903232343 | 84 | 266 | 2.0 | 0.0 | 0.00 | 0.00 | 0.00 | 50 | 1010.8 |
| 20260903232314 | 84 | 266 | 2.0 | 3.0 | 0.00 | 0.00 | 0.00 | 50 | 1010.8 |
| 20260903232220 | 85 | 340 | 0.0 | 0.0 | 0.00 | 0.00 | 0.00 | 47 | 1010.9 |
| 20260903232216 | 83 | 340 | 0.0 | 0.0 | 0.00 | 0.00 | 0.00 | 51 | 1010.9 |
| 20260903232206 | 83 | 340 | 0.0 | 0.0 | 0.00 | 0.00 | 0.00 | 51 | 1010.9 |
| 20260903232155 | 83 | 340 | 0.0 | 0.0 | 0.00 | 0.00 | 0.00 | 50 | 1010.9 |
| 20260903232032 | 83 | 340 | 0.0 | 0.0 | 0.00 | 0.00 | 0.00 | 50 | 1010.9 |
| 20260903232027 | 84 | 208 | 3.0 | 5.0 | 0.00 | 0.00 | 0.00 | 50 | 1011.9 |
| 20260903231844 | 84 | 340 | 0.0 | 0.0 | 0.00 | 0.00 | 0.00 | 50 | 1010.9 |
| 20260903231813 | 85 | 340 | 0.0 | 0.0 | 0.00 | 0.00 | 0.00 | 50 | 1010.9 |
| 20260903231744 | 85 | 340 | 0.0 | 0.0 | 0.00 | 0.00 | 0.00 | 49 | 1010.9 |
| 20260903231734 | 82 | 126 | 3.0 | 0.0 | 0.00 | 0.00 | 0.00 | 48 | 1010.9 |
| 20260903231730 | 81 | 126 | 3.0 | 0.0 | 0.00 | 0.00 | 0.00 | 49 | 1010.9 |
| 20260903231726 | 85 | 340 | 0.0 | 0.0 | 0.00 | 0.00 | 0.00 | 48 | 1010.9 |
| 20260903231716 | 85 | 340 | 0.0 | 0.0 | 0.00 | 0.00 | 0.00 | 48 | 1010.9 |
| 20260903231706 | 85 | 340 | 0.0 | 0.0 | 0.00 | 0.00 | 0.00 | 47 | 1010.9 |
| 20260903231521 | 84 | 254 | 0.0 | 2.0 | 0.00 | 0.00 | 0.00 | 47 | 1011.9 |
| 20260903231513 | 84 | 340 | 0.0 | 0.0 | 0.00 | 0.00 | 0.00 | 47 | 1010.9 |
| 20260903231448 | 81 | 126 | 3.0 | 0.0 | 0.00 | 0.00 | 0.00 | 49 | 1010.9 |
| 20260903231444 | 84 | 340 | 0.0 | 0.0 | 0.00 | 0.00 | 0.00 | 46 | 1010.9 |
| 20260903231414 | 83 | 340 | 0.0 | 0.0 | 0.00 | 0.00 | 0.00 | 48 | 1010.9 |
| 20260903231401 | 83 | 340 | 0.0 | 0.0 | 0.00 | 0.00 | 0.00 | 47 | 1010.9 |
| 20260903231351 | 83 | 340 | 0.0 | 1.0 | 0.00 | 0.00 | 0.00 | 48 | 1010.9 |
| 20260903231334 | 82 | 126 | 3.0 | 0.0 | 0.00 | 0.00 | 0.00 | 48 | 1010.9 |
| 20260903231104 | 83 | 222 | 1.0 | 0.0 | 0.00 | 0.00 | 0.00 | 47 | 1011.1 |
| 20260903231054 | 81 | 126 | 3.0 | 0.0 | 0.00 | 0.00 | 0.00 | 49 | 1010.9 |
| 20260903231015 | 81 | 218 | 3.0 | 8.0 | 0.00 | 0.00 | 0.00 | 49 | 1011.9 |
| 20260903230913 | 81 | 126 | 3.0 | 0.0 | 0.00 | 0.00 | 0.00 | 49 | 1010.9 |
| 20260903230814 | 81 | 126 | 3.0 | 0.0 | 0.00 | 0.00 | 0.00 | 49 | 1010.9 |
| 20260903230752 | 84 | 222 | 1.0 | 0.0 | 0.00 | 0.00 | 0.00 | 46 | 1011.1 |
| 20260903230713 | 82 | 126 | 3.0 | 0.0 | 0.00 | 0.00 | 0.00 | 48 | 1010.9 |
| 20260903230701 | 83 | 222 | 1.0 | 0.0 | 0.00 | 0.00 | 0.00 | 47 | 1011.1 |
| 20260903230649 | 82 | 126 | 3.0 | 0.0 | 0.00 | 0.00 | 0.00 | 48 | 1010.9 |
| 20260903230641 | 82 | 126 | 3.0 | 0.0 | 0.00 | 0.00 | 0.00 | 48 | 1010.9 |
| 20260903230524 | 83 | 222 | 1.0 | 0.0 | 0.00 | 0.00 | 0.00 | 47 | 1011.1 |
| 20260903230518 | 83 | 222 | 1.0 | 0.0 | 0.00 | 0.00 | 0.00 | 47 | 1011.1 |
| 20260903230514 | 82 | 126 | 3.0 | 0.0 | 0.00 | 0.00 | 0.00 | 48 | 1010.9 |
| 20260903230512 | 83 | 116 | 2.0 | 4.0 | 0.00 | 0.00 | 0.00 | 48 | 1011.9 |
| 20260903230433 | 83 | 126 | 3.0 | 0.0 | 0.00 | 0.00 | 0.00 | 48 | 1010.9 |
| 20260903230425 | 83 | 126 | 3.0 | 0.0 | 0.00 | 0.00 | 0.00 | 48 | 1010.9 |
| 20260903230415 | 83 | 126 | 3.0 | 4.0 | 0.00 | 0.00 | 0.00 | 47 | 1010.9 |
| 20260903230255 | 83 | 222 | 1.0 | 0.0 | 0.00 | 0.00 | 0.00 | 47 | 1011.1 |
| 20260903230241 | 83 | 222 | 1.0 | 0.0 | 0.00 | 0.00 | 0.00 | 47 | 1011.1 |
| 20260903230009 | 82 | 238 | 1.0 | 8.0 | 0.00 | 0.00 | 0.00 | 47 | 1011.9 |
| 20260903225714 | 83 | 222 | 1.0 | 0.0 | 0.00 | 0.00 | 0.00 | 47 | 1011.1 |
| 20260903225628 | 84 | 222 | 1.0 | 0.0 | 0.00 | 0.00 | 0.00 | 46 | 1011.1 |
| 20260903225503 | 84 | 222 | 2.0 | 7.0 | 0.00 | 0.00 | 0.00 | 46 | 1012.0 |
| 20260903225415 | 84 | 222 | 1.0 | 0.0 | 0.00 | 0.00 | 0.00 | 46 | 1011.1 |
| 20260903225343 | 84 | 222 | 1.0 | 0.0 | 0.00 | 0.00 | 0.00 | 46 | 1011.1 |
| 20260903225314 | 84 | 222 | 1.0 | 7.0 | 0.00 | 0.00 | 0.00 | 46 | 1011.1 |
| 20260903225244 | 85 | 211 | 4.0 | 0.0 | 0.00 | 0.00 | 0.00 | 44 | 1011.3 |
| 20260903225214 | 85 | 211 | 4.0 | 0.0 | 0.00 | 0.00 | 0.00 | 44 | 1011.3 |
| 20260903225144 | 85 | 211 | 4.0 | 0.0 | 0.00 | 0.00 | 0.00 | 44 | 1011.3 |
| 20260903225114 | 85 | 211 | 4.0 | 0.0 | 0.00 | 0.00 | 0.00 | 45 | 1011.3 |
| 20260903225044 | 84 | 211 | 4.0 | 0.0 | 0.00 | 0.00 | 0.00 | 46 | 1011.3 |
| 20260903225025 | 83 | 211 | 4.0 | 0.0 | 0.00 | 0.00 | 0.00 | 47 | 1011.3 |
| 20260903225014 | 83 | 211 | 4.0 | 0.0 | 0.00 | 0.00 | 0.00 | 46 | 1011.3 |
| 20260903224959 | 83 | 269 | 0.0 | 4.0 | 0.00 | 0.00 | 0.00 | 47 | 1012.1 |
| 20260903224943 | 83 | 211 | 4.0 | 0.0 | 0.00 | 0.00 | 0.00 | 46 | 1011.3 |
| 20260903224914 | 83 | 211 | 4.0 | 0.0 | 0.00 | 0.00 | 0.00 | 47 | 1011.3 |
| 20260903224844 | 83 | 211 | 4.0 | 0.0 | 0.00 | 0.00 | 0.00 | 47 | 1011.3 |
| 20260903224813 | 82 | 211 | 4.0 | 0.0 | 0.00 | 0.00 | 0.00 | 47 | 1011.3 |
| 20260903224729 | 82 | 66 | 2.0 | 0.0 | 0.00 | 0.00 | 0.00 | 47 | 1011.2 |
| 20260903224714 | 83 | 211 | 4.0 | 0.0 | 0.00 | 0.00 | 0.00 | 47 | 1011.3 |
| 20260903224653 | 83 | 211 | 4.0 | 0.0 | 0.00 | 0.00 | 0.00 | 47 | 1011.3 |
| 20260903224514 | 83 | 211 | 4.0 | 0.0 | 0.00 | 0.00 | 0.00 | 47 | 1011.3 |
| 20260903224455 | 82 | 198 | 3.0 | 6.0 | 0.00 | 0.00 | 0.00 | 47 | 1012.1 |
| 20260903224432 | 82 | 66 | 2.0 | 0.0 | 0.00 | 0.00 | 0.00 | 47 | 1011.2 |
| 20260903224428 | 82 | 211 | 4.0 | 0.0 | 0.00 | 0.00 | 0.00 | 47 | 1011.3 |
| 20260903224420 | 82 | 211 | 4.0 | 0.0 | 0.00 | 0.00 | 0.00 | 47 | 1011.3 |
| 20260903224409 | 82 | 211 | 4.0 | 4.0 | 0.00 | 0.00 | 0.00 | 47 | 1011.3 |
| 20260903224216 | 82 | 66 | 2.0 | 0.0 | 0.00 | 0.00 | 0.00 | 47 | 1011.2 |
| 20260903224114 | 82 | 66 | 2.0 | 0.0 | 0.00 | 0.00 | 0.00 | 47 | 1011.2 |
| 20260903224014 | 82 | 66 | 2.0 | 0.0 | 0.00 | 0.00 | 0.00 | 47 | 1011.2 |
| 20260903224001 | 83 | 66 | 2.0 | 0.0 | 0.00 | 0.00 | 0.00 | 47 | 1011.2 |
| 20260903223953 | 83 | 66 | 2.0 | 0.0 | 0.00 | 0.00 | 0.00 | 47 | 1011.2 |
| 20260903223950 | 83 | 173 | 2.0 | 10.0 | 0.00 | 0.00 | 0.00 | 47 | 1012.2 |
| 20260903223814 | 83 | 66 | 2.0 | 0.0 | 0.00 | 0.00 | 0.00 | 47 | 1011.2 |
| 20260903223743 | 83 | 66 | 2.0 | 0.0 | 0.00 | 0.00 | 0.00 | 47 | 1011.2 |
| 20260903223717 | 83 | 66 | 2.0 | 0.0 | 0.00 | 0.00 | 0.00 | 46 | 1011.2 |
| 20260903223706 | 83 | 195 | 1.0 | 0.0 | 0.00 | 0.00 | 0.00 | 47 | 1011.3 |
| 20260903223656 | 83 | 66 | 2.0 | 0.0 | 0.00 | 0.00 | 0.00 | 46 | 1011.2 |
| 20260903223613 | 83 | 66 | 2.0 | 0.0 | 0.00 | 0.00 | 0.00 | 47 | 1011.2 |
| 20260903223554 | 83 | 66 | 2.0 | 0.0 | 0.00 | 0.00 | 0.00 | 47 | 1011.2 |
| 20260903223450 | 85 | 215 | 2.0 | 4.0 | 0.00 | 0.00 | 0.00 | 44 | 1012.1 |
| 20260903223414 | 83 | 66 | 2.0 | 0.0 | 0.00 | 0.00 | 0.00 | 47 | 1011.2 |
| 20260903223351 | 83 | 195 | 1.0 | 0.0 | 0.00 | 0.00 | 0.00 | 47 | 1011.3 |
| 20260903223344 | 83 | 66 | 2.0 | 0.0 | 0.00 | 0.00 | 0.00 | 47 | 1011.2 |
| 20260903223331 | 83 | 66 | 2.0 | 2.0 | 0.00 | 0.00 | 0.00 | 47 | 1011.2 |
| 20260903223144 | 83 | 195 | 1.0 | 0.0 | 0.00 | 0.00 | 0.00 | 47 | 1011.3 |
| 20260903223119 | 82 | 195 | 1.0 | 0.0 | 0.00 | 0.00 | 0.00 | 47 | 1011.3 |
| 20260903223114 | 83 | 195 | 1.0 | 0.0 | 0.00 | 0.00 | 0.00 | 47 | 1011.3 |
| 20260903223037 | 83 | 195 | 1.0 | 0.0 | 0.00 | 0.00 | 0.00 | 47 | 1011.3 |
| 20260903222949 | 83 | 9 | 2.0 | 3.0 | 0.00 | 0.00 | 0.00 | 46 | 1012.2 |
| 20260903222814 | 83 | 195 | 1.0 | 0.0 | 0.00 | 0.00 | 0.00 | 47 | 1011.3 |
| 20260903222805 | 83 | 195 | 1.0 | 0.0 | 0.00 | 0.00 | 0.00 | 47 | 1011.3 |
| 20260903222755 | 82 | 195 | 1.0 | 0.0 | 0.00 | 0.00 | 0.00 | 47 | 1011.3 |
| 20260903222613 | 82 | 195 | 1.0 | 0.0 | 0.00 | 0.00 | 0.00 | 48 | 1011.3 |
| 20260903222544 | 81 | 195 | 1.0 | 0.0 | 0.00 | 0.00 | 0.00 | 48 | 1011.3 |
| 20260903222513 | 81 | 195 | 1.0 | 0.0 | 0.00 | 0.00 | 0.00 | 48 | 1011.3 |
| 20260903222444 | 81 | 143 | 3.0 | 10.0 | 0.00 | 0.00 | 0.00 | 48 | 1012.2 |
| 20260903222414 | 81 | 195 | 1.0 | 0.0 | 0.00 | 0.00 | 0.00 | 48 | 1011.3 |
| 20260903222344 | 83 | 195 | 1.0 | 0.0 | 0.00 | 0.00 | 0.00 | 47 | 1011.3 |
| 20260903222319 | 83 | 206 | 5.0 | 0.0 | 0.00 | 0.00 | 0.00 | 47 | 1011.5 |
| 20260903222315 | 83 | 195 | 1.0 | 3.0 | 0.00 | 0.00 | 0.00 | 47 | 1011.3 |
| 20260903222214 | 83 | 206 | 5.0 | 0.0 | 0.00 | 0.00 | 0.00 | 47 | 1011.5 |
| 20260903222114 | 83 | 206 | 5.0 | 0.0 | 0.00 | 0.00 | 0.00 | 47 | 1011.5 |
| 20260903222044 | 83 | 206 | 5.0 | 0.0 | 0.00 | 0.00 | 0.00 | 47 | 1011.5 |
| 20260903222013 | 83 | 206 | 5.0 | 0.0 | 0.00 | 0.00 | 0.00 | 47 | 1011.5 |
| 20260903222000 | 82 | 206 | 5.0 | 0.0 | 0.00 | 0.00 | 0.00 | 48 | 1011.5 |
| 20260903221953 | 83 | 206 | 5.0 | 0.0 | 0.00 | 0.00 | 0.00 | 47 | 1011.5 |
| 20260903221943 | 83 | 223 | 4.0 | 4.0 | 0.00 | 0.00 | 0.00 | 46 | 1012.4 |
| 20260903221813 | 83 | 206 | 5.0 | 0.0 | 0.00 | 0.00 | 0.00 | 47 | 1011.5 |
| 20260903221744 | 82 | 206 | 5.0 | 0.0 | 0.00 | 0.00 | 0.00 | 47 | 1011.5 |
| 20260903221713 | 82 | 206 | 5.0 | 0.0 | 0.00 | 0.00 | 0.00 | 47 | 1011.5 |
| 20260903221701 | 82 | 125 | 4.0 | 0.0 | 0.00 | 0.00 | 0.00 | 48 | 1011.6 |
| 20260903221631 | 82 | 206 | 5.0 | 0.0 | 0.00 | 0.00 | 0.00 | 47 | 1011.5 |
| 20260903221623 | 82 | 206 | 5.0 | 0.0 | 0.00 | 0.00 | 0.00 | 47 | 1011.5 |
| 20260903221438 | 82 | 206 | 9.0 | 11.0 | 0.00 | 0.00 | 0.00 | 48 | 1012.4 |
| 20260903221430 | 81 | 125 | 4.0 | 0.0 | 0.00 | 0.00 | 0.00 | 49 | 1011.6 |
| 20260903221414 | 82 | 206 | 5.0 | 0.0 | 0.00 | 0.00 | 0.00 | 48 | 1011.5 |
| 20260903221346 | 82 | 206 | 5.0 | 0.0 | 0.00 | 0.00 | 0.00 | 47 | 1011.5 |
| 20260903221336 | 82 | 206 | 5.0 | 7.0 | 0.00 | 0.00 | 0.00 | 47 | 1011.5 |
| 20260903221325 | 82 | 125 | 4.0 | 0.0 | 0.00 | 0.00 | 0.00 | 47 | 1011.6 |
| 20260903221144 | 82 | 125 | 4.0 | 0.0 | 0.00 | 0.00 | 0.00 | 48 | 1011.6 |
| 20260903221132 | 82 | 125 | 4.0 | 0.0 | 0.00 | 0.00 | 0.00 | 48 | 1011.6 |
| 20260903221127 | 83 | 206 | 1.0 | 0.0 | 0.00 | 0.00 | 0.00 | 46 | 1011.7 |
| 20260903221114 | 82 | 125 | 4.0 | 0.0 | 0.00 | 0.00 | 0.00 | 48 | 1011.6 |
| 20260903221104 | 82 | 125 | 4.0 | 0.0 | 0.00 | 0.00 | 0.00 | 48 | 1011.6 |
| 20260903221054 | 81 | 125 | 4.0 | 0.0 | 0.00 | 0.00 | 0.00 | 49 | 1011.6 |
| 20260903220935 | 81 | 269 | 1.0 | 7.0 | 0.00 | 0.00 | 0.00 | 49 | 1012.5 |
| 20260903220915 | 81 | 125 | 4.0 | 0.0 | 0.00 | 0.00 | 0.00 | 49 | 1011.6 |
| 20260903220820 | 82 | 206 | 1.0 | 0.0 | 0.00 | 0.00 | 0.00 | 47 | 1011.7 |
| 20260903220816 | 81 | 125 | 4.0 | 0.0 | 0.00 | 0.00 | 0.00 | 49 | 1011.6 |
| 20260903220804 | 82 | 125 | 4.0 | 0.0 | 0.00 | 0.00 | 0.00 | 48 | 1011.6 |
| 20260903220751 | 82 | 125 | 4.0 | 0.0 | 0.00 | 0.00 | 0.00 | 48 | 1011.6 |
| 20260903220514 | 82 | 125 | 4.0 | 0.0 | 0.00 | 0.00 | 0.00 | 48 | 1011.6 |
| 20260903220454 | 83 | 206 | 1.0 | 0.0 | 0.00 | 0.00 | 0.00 | 45 | 1011.7 |
| 20260903220435 | 83 | 206 | 1.0 | 0.0 | 0.00 | 0.00 | 0.00 | 46 | 1011.7 |
| 20260903220429 | 82 | 181 | 0.0 | 5.0 | 0.00 | 0.00 | 0.00 | 48 | 1012.5 |
| 20260903220423 | 83 | 206 | 1.0 | 0.0 | 0.00 | 0.00 | 0.00 | 45 | 1011.7 |
| 20260903220418 | 81 | 125 | 4.0 | 0.0 | 0.00 | 0.00 | 0.00 | 48 | 1011.6 |
| 20260903220408 | 81 | 125 | 4.0 | 0.0 | 0.00 | 0.00 | 0.00 | 48 | 1011.6 |
| 20260903220345 | 82 | 125 | 4.0 | 5.0 | 0.00 | 0.00 | 0.00 | 48 | 1011.6 |
| 20260903220326 | 82 | 206 | 1.0 | 0.0 | 0.00 | 0.00 | 0.00 | 47 | 1011.7 |
| 20260903220035 | 83 | 206 | 1.0 | 0.0 | 0.00 | 0.00 | 0.00 | 46 | 1011.7 |
| 20260903215927 | 83 | 242 | 2.0 | 7.0 | 0.00 | 0.00 | 0.00 | 46 | 1012.5 |
| 20260903215904 | 83 | 206 | 1.0 | 0.0 | 0.00 | 0.00 | 0.00 | 45 | 1011.7 |
| 20260903215854 | 83 | 206 | 1.0 | 0.0 | 0.00 | 0.00 | 0.00 | 46 | 1011.7 |
| 20260903215713 | 83 | 206 | 1.0 | 0.0 | 0.00 | 0.00 | 0.00 | 46 | 1011.7 |
| 20260903215621 | 83 | 221 | 4.0 | 0.0 | 0.00 | 0.00 | 0.00 | 47 | 1011.8 |
| 20260903215617 | 83 | 206 | 1.0 | 0.0 | 0.00 | 0.00 | 0.00 | 45 | 1011.7 |
| 20260903215607 | 84 | 206 | 1.0 | 0.0 | 0.00 | 0.00 | 0.00 | 45 | 1011.7 |
| 20260903215557 | 83 | 206 | 1.0 | 0.0 | 0.00 | 0.00 | 0.00 | 45 | 1011.7 |
| 20260903215424 | 84 | 226 | 2.0 | 4.0 | 0.00 | 0.00 | 0.00 | 45 | 1012.4 |
| 20260903215422 | 82 | 221 | 4.0 | 0.0 | 0.00 | 0.00 | 0.00 | 46 | 1011.8 |
| 20260903215413 | 83 | 206 | 1.0 | 0.0 | 0.00 | 0.00 | 0.00 | 45 | 1011.7 |
| 20260903215344 | 83 | 206 | 1.0 | 0.0 | 0.00 | 0.00 | 0.00 | 45 | 1011.7 |
| 20260903215315 | 83 | 206 | 1.0 | 3.0 | 0.00 | 0.00 | 0.00 | 45 | 1011.7 |
| 20260903215251 | 82 | 221 | 4.0 | 0.0 | 0.00 | 0.00 | 0.00 | 47 | 1011.8 |
| 20260903215243 | 83 | 221 | 4.0 | 0.0 | 0.00 | 0.00 | 0.00 | 45 | 1011.8 |
| 20260903215232 | 83 | 221 | 4.0 | 0.0 | 0.00 | 0.00 | 0.00 | 46 | 1011.8 |
| 20260903215224 | 83 | 221 | 4.0 | 0.0 | 0.00 | 0.00 | 0.00 | 46 | 1011.8 |
| 20260903215054 | 82 | 221 | 4.0 | 0.0 | 0.00 | 0.00 | 0.00 | 46 | 1011.8 |
| 20260903214922 | 82 | 207 | 6.0 | 6.0 | 0.00 | 0.00 | 0.00 | 46 | 1012.6 |
| 20260903214914 | 82 | 221 | 4.0 | 0.0 | 0.00 | 0.00 | 0.00 | 46 | 1011.8 |
| 20260903214904 | 82 | 221 | 4.0 | 0.0 | 0.00 | 0.00 | 0.00 | 46 | 1011.8 |
| 20260903214853 | 82 | 221 | 4.0 | 0.0 | 0.00 | 0.00 | 0.00 | 47 | 1011.8 |
| 20260903214719 | 82 | 140 | 2.0 | 0.0 | 0.00 | 0.00 | 0.00 | 47 | 1011.8 |
| 20260903214714 | 82 | 221 | 4.0 | 0.0 | 0.00 | 0.00 | 0.00 | 47 | 1011.8 |
| 20260903214645 | 82 | 221 | 4.0 | 0.0 | 0.00 | 0.00 | 0.00 | 47 | 1011.8 |
| 20260903214613 | 82 | 221 | 4.0 | 0.0 | 0.00 | 0.00 | 0.00 | 47 | 1011.8 |
| 20260903214544 | 82 | 221 | 4.0 | 0.0 | 0.00 | 0.00 | 0.00 | 47 | 1011.8 |
| 20260903214513 | 82 | 221 | 4.0 | 0.0 | 0.00 | 0.00 | 0.00 | 47 | 1011.8 |
| 20260903214425 | 83 | 140 | 2.0 | 0.0 | 0.00 | 0.00 | 0.00 | 45 | 1011.8 |
| 20260903214418 | 82 | 237 | 3.0 | 5.0 | 0.00 | 0.00 | 0.00 | 47 | 1012.6 |
| 20260903214416 | 82 | 221 | 4.0 | 0.0 | 0.00 | 0.00 | 0.00 | 47 | 1011.8 |
| 20260903214406 | 82 | 221 | 4.0 | 0.0 | 0.00 | 0.00 | 0.00 | 47 | 1011.8 |
| 20260903214356 | 82 | 221 | 4.0 | 4.0 | 0.00 | 0.00 | 0.00 | 47 | 1011.8 |
| 20260903214213 | 81 | 140 | 2.0 | 0.0 | 0.00 | 0.00 | 0.00 | 47 | 1011.8 |
| 20260903214143 | 81 | 140 | 2.0 | 0.0 | 0.00 | 0.00 | 0.00 | 47 | 1011.8 |
| 20260903214123 | 83 | 140 | 2.0 | 0.0 | 0.00 | 0.00 | 0.00 | 45 | 1011.8 |
| 20260903214113 | 81 | 140 | 2.0 | 0.0 | 0.00 | 0.00 | 0.00 | 47 | 1011.8 |
| 20260903214053 | 82 | 140 | 2.0 | 0.0 | 0.00 | 0.00 | 0.00 | 47 | 1011.8 |
| 20260903213917 | 82 | 181 | 2.0 | 10.0 | 0.00 | 0.00 | 0.00 | 46 | 1012.6 |
| 20260903213913 | 83 | 140 | 2.0 | 0.0 | 0.00 | 0.00 | 0.00 | 45 | 1011.8 |
| 20260903213821 | 83 | 140 | 2.0 | 0.0 | 0.00 | 0.00 | 0.00 | 46 | 1011.8 |
| 20260903213814 | 83 | 140 | 2.0 | 0.0 | 0.00 | 0.00 | 0.00 | 45 | 1011.8 |
| 20260903213757 | 83 | 140 | 2.0 | 0.0 | 0.00 | 0.00 | 0.00 | 45 | 1011.8 |
| 20260903213613 | 83 | 140 | 2.0 | 0.0 | 0.00 | 0.00 | 0.00 | 45 | 1011.8 |
| 20260903213544 | 83 | 140 | 2.0 | 0.0 | 0.00 | 0.00 | 0.00 | 45 | 1011.8 |
| 20260903213518 | 83 | 205 | 2.0 | 0.0 | 0.00 | 0.00 | 0.00 | 46 | 1012.0 |
| 20260903213514 | 83 | 140 | 2.0 | 0.0 | 0.00 | 0.00 | 0.00 | 45 | 1011.8 |
| 20260903213454 | 83 | 140 | 2.0 | 0.0 | 0.00 | 0.00 | 0.00 | 45 | 1011.8 |
| 20260903213413 | 83 | 183 | 2.0 | 4.0 | 0.00 | 0.00 | 0.00 | 46 | 1012.7 |
| 20260903213318 | 82 | 205 | 2.0 | 0.0 | 0.00 | 0.00 | 0.00 | 48 | 1012.0 |
| 20260903213314 | 83 | 140 | 2.0 | 2.0 | 0.00 | 0.00 | 0.00 | 46 | 1011.8 |
| 20260903213243 | 83 | 205 | 2.0 | 0.0 | 0.00 | 0.00 | 0.00 | 46 | 1012.0 |
| 20260903213213 | 83 | 205 | 2.0 | 0.0 | 0.00 | 0.00 | 0.00 | 46 | 1012.0 |
| 20260903213200 | 82 | 205 | 2.0 | 0.0 | 0.00 | 0.00 | 0.00 | 48 | 1012.0 |
| 20260903213154 | 83 | 205 | 2.0 | 0.0 | 0.00 | 0.00 | 0.00 | 46 | 1012.0 |
| 20260903213018 | 81 | 205 | 2.0 | 0.0 | 0.00 | 0.00 | 0.00 | 48 | 1012.0 |
| 20260903213014 | 83 | 205 | 2.0 | 0.0 | 0.00 | 0.00 | 0.00 | 45 | 1012.0 |
| 20260903212953 | 83 | 205 | 2.0 | 0.0 | 0.00 | 0.00 | 0.00 | 45 | 1012.0 |
| 20260903212943 | 84 | 205 | 2.0 | 0.0 | 0.00 | 0.00 | 0.00 | 45 | 1012.0 |
| 20260903212909 | 84 | 224 | 2.0 | 5.0 | 0.00 | 0.00 | 0.00 | 45 | 1013.0 |
| 20260903212634 | 82 | 92 | 4.0 | 0.0 | 0.00 | 0.00 | 0.00 | 47 | 1012.1 |
| 20260903212630 | 82 | 205 | 2.0 | 0.0 | 0.00 | 0.00 | 0.00 | 48 | 1012.0 |
| 20260903212444 | 81 | 205 | 2.0 | 0.0 | 0.00 | 0.00 | 0.00 | 48 | 1012.0 |
| 20260903212433 | 83 | 92 | 4.0 | 0.0 | 0.00 | 0.00 | 0.00 | 47 | 1012.1 |
| 20260903212413 | 81 | 205 | 2.0 | 0.0 | 0.00 | 0.00 | 0.00 | 48 | 1012.0 |
| 20260903212405 | 81 | 222 | 6.0 | 9.0 | 0.00 | 0.00 | 0.00 | 48 | 1013.0 |
| 20260903212347 | 81 | 205 | 2.0 | 0.0 | 0.00 | 0.00 | 0.00 | 48 | 1012.0 |
| 20260903212337 | 83 | 92 | 4.0 | 0.0 | 0.00 | 0.00 | 0.00 | 47 | 1012.1 |
| 20260903212315 | 81 | 205 | 2.0 | 5.0 | 0.00 | 0.00 | 0.00 | 48 | 1012.0 |
| 20260903212255 | 83 | 92 | 4.0 | 0.0 | 0.00 | 0.00 | 0.00 | 47 | 1012.1 |
| 20260903212251 | 83 | 92 | 4.0 | 0.0 | 0.00 | 0.00 | 0.00 | 47 | 1012.1 |
| 20260903212241 | 82 | 92 | 4.0 | 0.0 | 0.00 | 0.00 | 0.00 | 47 | 1012.1 |
| 20260903212228 | 82 | 92 | 4.0 | 0.0 | 0.00 | 0.00 | 0.00 | 47 | 1012.1 |
| 20260903212108 | 82 | 92 | 4.0 | 0.0 | 0.00 | 0.00 | 0.00 | 48 | 1012.1 |
| 20260903212104 | 82 | 92 | 4.0 | 0.0 | 0.00 | 0.00 | 0.00 | 48 | 1012.1 |
| 20260903211904 | 82 | 211 | 7.0 | 13.0 | 0.00 | 0.00 | 0.00 | 47 | 1012.9 |
| 20260903211813 | 83 | 92 | 4.0 | 0.0 | 0.00 | 0.00 | 0.00 | 47 | 1012.1 |
| 20260903211744 | 83 | 92 | 4.0 | 0.0 | 0.00 | 0.00 | 0.00 | 47 | 1012.1 |
| 20260903211727 | 82 | 223 | 4.0 | 0.0 | 0.00 | 0.00 | 0.00 | 47 | 1012.1 |
| 20260903211713 | 83 | 92 | 4.0 | 0.0 | 0.00 | 0.00 | 0.00 | 47 | 1012.1 |
| 20260903211655 | 81 | 223 | 4.0 | 0.0 | 0.00 | 0.00 | 0.00 | 48 | 1012.1 |
| 20260903211646 | 83 | 92 | 4.0 | 0.0 | 0.00 | 0.00 | 0.00 | 47 | 1012.1 |
| 20260903211629 | 83 | 92 | 4.0 | 0.0 | 0.00 | 0.00 | 0.00 | 47 | 1012.1 |
| 20260903211400 | 83 | 223 | 4.0 | 5.0 | 0.00 | 0.00 | 0.00 | 47 | 1012.6 |
| 20260903211355 | 83 | 92 | 4.0 | 4.0 | 0.00 | 0.00 | 0.00 | 47 | 1012.1 |
| 20260903211343 | 83 | 223 | 4.0 | 0.0 | 0.00 | 0.00 | 0.00 | 47 | 1012.1 |
| 20260903211214 | 81 | 223 | 4.0 | 0.0 | 0.00 | 0.00 | 0.00 | 48 | 1012.1 |
| 20260903211150 | 82 | 291 | 2.0 | 0.0 | 0.00 | 0.00 | 0.00 | 47 | 1012.2 |
| 20260903211120 | 82 | 223 | 4.0 | 0.0 | 0.00 | 0.00 | 0.00 | 47 | 1012.1 |
| 20260903211114 | 81 | 223 | 4.0 | 0.0 | 0.00 | 0.00 | 0.00 | 48 | 1012.1 |
| 20260903211054 | 81 | 223 | 4.0 | 0.0 | 0.00 | 0.00 | 0.00 | 48 | 1012.1 |
| 20260903210930 | 83 | 223 | 4.0 | 5.0 | 0.00 | 0.00 | 0.00 | 47 | 1012.1 |
| 20260903210918 | 81 | 223 | 4.0 | 0.0 | 0.00 | 0.00 | 0.00 | 48 | 1012.1 |
| 20260903210904 | 81 | 223 | 4.0 | 0.0 | 0.00 | 0.00 | 0.00 | 48 | 1012.1 |
| 20260903210856 | 81 | 223 | 4.0 | 0.0 | 0.00 | 0.00 | 0.00 | 48 | 1012.1 |
| 20260903210623 | 82 | 223 | 4.0 | 0.0 | 0.00 | 0.00 | 0.00 | 47 | 1012.1 |
| 20260903210613 | 82 | 223 | 4.0 | 0.0 | 0.00 | 0.00 | 0.00 | 48 | 1012.1 |
| 20260903210456 | 82 | 223 | 4.0 | 0.0 | 0.00 | 0.00 | 0.00 | 48 | 1012.1 |
| 20260903210446 | 83 | 223 | 4.0 | 0.0 | 0.00 | 0.00 | 0.00 | 47 | 1012.1 |
| 20260903210425 | 83 | 223 | 4.0 | 0.0 | 0.00 | 0.00 | 0.00 | 47 | 1012.1 |
| 20260903210350 | 83 | 240 | 0.0 | 4.0 | 0.00 | 0.00 | 0.00 | 47 | 1013.1 |
| 20260903210245 | 83 | 291 | 2.0 | 0.0 | 0.00 | 0.00 | 0.00 | 47 | 1012.2 |
| 20260903210213 | 83 | 291 | 2.0 | 0.0 | 0.00 | 0.00 | 0.00 | 47 | 1012.2 |
| 20260903210150 | 81 | 291 | 2.0 | 0.0 | 0.00 | 0.00 | 0.00 | 49 | 1012.2 |
| 20260903210144 | 83 | 291 | 2.0 | 0.0 | 0.00 | 0.00 | 0.00 | 47 | 1012.2 |
| 20260903210135 | 81 | 291 | 2.0 | 0.0 | 0.00 | 0.00 | 0.00 | 49 | 1012.2 |
| 20260903210130 | 83 | 291 | 2.0 | 0.0 | 0.00 | 0.00 | 0.00 | 46 | 1012.2 |
| 20260903205914 | 81 | 291 | 2.0 | 0.0 | 0.00 | 0.00 | 0.00 | 49 | 1012.2 |
| 20260903205856 | 80 | 291 | 2.0 | 0.0 | 0.00 | 0.00 | 0.00 | 50 | 1012.2 |
| 20260903205850 | 82 | 250 | 2.0 | 2.0 | 0.00 | 0.00 | 0.00 | 48 | 1012.9 |
| 20260903205833 | 81 | 291 | 2.0 | 0.0 | 0.00 | 0.00 | 0.00 | 49 | 1012.2 |
| 20260903205821 | 81 | 291 | 2.0 | 0.0 | 0.00 | 0.00 | 0.00 | 49 | 1012.2 |
| 20260903205534 | 80 | 234 | 1.0 | 0.0 | 0.00 | 0.00 | 0.00 | 50 | 1012.2 |
| 20260903205529 | 80 | 291 | 2.0 | 0.0 | 0.00 | 0.00 | 0.00 | 50 | 1012.2 |
| 20260903205350 | 80 | 239 | 2.0 | 6.0 | 0.00 | 0.00 | 0.00 | 50 | 1013.1 |
| 20260903205343 | 80 | 291 | 2.0 | 0.0 | 0.00 | 0.00 | 0.00 | 50 | 1012.2 |
| 20260903205315 | 80 | 291 | 2.0 | 3.0 | 0.00 | 0.00 | 0.00 | 50 | 1012.2 |
| 20260903205221 | 80 | 234 | 1.0 | 0.0 | 0.00 | 0.00 | 0.00 | 51 | 1012.2 |
| 20260903205214 | 80 | 234 | 1.0 | 0.0 | 0.00 | 0.00 | 0.00 | 50 | 1012.2 |
| 20260903205129 | 80 | 234 | 1.0 | 0.0 | 0.00 | 0.00 | 0.00 | 50 | 1012.2 |
| 20260903204943 | 80 | 234 | 1.0 | 0.0 | 0.00 | 0.00 | 0.00 | 51 | 1012.2 |
| 20260903204913 | 80 | 234 | 1.0 | 0.0 | 0.00 | 0.00 | 0.00 | 51 | 1012.2 |
| 20260903204854 | 80 | 234 | 1.0 | 0.0 | 0.00 | 0.00 | 0.00 | 51 | 1012.2 |
| 20260903204845 | 80 | 42 | 2.0 | 2.0 | 0.00 | 0.00 | 0.00 | 51 | 1013.0 |
| 20260903204713 | 80 | 234 | 1.0 | 0.0 | 0.00 | 0.00 | 0.00 | 51 | 1012.2 |
| 20260903204643 | 81 | 234 | 1.0 | 0.0 | 0.00 | 0.00 | 0.00 | 50 | 1012.2 |
| 20260903204633 | 82 | 218 | 0.0 | 0.0 | 0.00 | 0.00 | 0.00 | 48 | 1012.1 |
| 20260903204613 | 81 | 234 | 1.0 | 0.0 | 0.00 | 0.00 | 0.00 | 50 | 1012.2 |
| 20260903204515 | 81 | 234 | 1.0 | 0.0 | 0.00 | 0.00 | 0.00 | 50 | 1012.2 |
| 20260903204456 | 81 | 234 | 1.0 | 0.0 | 0.00 | 0.00 | 0.00 | 50 | 1012.2 |
| 20260903204414 | 81 | 234 | 1.0 | 0.0 | 0.00 | 0.00 | 0.00 | 50 | 1012.2 |
| 20260903204343 | 81 | 234 | 1.0 | 0.0 | 0.00 | 0.00 | 0.00 | 48 | 1012.2 |
| 20260903204341 | 81 | 144 | 2.0 | 9.0 | 0.00 | 0.00 | 0.00 | 49 | 1013.1 |
| 20260903204316 | 82 | 234 | 1.0 | 2.0 | 0.00 | 0.00 | 0.00 | 48 | 1012.2 |
| 20260903204254 | 82 | 218 | 0.0 | 0.0 | 0.00 | 0.00 | 0.00 | 48 | 1012.1 |
| 20260903204114 | 82 | 218 | 0.0 | 0.0 | 0.00 | 0.00 | 0.00 | 48 | 1012.1 |
| 20260903204049 | 82 | 218 | 0.0 | 0.0 | 0.00 | 0.00 | 0.00 | 48 | 1012.1 |
| 20260903204013 | 82 | 218 | 0.0 | 0.0 | 0.00 | 0.00 | 0.00 | 48 | 1012.1 |
| 20260903203943 | 82 | 218 | 0.0 | 0.0 | 0.00 | 0.00 | 0.00 | 48 | 1012.1 |
| 20260903203913 | 82 | 218 | 0.0 | 0.0 | 0.00 | 0.00 | 0.00 | 48 | 1012.1 |
| 20260903203836 | 81 | 235 | 1.0 | 3.0 | 0.00 | 0.00 | 0.00 | 50 | 1012.9 |
| 20260903203826 | 80 | 218 | 0.0 | 0.0 | 0.00 | 0.00 | 0.00 | 49 | 1012.1 |
| 20260903203814 | 81 | 218 | 0.0 | 0.0 | 0.00 | 0.00 | 0.00 | 49 | 1012.1 |
| 20260903203746 | 81 | 218 | 0.0 | 0.0 | 0.00 | 0.00 | 0.00 | 49 | 1012.1 |
| 20260903203714 | 81 | 218 | 0.0 | 0.0 | 0.00 | 0.00 | 0.00 | 49 | 1012.1 |
| 20260903203644 | 81 | 218 | 0.0 | 0.0 | 0.00 | 0.00 | 0.00 | 49 | 1012.1 |
| 20260903203613 | 81 | 218 | 0.0 | 0.0 | 0.00 | 0.00 | 0.00 | 49 | 1012.1 |
| 20260903203551 | 80 | 226 | 3.0 | 0.0 | 0.00 | 0.00 | 0.00 | 49 | 1012.5 |
| 20260903203544 | 81 | 218 | 0.0 | 0.0 | 0.00 | 0.00 | 0.00 | 49 | 1012.1 |
| 20260903203513 | 81 | 218 | 0.0 | 0.0 | 0.00 | 0.00 | 0.00 | 49 | 1012.1 |
| 20260903203455 | 81 | 218 | 0.0 | 0.0 | 0.00 | 0.00 | 0.00 | 49 | 1012.1 |
| 20260903203332 | 81 | 343 | 2.0 | 2.0 | 0.00 | 0.00 | 0.00 | 48 | 1013.1 |
| 20260903203314 | 80 | 218 | 0.0 | 0.0 | 0.00 | 0.00 | 0.00 | 49 | 1012.1 |
| 20260903203247 | 80 | 226 | 3.0 | 0.0 | 0.00 | 0.00 | 0.00 | 50 | 1012.5 |
| 20260903203227 | 80 | 226 | 3.0 | 0.0 | 0.00 | 0.00 | 0.00 | 49 | 1012.5 |
| 20260903203014 | 80 | 226 | 3.0 | 0.0 | 0.00 | 0.00 | 0.00 | 49 | 1012.5 |
| 20260903202944 | 80 | 226 | 3.0 | 0.0 | 0.00 | 0.00 | 0.00 | 49 | 1012.5 |
| 20260903202918 | 80 | 201 | 6.0 | 0.0 | 0.00 | 0.00 | 0.00 | 50 | 1012.5 |
| 20260903202914 | 80 | 226 | 3.0 | 0.0 | 0.00 | 0.00 | 0.00 | 50 | 1012.5 |
| 20260903202904 | 80 | 226 | 3.0 | 0.0 | 0.00 | 0.00 | 0.00 | 49 | 1012.5 |
| 20260903202854 | 80 | 226 | 3.0 | 0.0 | 0.00 | 0.00 | 0.00 | 50 | 1012.5 |
| 20260903202831 | 81 | 153 | 0.0 | 2.0 | 0.00 | 0.00 | 0.00 | 48 | 1013.2 |
| 20260903202718 | 80 | 201 | 6.0 | 0.0 | 0.00 | 0.00 | 0.00 | 50 | 1012.5 |
| 20260903202714 | 80 | 226 | 3.0 | 0.0 | 0.00 | 0.00 | 0.00 | 50 | 1012.5 |
| 20260903202643 | 80 | 226 | 3.0 | 0.0 | 0.00 | 0.00 | 0.00 | 50 | 1012.5 |
| 20260903202619 | 80 | 201 | 6.0 | 0.0 | 0.00 | 0.00 | 0.00 | 50 | 1012.5 |
| 20260903202613 | 80 | 226 | 3.0 | 0.0 | 0.00 | 0.00 | 0.00 | 50 | 1012.5 |
| 20260903202600 | 80 | 201 | 6.0 | 0.0 | 0.00 | 0.00 | 0.00 | 50 | 1012.5 |
| 20260903202545 | 80 | 226 | 3.0 | 0.0 | 0.00 | 0.00 | 0.00 | 50 | 1012.5 |
| 20260903202532 | 80 | 226 | 3.0 | 0.0 | 0.00 | 0.00 | 0.00 | 50 | 1012.5 |
| 20260903202522 | 80 | 226 | 3.0 | 0.0 | 0.00 | 0.00 | 0.00 | 50 | 1012.5 |
| 20260903202500 | 80 | 226 | 3.0 | 4.0 | 0.00 | 0.00 | 0.00 | 50 | 1012.5 |
| 20260903202328 | 80 | 147 | 0.0 | 2.0 | 0.00 | 0.00 | 0.00 | 49 | 1013.3 |
| 20260903201913 | 80 | 201 | 6.0 | 0.0 | 0.00 | 0.00 | 0.00 | 49 | 1012.5 |
| 20260903201844 | 80 | 201 | 6.0 | 0.0 | 0.00 | 0.00 | 0.00 | 49 | 1012.5 |
| 20260903201826 | 79 | 190 | 2.0 | 9.0 | 0.00 | 0.00 | 0.00 | 51 | 1013.1 |
| 20260903201821 | 80 | 201 | 6.0 | 0.0 | 0.00 | 0.00 | 0.00 | 49 | 1012.5 |
| 20260903201813 | 80 | 201 | 6.0 | 0.0 | 0.00 | 0.00 | 0.00 | 49 | 1012.5 |
| 20260903201714 | 80 | 201 | 6.0 | 0.0 | 0.00 | 0.00 | 0.00 | 49 | 1012.5 |
| 20260903201645 | 80 | 201 | 6.0 | 0.0 | 0.00 | 0.00 | 0.00 | 49 | 1012.5 |
| 20260903201614 | 80 | 201 | 6.0 | 0.0 | 0.00 | 0.00 | 0.00 | 49 | 1012.5 |
| 20260903201544 | 80 | 201 | 6.0 | 0.0 | 0.00 | 0.00 | 0.00 | 49 | 1012.5 |
| 20260903201514 | 80 | 201 | 6.0 | 0.0 | 0.00 | 0.00 | 0.00 | 49 | 1012.5 |
| 20260903201454 | 80 | 201 | 6.0 | 0.0 | 0.00 | 0.00 | 0.00 | 49 | 1012.5 |
| 20260903201325 | 80 | 201 | 6.0 | 11.0 | 0.00 | 0.00 | 0.00 | 49 | 1012.5 |
| 20260903201322 | 79 | 202 | 9.0 | 11.0 | 0.00 | 0.00 | 0.00 | 49 | 1013.3 |
| 20260903201117 | 0 | 0.0 | 0.0 | 0.00 | 0.00 | 0.00 | 1012.3 | ||
| 20260903200909 | 0 | 0.0 | 0.0 | 0.00 | 0.00 | 0.00 | 1012.4 | ||
| 20260903200820 | 79 | 168 | 4.0 | 4.0 | 0.00 | 0.00 | 0.00 | 49 | 1013.4 |
| 20260903200627 | 0 | 0.0 | 0.0 | 0.00 | 0.00 | 0.00 | 1012.3 | ||
| 20260903200420 | 0 | 0.0 | 0.0 | 0.00 | 0.00 | 0.00 | 1012.5 | ||
| 20260903200316 | 79 | 19 | 4.0 | 4.0 | 0.00 | 0.00 | 0.00 | 49 | 1013.6 |
| 20260903200212 | 0 | 0.0 | 0.0 | 0.00 | 0.00 | 0.00 | 1012.5 | ||
| 20260903200148 | 78 | 0.0 | 0.0 | 0.00 | 0.00 | 0.00 | 50 | 1012.6 | |
| 20260903195952 | 0 | 0.0 | 0.0 | 0.00 | 0.00 | 0.00 | 1012.6 | ||
| 20260903195811 | 79 | 110 | 2.0 | 5.0 | 0.00 | 0.00 | 0.00 | 49 | 1013.6 |
| 20260903195651 | 78 | 226 | 3.0 | 0.0 | 0.00 | 0.00 | 0.00 | 50 | 1012.9 |
| 20260903195515 | 78 | 226 | 3.0 | 0.0 | 0.00 | 0.00 | 0.00 | 50 | 1012.8 |
| 20260903195429 | 78 | 226 | 3.0 | 0.0 | 0.00 | 0.00 | 0.00 | 50 | 1012.7 |
| 20260903195331 | 78 | 226 | 3.0 | 0.0 | 0.00 | 0.00 | 0.00 | 50 | 1012.6 |
| 20260903195314 | 78 | 226 | 3.0 | 0.0 | 0.00 | 0.00 | 0.00 | 50 | 1012.8 |
| 20260903195307 | 78 | 46 | 1.0 | 7.0 | 0.00 | 0.00 | 0.00 | 49 | 1013.6 |
| 20260903195148 | 78 | 226 | 3.0 | 0.0 | 0.00 | 0.00 | 0.00 | 50 | 1012.7 |
| 20260903195000 | 78 | 226 | 3.0 | 0.0 | 0.00 | 0.00 | 0.00 | 50 | 1012.8 |
| 20260903194930 | 78 | 226 | 3.0 | 0.0 | 0.00 | 0.00 | 0.00 | 50 | 1012.8 |
| 20260903194831 | 78 | 226 | 3.0 | 0.0 | 0.00 | 0.00 | 0.00 | 50 | 1012.9 |
| 20260903194810 | 78 | 226 | 3.0 | 0.0 | 0.00 | 0.00 | 0.00 | 50 | 1012.9 |
| 20260903194802 | 78 | 118 | 2.0 | 5.0 | 0.00 | 0.00 | 0.00 | 48 | 1013.9 |
| 20260903194630 | 78 | 226 | 3.0 | 0.0 | 0.00 | 0.00 | 0.00 | 50 | 1012.9 |
| 20260903194600 | 78 | 226 | 3.0 | 0.0 | 0.00 | 0.00 | 0.00 | 50 | 1012.9 |
| 20260903194529 | 78 | 226 | 3.0 | 0.0 | 0.00 | 0.00 | 0.00 | 50 | 1012.9 |
| 20260903194501 | 78 | 226 | 3.0 | 3.0 | 0.00 | 0.00 | 0.00 | 50 | 1012.9 |
| 20260903194443 | 78 | 75 | 1.0 | 0.0 | 0.00 | 0.00 | 0.00 | 50 | 1013.1 |
| 20260903194429 | 78 | 75 | 1.0 | 0.0 | 0.00 | 0.00 | 0.00 | 50 | 1013.1 |
| 20260903194330 | 78 | 75 | 1.0 | 0.0 | 0.00 | 0.00 | 0.00 | 50 | 1013.1 |
| 20260903194258 | 78 | 278 | 0.0 | 7.0 | 0.00 | 0.00 | 0.00 | 48 | 1013.8 |
| 20260903194230 | 78 | 75 | 1.0 | 0.0 | 0.00 | 0.00 | 0.00 | 50 | 1013.1 |
| 20260903194200 | 78 | 75 | 1.0 | 0.0 | 0.00 | 0.00 | 0.00 | 50 | 1013.1 |
| 20260903194129 | 78 | 75 | 1.0 | 0.0 | 0.00 | 0.00 | 0.00 | 50 | 1013.1 |
| 20260903194114 | 78 | 75 | 1.0 | 0.0 | 0.00 | 0.00 | 0.00 | 50 | 1013.1 |
| 20260903193930 | 78 | 75 | 1.0 | 0.0 | 0.00 | 0.00 | 0.00 | 50 | 1013.1 |
| 20260903193901 | 77 | 75 | 1.0 | 0.0 | 0.00 | 0.00 | 0.00 | 51 | 1013.1 |
| 20260903193831 | 77 | 75 | 1.0 | 0.0 | 0.00 | 0.00 | 0.00 | 51 | 1013.1 |
| 20260903193754 | 77 | 209 | 3.0 | 6.0 | 0.00 | 0.00 | 0.00 | 50 | 1013.9 |
| 20260903193729 | 77 | 75 | 1.0 | 0.0 | 0.00 | 0.00 | 0.00 | 51 | 1013.1 |
| 20260903193629 | 77 | 75 | 1.0 | 0.0 | 0.00 | 0.00 | 0.00 | 51 | 1013.1 |
| 20260903193529 | 77 | 75 | 1.0 | 0.0 | 0.00 | 0.00 | 0.00 | 51 | 1013.1 |
| 20260903193500 | 77 | 75 | 1.0 | 1.0 | 0.00 | 0.00 | 0.00 | 51 | 1013.1 |
| 20260903193441 | 77 | 0.0 | 0.0 | 0.00 | 0.00 | 0.00 | 51 | 1013.1 | |
| 20260903193303 | 78 | 162 | 2.0 | 0.0 | 0.00 | 0.00 | 0.00 | 51 | 1013.0 |
| 20260903193249 | 78 | 130 | 2.0 | 3.0 | 0.00 | 0.00 | 0.00 | 50 | 1014.1 |
| 20260903193223 | 78 | 162 | 2.0 | 0.0 | 0.00 | 0.00 | 0.00 | 51 | 1013.1 |
| 20260903193124 | 78 | 162 | 2.0 | 0.0 | 0.00 | 0.00 | 0.00 | 51 | 1012.9 |
| 20260903193026 | 78 | 162 | 2.0 | 0.0 | 0.00 | 0.00 | 0.00 | 51 | 1013.0 |
| 20260903192944 | 78 | 162 | 2.0 | 0.0 | 0.00 | 0.00 | 0.00 | 51 | 1013.1 |
| 20260903192940 | 78 | 162 | 2.0 | 0.0 | 0.00 | 0.00 | 0.00 | 51 | 1013.0 |
| 20260903192753 | 78 | 162 | 2.0 | 0.0 | 0.00 | 0.00 | 0.00 | 51 | 1013.1 |
| 20260903192745 | 78 | 157 | 0.0 | 4.0 | 0.00 | 0.00 | 0.00 | 47 | 1014.0 |
| 20260903192723 | 78 | 162 | 2.0 | 0.0 | 0.00 | 0.00 | 0.00 | 51 | 1013.1 |
| 20260903192624 | 78 | 162 | 2.0 | 0.0 | 0.00 | 0.00 | 0.00 | 51 | 1013.1 |
| 20260903192552 | 78 | 162 | 2.0 | 0.0 | 0.00 | 0.00 | 0.00 | 51 | 1013.1 |
| 20260903192522 | 78 | 162 | 2.0 | 0.0 | 0.00 | 0.00 | 0.00 | 51 | 1013.1 |
| 20260903192511 | 78 | 164 | 0.0 | 0.0 | 0.00 | 0.00 | 0.00 | 51 | 1013.2 |
| 20260903192504 | 78 | 162 | 2.0 | 0.0 | 0.00 | 0.00 | 0.00 | 51 | 1013.1 |
| 20260903192322 | 78 | 162 | 2.0 | 0.0 | 0.00 | 0.00 | 0.00 | 51 | 1013.1 |
| 20260903192254 | 78 | 162 | 2.0 | 3.0 | 0.00 | 0.00 | 0.00 | 51 | 1013.1 |
| 20260903192240 | 78 | 117 | 3.0 | 4.0 | 0.00 | 0.00 | 0.00 | 50 | 1014.0 |
| 20260903192223 | 78 | 164 | 0.0 | 0.0 | 0.00 | 0.00 | 0.00 | 51 | 1013.2 |
| 20260903192140 | 78 | 164 | 0.0 | 0.0 | 0.00 | 0.00 | 0.00 | 51 | 1013.2 |
| 20260903192122 | 78 | 164 | 0.0 | 0.0 | 0.00 | 0.00 | 0.00 | 51 | 1013.2 |
| 20260903192112 | 78 | 164 | 0.0 | 0.0 | 0.00 | 0.00 | 0.00 | 50 | 1013.2 |
| 20260903192106 | 78 | 164 | 0.0 | 0.0 | 0.00 | 0.00 | 0.00 | 51 | 1013.2 |
| 20260903191923 | 78 | 164 | 0.0 | 0.0 | 0.00 | 0.00 | 0.00 | 51 | 1013.2 |
| 20260903191831 | 78 | 164 | 0.0 | 0.0 | 0.00 | 0.00 | 0.00 | 51 | 1013.2 |
| 20260903191817 | 78 | 164 | 0.0 | 0.0 | 0.00 | 0.00 | 0.00 | 51 | 1013.2 |
| 20260903191737 | 78 | 127 | 0.0 | 3.0 | 0.00 | 0.00 | 0.00 | 50 | 1014.1 |
| 20260903191523 | 78 | 164 | 0.0 | 0.0 | 0.00 | 0.00 | 0.00 | 50 | 1013.2 |
| 20260903191453 | 78 | 164 | 0.0 | 0.0 | 0.00 | 0.00 | 0.00 | 49 | 1013.2 |
| 20260903191423 | 79 | 164 | 0.0 | 0.0 | 0.00 | 0.00 | 0.00 | 49 | 1013.2 |
| 20260903191323 | 77 | 164 | 0.0 | 0.0 | 0.00 | 0.00 | 0.00 | 52 | 1013.2 |
| 20260903191253 | 77 | 164 | 0.0 | 2.0 | 0.00 | 0.00 | 0.00 | 52 | 1013.2 |
| 20260903191232 | 78 | 199 | 2.0 | 3.0 | 0.00 | 0.00 | 0.00 | 51 | 1014.2 |
| 20260903191222 | 77 | 172 | 2.0 | 0.0 | 0.00 | 0.00 | 0.00 | 52 | 1013.3 |
| 20260903191124 | 77 | 172 | 2.0 | 0.0 | 0.00 | 0.00 | 0.00 | 52 | 1013.3 |
| 20260903191024 | 77 | 172 | 2.0 | 0.0 | 0.00 | 0.00 | 0.00 | 52 | 1013.3 |
| 20260903190922 | 77 | 172 | 2.0 | 0.0 | 0.00 | 0.00 | 0.00 | 53 | 1013.3 |
| 20260903190822 | 77 | 172 | 2.0 | 0.0 | 0.00 | 0.00 | 0.00 | 53 | 1013.3 |
| 20260903190726 | 76 | 197 | 0.0 | 5.0 | 0.00 | 0.00 | 0.00 | 53 | 1014.2 |
| 20260903190723 | 77 | 172 | 2.0 | 0.0 | 0.00 | 0.00 | 0.00 | 53 | 1013.3 |
| 20260903190653 | 76 | 172 | 2.0 | 0.0 | 0.00 | 0.00 | 0.00 | 53 | 1013.3 |
| 20260903190622 | 76 | 172 | 2.0 | 0.0 | 0.00 | 0.00 | 0.00 | 53 | 1013.3 |
| 20260903190553 | 76 | 172 | 2.0 | 0.0 | 0.00 | 0.00 | 0.00 | 53 | 1013.3 |
| 20260903190523 | 76 | 172 | 2.0 | 0.0 | 0.00 | 0.00 | 0.00 | 53 | 1013.3 |
| 20260903190434 | 76 | 172 | 1.0 | 0.0 | 0.00 | 0.00 | 0.00 | 54 | 1013.5 |
| 20260903190423 | 77 | 172 | 2.0 | 0.0 | 0.00 | 0.00 | 0.00 | 52 | 1013.3 |
| 20260903190354 | 76 | 172 | 2.0 | 0.0 | 0.00 | 0.00 | 0.00 | 56 | 1013.3 |
| 20260903190339 | 76 | 172 | 1.0 | 0.0 | 0.00 | 0.00 | 0.00 | 54 | 1013.5 |
| 20260903190327 | 76 | 172 | 2.0 | 0.0 | 0.00 | 0.00 | 0.00 | 55 | 1013.3 |
| 20260903190254 | 76 | 172 | 2.0 | 2.0 | 0.00 | 0.00 | 0.00 | 55 | 1013.3 |
| 20260903190226 | 76 | 125 | 2.0 | 4.0 | 0.00 | 0.00 | 0.00 | 55 | 1014.4 |
| 20260903190222 | 76 | 172 | 1.0 | 0.0 | 0.00 | 0.00 | 0.00 | 55 | 1013.5 |
| 20260903190201 | 76 | 172 | 1.0 | 0.0 | 0.00 | 0.00 | 0.00 | 52 | 1013.5 |
| 20260903190152 | 76 | 172 | 1.0 | 0.0 | 0.00 | 0.00 | 0.00 | 55 | 1013.5 |
| 20260903190130 | 76 | 172 | 1.0 | 0.0 | 0.00 | 0.00 | 0.00 | 55 | 1013.5 |
| 20260903190120 | 76 | 172 | 1.0 | 0.0 | 0.00 | 0.00 | 0.00 | 54 | 1013.5 |
| 20260903185823 | 76 | 172 | 1.0 | 0.0 | 0.00 | 0.00 | 0.00 | 54 | 1013.5 |
| 20260903185723 | 76 | 172 | 1.0 | 0.0 | 0.00 | 0.00 | 0.00 | 53 | 1013.5 |
| 20260903185721 | 76 | 352 | 0.0 | 6.0 | 0.00 | 0.00 | 0.00 | 53 | 1014.7 |
| 20260903185652 | 76 | 172 | 1.0 | 0.0 | 0.00 | 0.00 | 0.00 | 53 | 1013.5 |
| 20260903185622 | 76 | 172 | 1.0 | 0.0 | 0.00 | 0.00 | 0.00 | 52 | 1013.5 |
| 20260903185541 | 76 | 205 | 2.0 | 0.0 | 0.00 | 0.00 | 0.00 | 50 | 1013.7 |
| 20260903185537 | 76 | 172 | 1.0 | 0.0 | 0.00 | 0.00 | 0.00 | 52 | 1013.5 |
| 20260903185352 | 76 | 172 | 1.0 | 0.0 | 0.00 | 0.00 | 0.00 | 51 | 1013.5 |
| 20260903185323 | 76 | 172 | 1.0 | 0.0 | 0.00 | 0.00 | 0.00 | 52 | 1013.5 |
| 20260903185259 | 76 | 205 | 2.0 | 0.0 | 0.00 | 0.00 | 0.00 | 49 | 1013.7 |
| 20260903185255 | 76 | 172 | 1.0 | 2.0 | 0.00 | 0.00 | 0.00 | 52 | 1013.5 |
| 20260903185223 | 76 | 205 | 2.0 | 0.0 | 0.00 | 0.00 | 0.00 | 52 | 1013.7 |
| 20260903185216 | 76 | 139 | 1.0 | 6.0 | 0.00 | 0.00 | 0.00 | 52 | 1014.5 |
| 20260903185153 | 76 | 205 | 2.0 | 0.0 | 0.00 | 0.00 | 0.00 | 51 | 1013.7 |
| 20260903185136 | 76 | 205 | 2.0 | 0.0 | 0.00 | 0.00 | 0.00 | 49 | 1013.7 |
| 20260903185123 | 76 | 205 | 2.0 | 0.0 | 0.00 | 0.00 | 0.00 | 51 | 1013.7 |
| 20260903185113 | 76 | 205 | 2.0 | 0.0 | 0.00 | 0.00 | 0.00 | 51 | 1013.7 |
| 20260903185103 | 76 | 205 | 2.0 | 0.0 | 0.00 | 0.00 | 0.00 | 50 | 1013.7 |
| 20260903184938 | 76 | 205 | 2.0 | 0.0 | 0.00 | 0.00 | 0.00 | 50 | 1013.7 |
| 20260903184802 | 76 | 205 | 2.0 | 0.0 | 0.00 | 0.00 | 0.00 | 49 | 1013.7 |
| 20260903184712 | 76 | 217 | 3.0 | 3.0 | 0.00 | 0.00 | 0.00 | 49 | 1014.6 |
| 20260903184622 | 75 | 205 | 2.0 | 0.0 | 0.00 | 0.00 | 0.00 | 49 | 1013.7 |
| 20260903184554 | 75 | 205 | 2.0 | 0.0 | 0.00 | 0.00 | 0.00 | 49 | 1013.7 |
| 20260903184523 | 75 | 205 | 2.0 | 0.0 | 0.00 | 0.00 | 0.00 | 50 | 1013.7 |
| 20260903184455 | 75 | 205 | 2.0 | 0.0 | 0.00 | 0.00 | 0.00 | 50 | 1013.7 |
| 20260903184424 | 75 | 205 | 2.0 | 0.0 | 0.00 | 0.00 | 0.00 | 51 | 1013.7 |
| 20260903184352 | 75 | 205 | 2.0 | 0.0 | 0.00 | 0.00 | 0.00 | 53 | 1013.7 |
| 20260903184322 | 75 | 205 | 2.0 | 0.0 | 0.00 | 0.00 | 0.00 | 53 | 1013.7 |
| 20260903184253 | 75 | 205 | 2.0 | 4.0 | 0.00 | 0.00 | 0.00 | 53 | 1013.7 |
| 20260903184222 | 75 | 119 | 4.0 | 0.0 | 0.00 | 0.00 | 0.00 | 53 | 1014.0 |
| 20260903184208 | 75 | 157 | 2.0 | 7.0 | 0.00 | 0.00 | 0.00 | 53 | 1014.7 |
| 20260903184123 | 75 | 119 | 4.0 | 0.0 | 0.00 | 0.00 | 0.00 | 53 | 1014.0 |
| 20260903184053 | 75 | 119 | 4.0 | 0.0 | 0.00 | 0.00 | 0.00 | 53 | 1014.0 |
| 20260903184038 | 75 | 119 | 4.0 | 0.0 | 0.00 | 0.00 | 0.00 | 56 | 1014.0 |
| 20260903184026 | 75 | 119 | 4.0 | 0.0 | 0.00 | 0.00 | 0.00 | 52 | 1014.0 |
| 20260903183952 | 75 | 119 | 4.0 | 0.0 | 0.00 | 0.00 | 0.00 | 55 | 1014.0 |
| 20260903183928 | 76 | 119 | 4.0 | 0.0 | 0.00 | 0.00 | 0.00 | 56 | 1014.0 |
| 20260903183922 | 75 | 119 | 4.0 | 0.0 | 0.00 | 0.00 | 0.00 | 56 | 1014.0 |
| 20260903183852 | 75 | 119 | 4.0 | 0.0 | 0.00 | 0.00 | 0.00 | 55 | 1014.0 |
| 20260903183831 | 76 | 119 | 4.0 | 4.0 | 0.00 | 0.00 | 0.00 | 56 | 1014.0 |
| 20260903183824 | 75 | 119 | 4.0 | 0.0 | 0.00 | 0.00 | 0.00 | 56 | 1014.0 |
| 20260903183814 | 76 | 130 | 5.0 | 0.0 | 0.00 | 0.00 | 0.00 | 56 | 1014.0 |
| 20260903183802 | 75 | 119 | 4.0 | 0.0 | 0.00 | 0.00 | 0.00 | 56 | 1014.0 |
| 20260903183752 | 75 | 119 | 4.0 | 0.0 | 0.00 | 0.00 | 0.00 | 55 | 1014.0 |
| 20260903183741 | 75 | 119 | 4.0 | 0.0 | 0.00 | 0.00 | 0.00 | 56 | 1014.0 |
| 20260903183731 | 75 | 119 | 4.0 | 0.0 | 0.00 | 0.00 | 0.00 | 57 | 1014.0 |
| 20260903183718 | 75 | 119 | 4.0 | 0.0 | 0.00 | 0.00 | 0.00 | 57 | 1014.0 |
| 20260903183707 | 75 | 191 | 4.0 | 4.0 | 0.00 | 0.00 | 0.00 | 55 | 1014.8 |
| 20260903183704 | 75 | 119 | 4.0 | 0.0 | 0.00 | 0.00 | 0.00 | 57 | 1014.0 |
| 20260903183203 | 76 | 36 | 0.0 | 6.0 | 0.00 | 0.00 | 0.00 | 56 | 1014.7 |
| 20260903183123 | 76 | 130 | 5.0 | 0.0 | 0.00 | 0.00 | 0.00 | 56 | 1014.0 |
| 20260903183025 | 76 | 130 | 5.0 | 0.0 | 0.00 | 0.00 | 0.00 | 56 | 1014.0 |
| 20260903183010 | 75 | 130 | 5.0 | 0.0 | 0.00 | 0.00 | 0.00 | 55 | 1014.0 |
| 20260903182959 | 76 | 130 | 5.0 | 0.0 | 0.00 | 0.00 | 0.00 | 55 | 1014.0 |
| 20260903182923 | 76 | 130 | 5.0 | 0.0 | 0.00 | 0.00 | 0.00 | 55 | 1014.0 |
| 20260903182852 | 76 | 130 | 5.0 | 0.0 | 0.00 | 0.00 | 0.00 | 55 | 1014.0 |
| 20260903182822 | 76 | 130 | 5.0 | 0.0 | 0.00 | 0.00 | 0.00 | 55 | 1014.0 |
| 20260903182753 | 76 | 130 | 5.0 | 0.0 | 0.00 | 0.00 | 0.00 | 55 | 1014.0 |
| 20260903182727 | 75 | 130 | 5.0 | 6.0 | 0.00 | 0.00 | 0.00 | 55 | 1014.0 |
| 20260903182723 | 75 | 130 | 5.0 | 0.0 | 0.00 | 0.00 | 0.00 | 55 | 1014.0 |
| 20260903182701 | 76 | 100 | 2.0 | 5.0 | 0.00 | 0.00 | 0.00 | 54 | 1014.8 |
| 20260903182637 | 75 | 130 | 5.0 | 0.0 | 0.00 | 0.00 | 0.00 | 55 | 1014.0 |
| 20260903182453 | 75 | 130 | 5.0 | 0.0 | 0.00 | 0.00 | 0.00 | 55 | 1014.0 |
| 20260903182423 | 75 | 130 | 5.0 | 0.0 | 0.00 | 0.00 | 0.00 | 55 | 1014.0 |
| 20260903182354 | 75 | 130 | 5.0 | 0.0 | 0.00 | 0.00 | 0.00 | 55 | 1014.0 |
| 20260903182345 | 75 | 130 | 5.0 | 0.0 | 0.00 | 0.00 | 0.00 | 55 | 1014.0 |
| 20260903182157 | 75 | 207 | 4.0 | 7.0 | 0.00 | 0.00 | 0.00 | 55 | 1014.8 |
| 20260903182113 | 0 | 0.0 | 0.0 | 0.00 | 0.00 | 0.00 | 1013.8 | ||
| 20260903181855 | 0 | 0.0 | 0.0 | 0.00 | 0.00 | 0.00 | 1013.9 | ||
| 20260903181655 | 74 | 320 | 0.0 | 4.0 | 0.00 | 0.00 | 0.00 | 59 | 1014.7 |
| 20260903181625 | 74 | 0.0 | 0.0 | 0.00 | 0.00 | 0.00 | 59 | 1014.0 | |
| 20260903181421 | 74 | 0.0 | 0.0 | 0.00 | 0.00 | 0.00 | 59 | 1013.8 | |
| 20260903181232 | 74 | 173 | 1.0 | 0.0 | 0.00 | 0.00 | 0.00 | 59 | 1013.8 |
| 20260903181211 | 74 | 0.0 | 0.0 | 0.00 | 0.00 | 0.00 | 59 | 1014.0 | |
| 20260903181150 | 74 | 176 | 3.0 | 3.0 | 0.00 | 0.00 | 0.00 | 59 | 1014.9 |
| 20260903181135 | 74 | 173 | 1.0 | 0.0 | 0.00 | 0.00 | 0.00 | 59 | 1013.8 |
| 20260903180942 | 74 | 198 | 1.0 | 0.0 | 0.00 | 0.00 | 0.00 | 59 | 1014.0 |
| 20260903180930 | 74 | 173 | 1.0 | 0.0 | 0.00 | 0.00 | 0.00 | 59 | 1014.0 |
| 20260903180917 | 74 | 173 | 1.0 | 0.0 | 0.00 | 0.00 | 0.00 | 59 | 1013.9 |
| 20260903180645 | 73 | 169 | 1.0 | 7.0 | 0.00 | 0.00 | 0.00 | 61 | 1014.8 |
| 20260903180539 | 74 | 173 | 1.0 | 0.0 | 0.00 | 0.00 | 0.00 | 59 | 1013.8 |
| 20260903180526 | 74 | 173 | 1.0 | 0.0 | 0.00 | 0.00 | 0.00 | 59 | 1013.8 |
| 20260903180359 | 74 | 173 | 1.0 | 0.0 | 0.00 | 0.00 | 0.00 | 59 | 1013.8 |
| 20260903180328 | 74 | 173 | 1.0 | 0.0 | 0.00 | 0.00 | 0.00 | 59 | 1013.8 |
| 20260903180237 | 74 | 198 | 1.0 | 0.0 | 0.00 | 0.00 | 0.00 | 59 | 1014.0 |
| 20260903180229 | 74 | 173 | 1.0 | 0.0 | 0.00 | 0.00 | 0.00 | 59 | 1013.8 |
| 20260903180159 | 74 | 173 | 1.0 | 0.0 | 0.00 | 0.00 | 0.00 | 59 | 1013.8 |
| 20260903180140 | 75 | 157 | 0.0 | 2.0 | 0.00 | 0.00 | 0.00 | 59 | 1014.9 |
| 20260903180128 | 74 | 173 | 1.0 | 0.0 | 0.00 | 0.00 | 0.00 | 59 | 1013.8 |
| 20260903180105 | 74 | 173 | 1.0 | 0.0 | 0.00 | 0.00 | 0.00 | 59 | 1013.8 |
| 20260903180042 | 74 | 173 | 1.0 | 1.0 | 0.00 | 0.00 | 0.00 | 59 | 1013.8 |
| 20260903175910 | 74 | 198 | 1.0 | 0.0 | 0.00 | 0.00 | 0.00 | 59 | 1014.0 |
| 20260903175729 | 73 | 198 | 1.0 | 0.0 | 0.00 | 0.00 | 0.00 | 59 | 1014.0 |
| 20260903175705 | 73 | 198 | 1.0 | 0.0 | 0.00 | 0.00 | 0.00 | 61 | 1014.0 |
| 20260903175659 | 73 | 198 | 1.0 | 0.0 | 0.00 | 0.00 | 0.00 | 59 | 1014.0 |
| 20260903175639 | 74 | 180 | 1.0 | 3.0 | 0.00 | 0.00 | 0.00 | 60 | 1015.0 |
| 20260903175628 | 73 | 198 | 1.0 | 0.0 | 0.00 | 0.00 | 0.00 | 59 | 1014.0 |
| 20260903175559 | 73 | 198 | 1.0 | 0.0 | 0.00 | 0.00 | 0.00 | 59 | 1014.0 |
| 20260903175528 | 73 | 198 | 1.0 | 0.0 | 0.00 | 0.00 | 0.00 | 59 | 1014.0 |
| 20260903175511 | 73 | 198 | 1.0 | 0.0 | 0.00 | 0.00 | 0.00 | 59 | 1014.0 |
| 20260903175430 | 73 | 198 | 1.0 | 0.0 | 0.00 | 0.00 | 0.00 | 59 | 1014.0 |
| 20260903175403 | 73 | 0.0 | 0.0 | 0.00 | 0.00 | 0.00 | 62 | 1014.0 | |
| 20260903175348 | 73 | 198 | 1.0 | 0.0 | 0.00 | 0.00 | 0.00 | 59 | 1014.0 |
| 20260903175338 | 73 | 198 | 1.0 | 0.0 | 0.00 | 0.00 | 0.00 | 59 | 1014.0 |
| 20260903175142 | 72 | 198 | 1.0 | 0.0 | 0.00 | 0.00 | 0.00 | 64 | 1014.0 |
| 20260903175138 | 73 | 123 | 2.0 | 7.0 | 0.00 | 0.00 | 0.00 | 62 | 1014.9 |
| 20260903175031 | 72 | 198 | 1.0 | 0.0 | 0.00 | 0.00 | 0.00 | 64 | 1014.0 |
| 20260903175000 | 72 | 198 | 1.0 | 0.0 | 0.00 | 0.00 | 0.00 | 64 | 1014.0 |
| 20260903174941 | 72 | 198 | 1.0 | 3.0 | 0.00 | 0.00 | 0.00 | 64 | 1014.0 |
| 20260903174633 | 73 | 110 | 0.0 | 8.0 | 0.00 | 0.00 | 0.00 | 63 | 1014.8 |
| 20260903174536 | 73 | 191 | 2.0 | 0.0 | 0.00 | 0.00 | 0.00 | 62 | 1014.2 |
| 20260903174526 | 73 | 0.0 | 0.0 | 0.00 | 0.00 | 0.00 | 62 | 1014.1 | |
| 20260903174408 | 73 | 191 | 2.0 | 0.0 | 0.00 | 0.00 | 0.00 | 62 | 1014.2 |
| 20260903174306 | 73 | 0.0 | 0.0 | 0.00 | 0.00 | 0.00 | 62 | 1013.9 | |
| 20260903174154 | 73 | 191 | 2.0 | 0.0 | 0.00 | 0.00 | 0.00 | 62 | 1014.2 |
| 20260903174150 | 73 | 191 | 2.0 | 0.0 | 0.00 | 0.00 | 0.00 | 62 | 1014.2 |
| 20260903174128 | 74 | 127 | 2.0 | 4.0 | 0.00 | 0.00 | 0.00 | 61 | 1015.0 |
| 20260903173913 | 73 | 191 | 2.0 | 0.0 | 0.00 | 0.00 | 0.00 | 62 | 1014.2 |
| 20260903173843 | 73 | 191 | 2.0 | 0.0 | 0.00 | 0.00 | 0.00 | 62 | 1014.2 |
| 20260903173812 | 73 | 191 | 2.0 | 0.0 | 0.00 | 0.00 | 0.00 | 62 | 1014.2 |
| 20260903173723 | 73 | 191 | 2.0 | 0.0 | 0.00 | 0.00 | 0.00 | 62 | 1014.2 |
| 20260903173707 | 73 | 191 | 2.0 | 0.0 | 0.00 | 0.00 | 0.00 | 62 | 1014.2 |
| 20260903173623 | 72 | 85 | 1.0 | 4.0 | 0.00 | 0.00 | 0.00 | 62 | 1014.9 |
| 20260903173411 | 73 | 191 | 2.0 | 0.0 | 0.00 | 0.00 | 0.00 | 62 | 1014.2 |
| 20260903173342 | 73 | 191 | 2.0 | 0.0 | 0.00 | 0.00 | 0.00 | 62 | 1014.2 |
| 20260903173312 | 73 | 191 | 2.0 | 0.0 | 0.00 | 0.00 | 0.00 | 62 | 1014.2 |
| 20260903173213 | 73 | 191 | 2.0 | 0.0 | 0.00 | 0.00 | 0.00 | 62 | 1014.2 |
| 20260903173155 | 73 | 191 | 2.0 | 0.0 | 0.00 | 0.00 | 0.00 | 62 | 1014.2 |
| 20260903173119 | 73 | 135 | 3.0 | 5.0 | 0.00 | 0.00 | 0.00 | 62 | 1015.0 |
| 20260903173114 | 73 | 191 | 2.0 | 0.0 | 0.00 | 0.00 | 0.00 | 62 | 1014.2 |
| 20260903173044 | 73 | 191 | 2.0 | 5.0 | 0.00 | 0.00 | 0.00 | 62 | 1014.2 |
| 20260903173025 | 73 | 0.0 | 0.0 | 0.00 | 0.00 | 0.00 | 62 | 1014.1 | |
| 20260903172815 | 0 | 0.0 | 0.0 | 0.00 | 0.00 | 0.00 | 1014.0 | ||
| 20260903172619 | 72 | 149 | 2.0 | 3.0 | 0.00 | 0.00 | 0.00 | 62 | 1015.1 |
| 20260903172608 | 0 | 0.0 | 0.0 | 0.00 | 0.00 | 0.00 | 1014.1 | ||
| 20260903172325 | 0 | 0.0 | 0.0 | 0.00 | 0.00 | 0.00 | 1014.1 | ||
| 20260903172118 | 0 | 0.0 | 0.0 | 0.00 | 0.00 | 0.00 | 1014.1 | ||
| 20260903172114 | 73 | 126 | 4.0 | 4.0 | 0.00 | 0.00 | 0.00 | 61 | 1014.9 |
| 20260903172103 | 0 | 0.0 | 0.0 | 0.00 | 0.00 | 0.00 | 1014.0 | ||
| 20260903171910 | 0 | 0.0 | 0.0 | 0.00 | 0.00 | 0.00 | 1013.9 | ||
| 20260903171614 | 73 | 190 | 4.0 | 4.0 | 0.00 | 0.00 | 0.00 | 62 | 1015.0 |
| 20260903171409 | 0 | 0.0 | 0.0 | 0.00 | 0.00 | 0.00 | 1014.0 | ||
| 20260903171128 | 0 | 0.0 | 0.0 | 0.00 | 0.00 | 0.00 | 1014.0 | ||
| 20260903171110 | 72 | 113 | 0.0 | 5.0 | 0.00 | 0.00 | 0.00 | 64 | 1014.9 |
| 20260903170920 | 0 | 0.0 | 0.0 | 0.00 | 0.00 | 0.00 | 1014.0 | ||
| 20260903170712 | 0 | 0.0 | 0.0 | 0.00 | 0.00 | 0.00 | 1014.0 | ||
| 20260903170609 | 73 | 165 | 2.0 | 6.0 | 0.00 | 0.00 | 0.00 | 63 | 1015.0 |
| 20260903170505 | 0 | 0.0 | 0.0 | 0.00 | 0.00 | 0.00 | 1014.0 | ||
| 20260903170224 | 72 | 0.0 | 0.0 | 0.00 | 0.00 | 0.00 | 65 | 1014.0 | |
| 20260903170105 | 74 | 106 | 2.0 | 4.0 | 0.00 | 0.00 | 0.00 | 62 | 1015.0 |
| 20260903170017 | 72 | 0.0 | 0.0 | 0.00 | 0.00 | 0.00 | 65 | 1013.9 | |
| 20260903165801 | 72 | 0.0 | 0.0 | 0.00 | 0.00 | 0.00 | 65 | 1014.0 | |
| 20260903165751 | 72 | 76 | 0.0 | 0.0 | 0.00 | 0.00 | 0.00 | 65 | 1014.0 |
| 20260903165601 | 73 | 60 | 0.0 | 2.0 | 0.00 | 0.00 | 0.00 | 64 | 1014.9 |
| 20260903165539 | 72 | 76 | 0.0 | 0.0 | 0.00 | 0.00 | 0.00 | 65 | 1013.9 |
| 20260903165510 | 72 | 76 | 0.0 | 0.0 | 0.00 | 0.00 | 0.00 | 65 | 1014.2 |
| 20260903165441 | 72 | 76 | 0.0 | 0.0 | 0.00 | 0.00 | 0.00 | 65 | 1014.2 |
| 20260903165431 | 72 | 76 | 0.0 | 0.0 | 0.00 | 0.00 | 0.00 | 65 | 1014.0 |
| 20260903165425 | 72 | 76 | 0.0 | 0.0 | 0.00 | 0.00 | 0.00 | 65 | 1014.0 |
| 20260903165240 | 72 | 76 | 0.0 | 0.0 | 0.00 | 0.00 | 0.00 | 65 | 1014.0 |
| 20260903165210 | 72 | 76 | 0.0 | 0.0 | 0.00 | 0.00 | 0.00 | 65 | 1014.0 |
| 20260903165109 | 72 | 76 | 0.0 | 0.0 | 0.00 | 0.00 | 0.00 | 65 | 1014.0 |
| 20260903165057 | 72 | 97 | 1.0 | 0.0 | 0.00 | 0.00 | 0.00 | 65 | 1013.8 |
| 20260903165050 | 72 | 76 | 0.0 | 0.0 | 0.00 | 0.00 | 0.00 | 65 | 1014.0 |
| 20260903164910 | 72 | 76 | 0.0 | 0.0 | 0.00 | 0.00 | 0.00 | 65 | 1014.0 |
| 20260903164810 | 72 | 76 | 0.0 | 0.0 | 0.00 | 0.00 | 0.00 | 65 | 1014.0 |
| 20260903164752 | 71 | 97 | 1.0 | 0.0 | 0.00 | 0.00 | 0.00 | 67 | 1013.8 |
| 20260903164711 | 72 | 76 | 0.0 | 0.0 | 0.00 | 0.00 | 0.00 | 65 | 1014.0 |
| 20260903164644 | 71 | 97 | 1.0 | 0.0 | 0.00 | 0.00 | 0.00 | 67 | 1013.8 |
| 20260903164640 | 72 | 76 | 0.0 | 0.0 | 0.00 | 0.00 | 0.00 | 65 | 1014.0 |
| 20260903164629 | 72 | 76 | 0.0 | 1.0 | 0.00 | 0.00 | 0.00 | 65 | 1014.0 |
| 20260903164552 | 73 | 136 | 2.0 | 2.0 | 0.00 | 0.00 | 0.00 | 64 | 1014.9 |
| 20260903164432 | 71 | 97 | 1.0 | 0.0 | 0.00 | 0.00 | 0.00 | 67 | 1013.8 |
| 20260903164428 | 72 | 97 | 1.0 | 0.0 | 0.00 | 0.00 | 0.00 | 65 | 1013.8 |
| 20260903164250 | 71 | 97 | 1.0 | 0.0 | 0.00 | 0.00 | 0.00 | 67 | 1013.8 |
| 20260903164109 | 71 | 97 | 1.0 | 0.0 | 0.00 | 0.00 | 0.00 | 67 | 1013.8 |
| 20260903164049 | 71 | 195 | 2.0 | 3.0 | 0.00 | 0.00 | 0.00 | 65 | 1014.8 |
| 20260903164032 | 71 | 97 | 1.0 | 0.0 | 0.00 | 0.00 | 0.00 | 67 | 1013.8 |
| 20260903163840 | 71 | 97 | 1.0 | 0.0 | 0.00 | 0.00 | 0.00 | 67 | 1013.8 |
| 20260903163809 | 71 | 97 | 1.0 | 0.0 | 0.00 | 0.00 | 0.00 | 67 | 1013.8 |
| 20260903163710 | 71 | 97 | 1.0 | 0.0 | 0.00 | 0.00 | 0.00 | 67 | 1013.8 |
| 20260903163610 | 71 | 97 | 1.0 | 0.0 | 0.00 | 0.00 | 0.00 | 67 | 1013.8 |
| 20260903163553 | 71 | 97 | 1.0 | 3.0 | 0.00 | 0.00 | 0.00 | 67 | 1013.8 |
| 20260903163548 | 71 | 108 | 2.0 | 3.0 | 0.00 | 0.00 | 0.00 | 67 | 1015.1 |
| 20260903163409 | 71 | 180 | 0.0 | 0.0 | 0.00 | 0.00 | 0.00 | 69 | 1013.8 |
| 20260903163357 | 71 | 180 | 0.0 | 0.0 | 0.00 | 0.00 | 0.00 | 69 | 1014.0 |
| 20260903163326 | 71 | 180 | 0.0 | 0.0 | 0.00 | 0.00 | 0.00 | 69 | 1013.8 |
| 20260903163227 | 71 | 180 | 0.0 | 0.0 | 0.00 | 0.00 | 0.00 | 69 | 1013.8 |
| 20260903163128 | 71 | 180 | 0.0 | 0.0 | 0.00 | 0.00 | 0.00 | 69 | 1013.8 |
| 20260903163044 | 71 | 193 | 2.0 | 2.0 | 0.00 | 0.00 | 0.00 | 67 | 1014.8 |
| 20260903163041 | 71 | 180 | 0.0 | 0.0 | 0.00 | 0.00 | 0.00 | 69 | 1013.8 |
| 20260903162857 | 71 | 180 | 0.0 | 0.0 | 0.00 | 0.00 | 0.00 | 69 | 1013.8 |
| 20260903162826 | 71 | 180 | 0.0 | 0.0 | 0.00 | 0.00 | 0.00 | 69 | 1013.8 |
| 20260903162733 | 71 | 180 | 0.0 | 0.0 | 0.00 | 0.00 | 0.00 | 69 | 1013.8 |
| 20260903162657 | 71 | 180 | 0.0 | 0.0 | 0.00 | 0.00 | 0.00 | 69 | 1013.8 |
| 20260903162626 | 71 | 180 | 0.0 | 0.0 | 0.00 | 0.00 | 0.00 | 69 | 1013.8 |
| 20260903162541 | 72 | 81 | 2.0 | 2.0 | 0.00 | 0.00 | 0.00 | 66 | 1015.0 |
| 20260903162527 | 71 | 180 | 0.0 | 0.0 | 0.00 | 0.00 | 0.00 | 69 | 1013.8 |
| 20260903162457 | 71 | 180 | 0.0 | 0.0 | 0.00 | 0.00 | 0.00 | 69 | 1013.8 |
| 20260903162428 | 71 | 180 | 0.0 | 0.0 | 0.00 | 0.00 | 0.00 | 69 | 1013.8 |
| 20260903162413 | 71 | 120 | 2.0 | 0.0 | 0.00 | 0.00 | 0.00 | 68 | 1013.9 |
| 20260903162356 | 71 | 120 | 2.0 | 0.0 | 0.00 | 0.00 | 0.00 | 69 | 1013.9 |
| 20260903162327 | 71 | 120 | 2.0 | 0.0 | 0.00 | 0.00 | 0.00 | 68 | 1013.9 |
| 20260903162258 | 71 | 120 | 2.0 | 0.0 | 0.00 | 0.00 | 0.00 | 68 | 1013.9 |
| 20260903162227 | 71 | 120 | 2.0 | 0.0 | 0.00 | 0.00 | 0.00 | 68 | 1013.9 |
| 20260903162127 | 71 | 120 | 2.0 | 0.0 | 0.00 | 0.00 | 0.00 | 68 | 1013.9 |
| 20260903162048 | 72 | 120 | 2.0 | 0.0 | 0.00 | 0.00 | 0.00 | 66 | 1013.9 |
| 20260903162043 | 71 | 120 | 2.0 | 0.0 | 0.00 | 0.00 | 0.00 | 68 | 1013.9 |
| 20260903162036 | 73 | 200 | 0.0 | 4.0 | 0.00 | 0.00 | 0.00 | 66 | 1014.9 |
| 20260903161858 | 71 | 120 | 2.0 | 0.0 | 0.00 | 0.00 | 0.00 | 68 | 1013.9 |
| 20260903161826 | 71 | 120 | 2.0 | 0.0 | 0.00 | 0.00 | 0.00 | 68 | 1013.9 |
| 20260903161759 | 71 | 120 | 2.0 | 0.0 | 0.00 | 0.00 | 0.00 | 68 | 1013.9 |
| 20260903161727 | 71 | 120 | 2.0 | 0.0 | 0.00 | 0.00 | 0.00 | 68 | 1013.9 |
| 20260903161657 | 71 | 120 | 2.0 | 0.0 | 0.00 | 0.00 | 0.00 | 68 | 1013.9 |
| 20260903161626 | 71 | 120 | 2.0 | 0.0 | 0.00 | 0.00 | 0.00 | 68 | 1013.9 |
| 20260903161617 | 71 | 120 | 2.0 | 0.0 | 0.00 | 0.00 | 0.00 | 68 | 1013.9 |
| 20260903161607 | 72 | 120 | 2.0 | 0.0 | 0.00 | 0.00 | 0.00 | 66 | 1013.9 |
| 20260903161532 | 72 | 196 | 0.0 | 3.0 | 0.00 | 0.00 | 0.00 | 65 | 1014.9 |
| 20260903161428 | 72 | 120 | 2.0 | 2.0 | 0.00 | 0.00 | 0.00 | 66 | 1013.9 |
| 20260903161334 | 73 | 206 | 2.0 | 0.0 | 0.00 | 0.00 | 0.00 | 64 | 1014.0 |
| 20260903161326 | 72 | 206 | 2.0 | 0.0 | 0.00 | 0.00 | 0.00 | 66 | 1014.0 |
| 20260903161228 | 72 | 206 | 2.0 | 0.0 | 0.00 | 0.00 | 0.00 | 66 | 1014.0 |
| 20260903161156 | 72 | 206 | 2.0 | 0.0 | 0.00 | 0.00 | 0.00 | 66 | 1014.0 |
| 20260903161127 | 73 | 206 | 2.0 | 0.0 | 0.00 | 0.00 | 0.00 | 64 | 1014.0 |
| 20260903161031 | 73 | 206 | 2.0 | 0.0 | 0.00 | 0.00 | 0.00 | 64 | 1014.0 |
| 20260903161027 | 73 | 106 | 0.0 | 4.0 | 0.00 | 0.00 | 0.00 | 64 | 1014.9 |
| 20260903161014 | 73 | 206 | 2.0 | 2.0 | 0.00 | 0.00 | 0.00 | 65 | 1014.0 |
| 20260903161007 | 73 | 206 | 2.0 | 0.0 | 0.00 | 0.00 | 0.00 | 64 | 1014.0 |
| 20260903160826 | 73 | 206 | 2.0 | 0.0 | 0.00 | 0.00 | 0.00 | 64 | 1014.0 |
| 20260903160758 | 73 | 206 | 2.0 | 0.0 | 0.00 | 0.00 | 0.00 | 65 | 1014.0 |
| 20260903160733 | 73 | 114 | 0.0 | 0.0 | 0.00 | 0.00 | 0.00 | 65 | 1013.9 |
| 20260903160727 | 73 | 206 | 2.0 | 0.0 | 0.00 | 0.00 | 0.00 | 65 | 1014.0 |
| 20260903160627 | 73 | 206 | 2.0 | 0.0 | 0.00 | 0.00 | 0.00 | 65 | 1014.0 |
| 20260903160557 | 73 | 206 | 2.0 | 0.0 | 0.00 | 0.00 | 0.00 | 65 | 1014.0 |
| 20260903160548 | 73 | 206 | 2.0 | 0.0 | 0.00 | 0.00 | 0.00 | 65 | 1014.0 |
| 20260903160526 | 72 | 180 | 2.0 | 3.0 | 0.00 | 0.00 | 0.00 | 67 | 1015.0 |
| 20260903160421 | 73 | 114 | 0.0 | 0.0 | 0.00 | 0.00 | 0.00 | 65 | 1013.9 |
| 20260903160227 | 73 | 114 | 0.0 | 0.0 | 0.00 | 0.00 | 0.00 | 66 | 1013.9 |
| 20260903160156 | 73 | 114 | 0.0 | 0.0 | 0.00 | 0.00 | 0.00 | 65 | 1013.9 |
| 20260903160127 | 72 | 114 | 0.0 | 0.0 | 0.00 | 0.00 | 0.00 | 67 | 1013.9 |
| 20260903160115 | 71 | 114 | 0.0 | 0.0 | 0.00 | 0.00 | 0.00 | 68 | 1013.9 |
| 20260903160110 | 72 | 114 | 0.0 | 0.0 | 0.00 | 0.00 | 0.00 | 67 | 1013.9 |
| 20260903160034 | 72 | 114 | 0.0 | 0.0 | 0.00 | 0.00 | 0.00 | 67 | 1013.9 |
| 20260903160021 | 72 | 43 | 1.0 | 3.0 | 0.00 | 0.00 | 0.00 | 67 | 1015.0 |
| 20260903155958 | 72 | 114 | 0.0 | 0.0 | 0.00 | 0.00 | 0.00 | 67 | 1013.9 |
| 20260903155926 | 71 | 114 | 0.0 | 0.0 | 0.00 | 0.00 | 0.00 | 68 | 1013.9 |
| 20260903155857 | 71 | 114 | 0.0 | 0.0 | 0.00 | 0.00 | 0.00 | 68 | 1013.9 |
| 20260903155827 | 71 | 114 | 0.0 | 0.0 | 0.00 | 0.00 | 0.00 | 68 | 1013.9 |
| 20260903155742 | 71 | 114 | 0.0 | 0.0 | 0.00 | 0.00 | 0.00 | 68 | 1013.9 |
| 20260903155527 | 71 | 114 | 0.0 | 0.0 | 0.00 | 0.00 | 0.00 | 68 | 1013.9 |
| 20260903155520 | 72 | 126 | 2.0 | 2.0 | 0.00 | 0.00 | 0.00 | 67 | 1015.0 |
| 20260903155457 | 71 | 114 | 0.0 | 0.0 | 0.00 | 0.00 | 0.00 | 68 | 1013.9 |
| 20260903155426 | 71 | 114 | 0.0 | 0.0 | 0.00 | 0.00 | 0.00 | 68 | 1013.9 |
| 20260903155409 | 71 | 114 | 0.0 | 0.0 | 0.00 | 0.00 | 0.00 | 68 | 1014.0 |
| 20260903155331 | 0 | 0.0 | 0.0 | 0.00 | 0.00 | 0.00 | 1014.1 | ||
| 20260903155311 | 0 | 0.0 | 0.0 | 0.00 | 0.00 | 0.00 | 1014.1 | ||
| 20260903155103 | 0 | 0.0 | 0.0 | 0.00 | 0.00 | 0.00 | 1013.9 | ||
| 20260903155016 | 71 | 329 | 0.0 | 1.0 | 0.00 | 0.00 | 0.00 | 69 | 1015.0 |
| 20260903154626 | 0 | 0.0 | 0.0 | 0.00 | 0.00 | 0.00 | 1014.0 | ||
| 20260903154512 | 69 | 181 | 2.0 | 4.0 | 0.00 | 0.00 | 0.00 | 72 | 1015.0 |
| 20260903154422 | 71 | 0.0 | 0.0 | 0.00 | 0.00 | 0.00 | 67 | 1013.9 | |
| 20260903154215 | 71 | 0.0 | 0.0 | 0.00 | 0.00 | 0.00 | 67 | 1014.1 | |
| 20260903154008 | 71 | 195 | 0.0 | 1.0 | 0.00 | 0.00 | 0.00 | 69 | 1015.0 |
| 20260903153931 | 71 | 32 | 2.0 | 0.0 | 0.00 | 0.00 | 0.00 | 67 | 1014.1 |
| 20260903153845 | 71 | 32 | 2.0 | 0.0 | 0.00 | 0.00 | 0.00 | 67 | 1014.1 |
| 20260903153813 | 71 | 147 | 0.0 | 0.0 | 0.00 | 0.00 | 0.00 | 67 | 1014.0 |
| 20260903153731 | 71 | 32 | 2.0 | 0.0 | 0.00 | 0.00 | 0.00 | 67 | 1013.9 |
| 20260903153633 | 71 | 32 | 2.0 | 0.0 | 0.00 | 0.00 | 0.00 | 67 | 1014.0 |
| 20260903153549 | 71 | 32 | 2.0 | 0.0 | 0.00 | 0.00 | 0.00 | 67 | 1013.9 |
| 20260903153532 | 71 | 32 | 2.0 | 0.0 | 0.00 | 0.00 | 0.00 | 67 | 1014.0 |
| 20260903153503 | 70 | 174 | 1.0 | 2.0 | 0.00 | 0.00 | 0.00 | 69 | 1014.9 |
| 20260903153439 | 71 | 32 | 2.0 | 0.0 | 0.00 | 0.00 | 0.00 | 67 | 1013.9 |
| 20260903153426 | 71 | 32 | 2.0 | 0.0 | 0.00 | 0.00 | 0.00 | 67 | 1013.9 |
| 20260903153233 | 71 | 32 | 2.0 | 0.0 | 0.00 | 0.00 | 0.00 | 67 | 1013.9 |
| 20260903153212 | 71 | 32 | 2.0 | 0.0 | 0.00 | 0.00 | 0.00 | 67 | 1013.9 |
| 20260903153038 | 71 | 147 | 0.0 | 0.0 | 0.00 | 0.00 | 0.00 | 67 | 1014.0 |
| 20260903153031 | 71 | 32 | 2.0 | 0.0 | 0.00 | 0.00 | 0.00 | 67 | 1013.9 |
| 20260903153002 | 71 | 32 | 2.0 | 3.0 | 0.00 | 0.00 | 0.00 | 67 | 1013.9 |
| 20260903152959 | 71 | 56 | 0.0 | 1.0 | 0.00 | 0.00 | 0.00 | 69 | 1014.9 |
| 20260903152945 | 71 | 147 | 0.0 | 0.0 | 0.00 | 0.00 | 0.00 | 67 | 1014.0 |
| 20260903152732 | 71 | 147 | 0.0 | 0.0 | 0.00 | 0.00 | 0.00 | 67 | 1014.0 |
| 20260903152720 | 69 | 147 | 0.0 | 0.0 | 0.00 | 0.00 | 0.00 | 73 | 1014.0 |
| 20260903152711 | 71 | 147 | 0.0 | 0.0 | 0.00 | 0.00 | 0.00 | 67 | 1014.0 |
| 20260903152532 | 71 | 147 | 0.0 | 0.0 | 0.00 | 0.00 | 0.00 | 67 | 1014.0 |
| 20260903152501 | 71 | 147 | 0.0 | 0.0 | 0.00 | 0.00 | 0.00 | 67 | 1014.0 |
| 20260903152454 | 71 | 30 | 2.0 | 3.0 | 0.00 | 0.00 | 0.00 | 67 | 1014.9 |
| 20260903152431 | 69 | 147 | 0.0 | 0.0 | 0.00 | 0.00 | 0.00 | 73 | 1014.0 |
| 20260903152347 | 69 | 147 | 0.0 | 0.0 | 0.00 | 0.00 | 0.00 | 73 | 1014.0 |
| 20260903152217 | 69 | 116 | 3.0 | 0.0 | 0.00 | 0.00 | 0.00 | 73 | 1014.1 |
| 20260903152202 | 69 | 147 | 0.0 | 0.0 | 0.00 | 0.00 | 0.00 | 73 | 1014.0 |
| 20260903152131 | 69 | 147 | 0.0 | 0.0 | 0.00 | 0.00 | 0.00 | 73 | 1014.0 |
| 20260903152039 | 66 | 116 | 3.0 | 0.0 | 0.00 | 0.00 | 0.00 | 78 | 1014.1 |
| 20260903152031 | 69 | 147 | 0.0 | 0.0 | 0.00 | 0.00 | 0.00 | 73 | 1014.0 |
| 20260903152003 | 69 | 147 | 0.0 | 2.0 | 0.00 | 0.00 | 0.00 | 73 | 1014.0 |
| 20260903151950 | 71 | 62 | 0.0 | 1.0 | 0.00 | 0.00 | 0.00 | 70 | 1014.9 |
| 20260903151931 | 69 | 116 | 3.0 | 0.0 | 0.00 | 0.00 | 0.00 | 73 | 1014.1 |
| 20260903151845 | 69 | 116 | 3.0 | 0.0 | 0.00 | 0.00 | 0.00 | 73 | 1014.1 |
| 20260903151711 | 69 | 116 | 3.0 | 0.0 | 0.00 | 0.00 | 0.00 | 73 | 1014.1 |
| 20260903151532 | 66 | 116 | 3.0 | 0.0 | 0.00 | 0.00 | 0.00 | 78 | 1014.1 |
| 20260903151444 | 68 | 85 | 2.0 | 3.0 | 0.00 | 0.00 | 0.00 | 75 | 1014.9 |
| 20260903151432 | 66 | 116 | 3.0 | 0.0 | 0.00 | 0.00 | 0.00 | 78 | 1014.1 |
| 20260903151415 | 66 | 116 | 3.0 | 0.0 | 0.00 | 0.00 | 0.00 | 78 | 1014.1 |
| 20260903151332 | 66 | 116 | 3.0 | 0.0 | 0.00 | 0.00 | 0.00 | 78 | 1014.1 |
| 20260903151245 | 66 | 116 | 3.0 | 0.0 | 0.00 | 0.00 | 0.00 | 78 | 1014.1 |
| 20260903151143 | 66 | 78 | 2.0 | 0.0 | 0.00 | 0.00 | 0.00 | 78 | 1014.2 |
| 20260903151133 | 66 | 116 | 3.0 | 0.0 | 0.00 | 0.00 | 0.00 | 78 | 1014.1 |
| 20260903151033 | 66 | 116 | 3.0 | 0.0 | 0.00 | 0.00 | 0.00 | 78 | 1014.1 |
| 20260903151003 | 66 | 116 | 3.0 | 3.0 | 0.00 | 0.00 | 0.00 | 78 | 1014.1 |
| 20260903150939 | 66 | 110 | 0.0 | 3.0 | 0.00 | 0.00 | 0.00 | 78 | 1015.0 |
| 20260903150931 | 66 | 78 | 2.0 | 0.0 | 0.00 | 0.00 | 0.00 | 78 | 1014.2 |
| 20260903150833 | 66 | 78 | 2.0 | 0.0 | 0.00 | 0.00 | 0.00 | 78 | 1014.2 |
| 20260903150822 | 67 | 78 | 2.0 | 0.0 | 0.00 | 0.00 | 0.00 | 76 | 1014.2 |
| 20260903150812 | 66 | 78 | 2.0 | 0.0 | 0.00 | 0.00 | 0.00 | 78 | 1014.2 |
| 20260903150634 | 66 | 78 | 2.0 | 0.0 | 0.00 | 0.00 | 0.00 | 78 | 1014.2 |
| 20260903150621 | 67 | 78 | 2.0 | 0.0 | 0.00 | 0.00 | 0.00 | 76 | 1014.2 |
| 20260903150614 | 66 | 78 | 2.0 | 0.0 | 0.00 | 0.00 | 0.00 | 78 | 1014.2 |
| 20260903150544 | 68 | 78 | 2.0 | 0.0 | 0.00 | 0.00 | 0.00 | 75 | 1014.2 |
| 20260903150434 | 67 | 199 | 4.0 | 4.0 | 0.00 | 0.00 | 0.00 | 76 | 1014.7 |
| 20260903150432 | 68 | 78 | 2.0 | 0.0 | 0.00 | 0.00 | 0.00 | 75 | 1014.2 |
| 20260903150355 | 67 | 34 | 2.0 | 0.0 | 0.00 | 0.00 | 0.00 | 78 | 1014.1 |
| 20260903150351 | 68 | 78 | 2.0 | 0.0 | 0.00 | 0.00 | 0.00 | 75 | 1014.2 |
| 20260903150339 | 68 | 78 | 2.0 | 0.0 | 0.00 | 0.00 | 0.00 | 75 | 1014.2 |
| 20260903150039 | 66 | 34 | 2.0 | 0.0 | 0.00 | 0.00 | 0.00 | 79 | 1014.1 |
| 20260903150032 | 67 | 78 | 2.0 | 0.0 | 0.00 | 0.00 | 0.00 | 77 | 1014.2 |
| 20260903150005 | 67 | 78 | 2.0 | 2.0 | 0.00 | 0.00 | 0.00 | 77 | 1014.2 |
| 20260903145936 | 65 | 34 | 2.0 | 0.0 | 0.00 | 0.00 | 0.00 | 80 | 1014.1 |
| 20260903145934 | 67 | 84 | 1.0 | 3.0 | 0.00 | 0.00 | 0.00 | 77 | 1015.0 |
| 20260903145932 | 67 | 34 | 2.0 | 0.0 | 0.00 | 0.00 | 0.00 | 77 | 1014.1 |
| 20260903145922 | 67 | 34 | 2.0 | 0.0 | 0.00 | 0.00 | 0.00 | 77 | 1014.1 |
| 20260903145912 | 67 | 34 | 2.0 | 0.0 | 0.00 | 0.00 | 0.00 | 78 | 1014.1 |
| 20260903145742 | 64 | 34 | 2.0 | 0.0 | 0.00 | 0.00 | 0.00 | 80 | 1014.1 |
| 20260903145736 | 64 | 34 | 2.0 | 0.0 | 0.00 | 0.00 | 0.00 | 80 | 1014.1 |
| 20260903145732 | 67 | 34 | 2.0 | 0.0 | 0.00 | 0.00 | 0.00 | 78 | 1014.1 |
| 20260903145722 | 66 | 34 | 2.0 | 0.0 | 0.00 | 0.00 | 0.00 | 78 | 1014.1 |
| 20260903145711 | 66 | 34 | 2.0 | 0.0 | 0.00 | 0.00 | 0.00 | 79 | 1014.1 |
| 20260903145551 | 66 | 34 | 2.0 | 0.0 | 0.00 | 0.00 | 0.00 | 79 | 1014.1 |
| 20260903145541 | 65 | 34 | 2.0 | 0.0 | 0.00 | 0.00 | 0.00 | 79 | 1014.1 |
| 20260903145429 | 65 | 70 | 0.0 | 1.0 | 0.00 | 0.00 | 0.00 | 80 | 1015.1 |
| 20260903145345 | 64 | 46 | 1.0 | 0.0 | 0.00 | 0.00 | 0.00 | 81 | 1013.9 |
| 20260903145341 | 65 | 34 | 2.0 | 0.0 | 0.00 | 0.00 | 0.00 | 80 | 1014.1 |
| 20260903145325 | 65 | 34 | 2.0 | 0.0 | 0.00 | 0.00 | 0.00 | 80 | 1014.1 |
| 20260903145044 | 64 | 34 | 2.0 | 0.0 | 0.00 | 0.00 | 0.00 | 80 | 1014.1 |
| 20260903145004 | 64 | 34 | 2.0 | 2.0 | 0.00 | 0.00 | 0.00 | 80 | 1014.1 |
| 20260903144931 | 64 | 46 | 1.0 | 0.0 | 0.00 | 0.00 | 0.00 | 80 | 1013.9 |
| 20260903144924 | 64 | 33 | 1.0 | 3.0 | 0.00 | 0.00 | 0.00 | 80 | 1014.9 |
| 20260903144852 | 64 | 46 | 1.0 | 0.0 | 0.00 | 0.00 | 0.00 | 80 | 1013.9 |
| 20260903144842 | 64 | 46 | 1.0 | 0.0 | 0.00 | 0.00 | 0.00 | 80 | 1013.9 |
| 20260903144702 | 64 | 46 | 1.0 | 0.0 | 0.00 | 0.00 | 0.00 | 81 | 1013.9 |
| 20260903144631 | 64 | 46 | 1.0 | 0.0 | 0.00 | 0.00 | 0.00 | 81 | 1013.9 |
| 20260903144539 | 63 | 46 | 1.0 | 0.0 | 0.00 | 0.00 | 0.00 | 81 | 1013.9 |
| 20260903144532 | 64 | 46 | 1.0 | 0.0 | 0.00 | 0.00 | 0.00 | 81 | 1013.9 |
| 20260903144502 | 64 | 46 | 1.0 | 0.0 | 0.00 | 0.00 | 0.00 | 81 | 1013.9 |
| 20260903144431 | 64 | 46 | 1.0 | 0.0 | 0.00 | 0.00 | 0.00 | 81 | 1013.9 |
| 20260903144423 | 64 | 16 | 0.0 | 4.0 | 0.00 | 0.00 | 0.00 | 81 | 1014.8 |
| 20260903144402 | 64 | 46 | 1.0 | 0.0 | 0.00 | 0.00 | 0.00 | 81 | 1013.9 |
| 20260903144332 | 64 | 46 | 1.0 | 0.0 | 0.00 | 0.00 | 0.00 | 81 | 1013.9 |
| 20260903144233 | 64 | 46 | 1.0 | 0.0 | 0.00 | 0.00 | 0.00 | 81 | 1013.9 |
| 20260903144212 | 63 | 46 | 1.0 | 0.0 | 0.00 | 0.00 | 0.00 | 81 | 1013.9 |
| 20260903144033 | 63 | 46 | 1.0 | 0.0 | 0.00 | 0.00 | 0.00 | 81 | 1013.9 |
| 20260903144016 | 63 | 46 | 1.0 | 2.0 | 0.00 | 0.00 | 0.00 | 81 | 1013.9 |
| 20260903143920 | 63 | 84 | 0.0 | 4.0 | 0.00 | 0.00 | 0.00 | 81 | 1014.9 |
| 20260903143823 | 0 | 0.0 | 0.0 | 0.00 | 0.00 | 0.00 | 1013.9 | ||
| 20260903143817 | 0 | 0.0 | 0.0 | 0.00 | 0.00 | 0.00 | 1014.0 | ||
| 20260903143609 | 0 | 0.0 | 0.0 | 0.00 | 0.00 | 0.00 | 1013.9 | ||
| 20260903143431 | 0 | 0.0 | 0.0 | 0.00 | 0.00 | 0.00 | 1013.8 | ||
| 20260903143416 | 62 | 58 | 1.0 | 2.0 | 0.00 | 0.00 | 0.00 | 82 | 1014.7 |
| 20260903143122 | 0 | 0.0 | 0.0 | 0.00 | 0.00 | 0.00 | 1013.8 | ||
| 20260903142911 | 62 | 86 | 1.0 | 2.0 | 0.00 | 0.00 | 0.00 | 82 | 1014.8 |
| 20260903142705 | 0 | 0.0 | 0.0 | 0.00 | 0.00 | 0.00 | 1013.7 | ||
| 20260903142642 | 60 | 0.0 | 0.0 | 0.00 | 0.00 | 0.00 | 81 | 1013.9 | |
| 20260903142449 | 60 | 0.0 | 0.0 | 0.00 | 0.00 | 0.00 | 81 | 1013.8 | |
| 20260903142407 | 61 | 78 | 3.0 | 3.0 | 0.00 | 0.00 | 0.00 | 82 | 1014.7 |
| 20260903142309 | 60 | 335 | 1.0 | 0.0 | 0.00 | 0.00 | 0.00 | 81 | 1013.7 |
| 20260903142107 | 60 | 335 | 1.0 | 0.0 | 0.00 | 0.00 | 0.00 | 81 | 1013.7 |
| 20260903141946 | 60 | 335 | 1.0 | 0.0 | 0.00 | 0.00 | 0.00 | 81 | 1013.7 |
| 20260903141917 | 60 | 335 | 1.0 | 0.0 | 0.00 | 0.00 | 0.00 | 81 | 1013.5 |
| 20260903141904 | 60 | 335 | 1.0 | 0.0 | 0.00 | 0.00 | 0.00 | 81 | 1013.5 |
| 20260903141902 | 61 | 77 | 1.0 | 2.0 | 0.00 | 0.00 | 0.00 | 82 | 1014.7 |
| 20260903141853 | 60 | 335 | 1.0 | 0.0 | 0.00 | 0.00 | 0.00 | 81 | 1013.8 |
| 20260903141844 | 60 | 335 | 1.0 | 0.0 | 0.00 | 0.00 | 0.00 | 81 | 1013.8 |
| 20260903141550 | 60 | 335 | 1.0 | 0.0 | 0.00 | 0.00 | 0.00 | 81 | 1013.8 |
| 20260903141525 | 60 | 335 | 1.0 | 2.0 | 0.00 | 0.00 | 0.00 | 81 | 1013.8 |
| 20260903141517 | 60 | 335 | 1.0 | 0.0 | 0.00 | 0.00 | 0.00 | 81 | 1013.8 |
| 20260903141417 | 60 | 335 | 1.0 | 0.0 | 0.00 | 0.00 | 0.00 | 81 | 1013.8 |
| 20260903141353 | 60 | 31 | 3.0 | 0.0 | 0.00 | 0.00 | 0.00 | 81 | 1013.7 |
| 20260903141346 | 60 | 335 | 1.0 | 0.0 | 0.00 | 0.00 | 0.00 | 81 | 1013.8 |
| 20260903141316 | 60 | 335 | 1.0 | 0.0 | 0.00 | 0.00 | 0.00 | 81 | 1013.8 |
| 20260903141249 | 60 | 335 | 1.0 | 0.0 | 0.00 | 0.00 | 0.00 | 81 | 1013.8 |
| 20260903141216 | 60 | 335 | 1.0 | 0.0 | 0.00 | 0.00 | 0.00 | 81 | 1013.8 |
| 20260903141206 | 60 | 31 | 3.0 | 0.0 | 0.00 | 0.00 | 0.00 | 81 | 1013.7 |
| 20260903141158 | 60 | 335 | 1.0 | 0.0 | 0.00 | 0.00 | 0.00 | 81 | 1013.8 |
| 20260903141149 | 60 | 335 | 1.0 | 0.0 | 0.00 | 0.00 | 0.00 | 81 | 1013.8 |
| 20260903140848 | 60 | 10 | 2.0 | 4.0 | 0.00 | 0.00 | 0.00 | 81 | 1014.5 |
| 20260903140831 | 60 | 31 | 3.0 | 0.0 | 0.00 | 0.00 | 0.00 | 81 | 1013.7 |
| 20260903140617 | 60 | 31 | 3.0 | 0.0 | 0.00 | 0.00 | 0.00 | 81 | 1013.7 |
| 20260903140549 | 59 | 31 | 3.0 | 0.0 | 0.00 | 0.00 | 0.00 | 81 | 1013.7 |
| 20260903140517 | 59 | 31 | 3.0 | 0.0 | 0.00 | 0.00 | 0.00 | 81 | 1013.7 |
| 20260903140452 | 59 | 31 | 3.0 | 3.0 | 0.00 | 0.00 | 0.00 | 81 | 1013.7 |
| 20260903140447 | 59 | 31 | 3.0 | 0.0 | 0.00 | 0.00 | 0.00 | 81 | 1013.7 |
| 20260903140417 | 59 | 31 | 3.0 | 0.0 | 0.00 | 0.00 | 0.00 | 81 | 1013.7 |
| 20260903140349 | 59 | 31 | 3.0 | 0.0 | 0.00 | 0.00 | 0.00 | 81 | 1013.7 |
| 20260903140342 | 59 | 27 | 2.0 | 4.0 | 0.00 | 0.00 | 0.00 | 81 | 1014.6 |
| 20260903140316 | 59 | 31 | 3.0 | 0.0 | 0.00 | 0.00 | 0.00 | 81 | 1013.7 |
| 20260903140247 | 59 | 31 | 3.0 | 0.0 | 0.00 | 0.00 | 0.00 | 81 | 1013.7 |
| 20260903140217 | 59 | 31 | 3.0 | 0.0 | 0.00 | 0.00 | 0.00 | 81 | 1013.7 |
| 20260903140131 | 59 | 31 | 3.0 | 0.0 | 0.00 | 0.00 | 0.00 | 81 | 1013.7 |
| 20260903140110 | 59 | 31 | 3.0 | 0.0 | 0.00 | 0.00 | 0.00 | 81 | 1013.7 |
| 20260903135927 | 59 | 0.0 | 0.0 | 0.00 | 0.00 | 0.00 | 82 | 1013.7 | |
| 20260903135839 | 59 | 21 | 1.0 | 2.0 | 0.00 | 0.00 | 0.00 | 81 | 1014.6 |
| 20260903135720 | 59 | 0.0 | 0.0 | 0.00 | 0.00 | 0.00 | 82 | 1013.5 | |
| 20260903135611 | 59 | 42 | 0.0 | 0.0 | 0.00 | 0.00 | 0.00 | 82 | 1013.8 |
| 20260903135513 | 59 | 0.0 | 0.0 | 0.00 | 0.00 | 0.00 | 82 | 1013.6 | |
| 20260903135334 | 59 | 346 | 1.0 | 3.0 | 0.00 | 0.00 | 0.00 | 81 | 1014.4 |
| 20260903135258 | 59 | 42 | 0.0 | 0.0 | 0.00 | 0.00 | 0.00 | 82 | 1013.8 |
| 20260903135254 | 59 | 42 | 0.0 | 0.0 | 0.00 | 0.00 | 0.00 | 82 | 1013.7 |
| 20260903135245 | 59 | 42 | 0.0 | 0.0 | 0.00 | 0.00 | 0.00 | 82 | 1013.7 |
| 20260903135032 | 59 | 42 | 0.0 | 0.0 | 0.00 | 0.00 | 0.00 | 82 | 1013.8 |
| 20260903134934 | 59 | 42 | 0.0 | 0.0 | 0.00 | 0.00 | 0.00 | 82 | 1013.8 |
| 20260903134924 | 59 | 42 | 0.0 | 0.0 | 0.00 | 0.00 | 0.00 | 82 | 1013.8 |
| 20260903134911 | 59 | 42 | 0.0 | 0.0 | 0.00 | 0.00 | 0.00 | 82 | 1013.8 |
| 20260903134833 | 59 | 12 | 0.0 | 3.0 | 0.00 | 0.00 | 0.00 | 82 | 1014.5 |
| 20260903134731 | 59 | 42 | 0.0 | 0.0 | 0.00 | 0.00 | 0.00 | 82 | 1013.8 |
| 20260903134630 | 59 | 42 | 0.0 | 0.0 | 0.00 | 0.00 | 0.00 | 82 | 1013.8 |
| 20260903134548 | 59 | 42 | 0.0 | 0.0 | 0.00 | 0.00 | 0.00 | 82 | 1013.8 |
| 20260903134401 | 59 | 42 | 0.0 | 0.0 | 0.00 | 0.00 | 0.00 | 82 | 1013.8 |
| 20260903134331 | 59 | 42 | 0.0 | 0.0 | 0.00 | 0.00 | 0.00 | 82 | 1013.8 |
| 20260903134328 | 59 | 119 | 0.0 | 2.0 | 0.00 | 0.00 | 0.00 | 82 | 1014.6 |
| 20260903134301 | 59 | 42 | 0.0 | 1.0 | 0.00 | 0.00 | 0.00 | 82 | 1013.8 |
| 20260903134231 | 59 | 72 | 1.0 | 0.0 | 0.00 | 0.00 | 0.00 | 82 | 1013.6 |
| 20260903134200 | 59 | 72 | 1.0 | 0.0 | 0.00 | 0.00 | 0.00 | 82 | 1013.6 |
| 20260903134130 | 59 | 72 | 1.0 | 0.0 | 0.00 | 0.00 | 0.00 | 82 | 1013.6 |
| 20260903134040 | 59 | 72 | 1.0 | 0.0 | 0.00 | 0.00 | 0.00 | 81 | 1013.6 |
| 20260903134034 | 59 | 72 | 1.0 | 0.0 | 0.00 | 0.00 | 0.00 | 82 | 1013.6 |
| 20260903133931 | 59 | 72 | 1.0 | 0.0 | 0.00 | 0.00 | 0.00 | 82 | 1013.6 |
| 20260903133904 | 60 | 72 | 1.0 | 0.0 | 0.00 | 0.00 | 0.00 | 81 | 1013.6 |
| 20260903133831 | 59 | 72 | 1.0 | 0.0 | 0.00 | 0.00 | 0.00 | 82 | 1013.6 |
| 20260903133826 | 59 | 44 | 0.0 | 2.0 | 0.00 | 0.00 | 0.00 | 82 | 1014.6 |
| 20260903133808 | 60 | 72 | 1.0 | 2.0 | 0.00 | 0.00 | 0.00 | 81 | 1013.6 |
| 20260903133746 | 60 | 55 | 1.0 | 0.0 | 0.00 | 0.00 | 0.00 | 81 | 1013.5 |
| 20260903133738 | 60 | 55 | 1.0 | 0.0 | 0.00 | 0.00 | 0.00 | 81 | 1013.5 |
| 20260903133732 | 59 | 72 | 1.0 | 0.0 | 0.00 | 0.00 | 0.00 | 82 | 1013.6 |
| 20260903133722 | 60 | 55 | 1.0 | 0.0 | 0.00 | 0.00 | 0.00 | 81 | 1013.5 |
| 20260903133713 | 60 | 55 | 1.0 | 0.0 | 0.00 | 0.00 | 0.00 | 81 | 1013.5 |
| 20260903133658 | 59 | 72 | 1.0 | 0.0 | 0.00 | 0.00 | 0.00 | 81 | 1013.6 |
| 20260903133531 | 59 | 72 | 1.0 | 0.0 | 0.00 | 0.00 | 0.00 | 81 | 1013.6 |
| 20260903133523 | 59 | 72 | 1.0 | 0.0 | 0.00 | 0.00 | 0.00 | 81 | 1013.6 |
| 20260903133322 | 59 | 81 | 1.0 | 2.0 | 0.00 | 0.00 | 0.00 | 81 | 1014.6 |
| 20260903133251 | 60 | 55 | 1.0 | 0.0 | 0.00 | 0.00 | 0.00 | 81 | 1013.5 |
| 20260903133240 | 60 | 55 | 1.0 | 0.0 | 0.00 | 0.00 | 0.00 | 81 | 1013.5 |
| 20260903132849 | 60 | 55 | 1.0 | 2.0 | 0.00 | 0.00 | 0.00 | 80 | 1013.5 |
| 20260903132845 | 60 | 55 | 1.0 | 0.0 | 0.00 | 0.00 | 0.00 | 81 | 1013.5 |
| 20260903132821 | 60 | 88 | 2.0 | 2.0 | 0.00 | 0.00 | 0.00 | 81 | 1014.6 |
| 20260903132700 | 60 | 55 | 1.0 | 0.0 | 0.00 | 0.00 | 0.00 | 81 | 1013.5 |
| 20260903132629 | 60 | 55 | 1.0 | 0.0 | 0.00 | 0.00 | 0.00 | 81 | 1013.5 |
| 20260903132618 | 60 | 38 | 1.0 | 0.0 | 0.00 | 0.00 | 0.00 | 80 | 1013.5 |
| 20260903132530 | 60 | 55 | 1.0 | 0.0 | 0.00 | 0.00 | 0.00 | 81 | 1013.5 |
| 20260903132459 | 60 | 55 | 1.0 | 0.0 | 0.00 | 0.00 | 0.00 | 81 | 1013.5 |
| 20260903132433 | 61 | 38 | 1.0 | 0.0 | 0.00 | 0.00 | 0.00 | 81 | 1013.5 |
| 20260903132429 | 60 | 55 | 1.0 | 0.0 | 0.00 | 0.00 | 0.00 | 80 | 1013.5 |
| 20260903132411 | 60 | 55 | 1.0 | 0.0 | 0.00 | 0.00 | 0.00 | 80 | 1013.5 |
| 20260903132317 | 60 | 84 | 2.0 | 3.0 | 0.00 | 0.00 | 0.00 | 80 | 1014.6 |
| 20260903132248 | 61 | 38 | 1.0 | 0.0 | 0.00 | 0.00 | 0.00 | 81 | 1013.5 |
| 20260903132244 | 60 | 38 | 1.0 | 0.0 | 0.00 | 0.00 | 0.00 | 80 | 1013.5 |
| 20260903132059 | 60 | 38 | 1.0 | 0.0 | 0.00 | 0.00 | 0.00 | 80 | 1013.5 |
| 20260903132043 | 61 | 38 | 1.0 | 0.0 | 0.00 | 0.00 | 0.00 | 81 | 1013.5 |
| 20260903131907 | 62 | 38 | 1.0 | 2.0 | 0.00 | 0.00 | 0.00 | 82 | 1013.5 |
| 20260903131858 | 61 | 38 | 1.0 | 0.0 | 0.00 | 0.00 | 0.00 | 81 | 1013.5 |
| 20260903131812 | 61 | 65 | 1.0 | 2.0 | 0.00 | 0.00 | 0.00 | 81 | 1014.6 |
| 20260903131631 | 61 | 38 | 1.0 | 0.0 | 0.00 | 0.00 | 0.00 | 81 | 1013.5 |
| 20260903131546 | 62 | 23 | 1.0 | 0.0 | 0.00 | 0.00 | 0.00 | 82 | 1013.5 |
| 20260903131533 | 61 | 38 | 1.0 | 0.0 | 0.00 | 0.00 | 0.00 | 81 | 1013.5 |
| 20260903131459 | 62 | 38 | 1.0 | 0.0 | 0.00 | 0.00 | 0.00 | 82 | 1013.5 |
| 20260903131430 | 62 | 38 | 1.0 | 0.0 | 0.00 | 0.00 | 0.00 | 83 | 1013.5 |
| 20260903131410 | 62 | 38 | 1.0 | 0.0 | 0.00 | 0.00 | 0.00 | 83 | 1013.5 |
| 20260903131312 | 62 | 227 | 0.0 | 3.0 | 0.00 | 0.00 | 0.00 | 83 | 1014.4 |
| 20260903131231 | 62 | 23 | 1.0 | 0.0 | 0.00 | 0.00 | 0.00 | 82 | 1013.5 |
| 20260903131210 | 62 | 23 | 1.0 | 0.0 | 0.00 | 0.00 | 0.00 | 82 | 1013.5 |
| 20260903131035 | 62 | 23 | 1.0 | 0.0 | 0.00 | 0.00 | 0.00 | 82 | 1013.5 |
| 20260903130930 | 62 | 23 | 1.0 | 0.0 | 0.00 | 0.00 | 0.00 | 82 | 1013.5 |
| 20260903130900 | 62 | 23 | 1.0 | 0.0 | 0.00 | 0.00 | 0.00 | 82 | 1013.5 |
| 20260903130829 | 62 | 23 | 1.0 | 0.0 | 0.00 | 0.00 | 0.00 | 82 | 1013.5 |
| 20260903130806 | 62 | 69 | 2.0 | 3.0 | 0.00 | 0.00 | 0.00 | 82 | 1014.5 |
| 20260903130730 | 62 | 23 | 1.0 | 0.0 | 0.00 | 0.00 | 0.00 | 82 | 1013.5 |
| 20260903130707 | 61 | 29 | 3.0 | 0.0 | 0.00 | 0.00 | 0.00 | 80 | 1013.5 |
| 20260903130700 | 62 | 23 | 1.0 | 0.0 | 0.00 | 0.00 | 0.00 | 82 | 1013.5 |
| 20260903130630 | 62 | 23 | 1.0 | 0.0 | 0.00 | 0.00 | 0.00 | 82 | 1013.5 |
| 20260903130537 | 61 | 23 | 1.0 | 0.0 | 0.00 | 0.00 | 0.00 | 81 | 1013.5 |
| 20260903130500 | 61 | 23 | 1.0 | 0.0 | 0.00 | 0.00 | 0.00 | 81 | 1013.5 |
| 20260903130450 | 61 | 29 | 3.0 | 0.0 | 0.00 | 0.00 | 0.00 | 80 | 1013.5 |
| 20260903130429 | 61 | 23 | 1.0 | 0.0 | 0.00 | 0.00 | 0.00 | 81 | 1013.5 |
| 20260903130403 | 61 | 29 | 3.0 | 0.0 | 0.00 | 0.00 | 0.00 | 80 | 1013.5 |
| 20260903130351 | 61 | 23 | 1.0 | 0.0 | 0.00 | 0.00 | 0.00 | 81 | 1013.5 |
| 20260903130341 | 61 | 23 | 1.0 | 1.0 | 0.00 | 0.00 | 0.00 | 81 | 1013.5 |
| 20260903130301 | 61 | 39 | 1.0 | 2.0 | 0.00 | 0.00 | 0.00 | 81 | 1014.5 |
| 20260903130207 | 61 | 29 | 3.0 | 0.0 | 0.00 | 0.00 | 0.00 | 80 | 1013.5 |
| 20260903130135 | 61 | 29 | 3.0 | 0.0 | 0.00 | 0.00 | 0.00 | 80 | 1013.5 |
| 20260903130130 | 61 | 29 | 3.0 | 0.0 | 0.00 | 0.00 | 0.00 | 80 | 1013.5 |
| 20260903130114 | 61 | 29 | 3.0 | 0.0 | 0.00 | 0.00 | 0.00 | 80 | 1013.5 |
| 20260903125800 | 61 | 30 | 1.0 | 2.0 | 0.00 | 0.00 | 0.00 | 81 | 1014.3 |
| 20260903125710 | 61 | 29 | 3.0 | 0.0 | 0.00 | 0.00 | 0.00 | 80 | 1013.5 |
| 20260903125531 | 61 | 29 | 3.0 | 0.0 | 0.00 | 0.00 | 0.00 | 80 | 1013.5 |
| 20260903125501 | 61 | 29 | 3.0 | 0.0 | 0.00 | 0.00 | 0.00 | 81 | 1013.5 |
| 20260903125429 | 61 | 29 | 3.0 | 0.0 | 0.00 | 0.00 | 0.00 | 81 | 1013.5 |
| 20260903125329 | 61 | 29 | 3.0 | 0.0 | 0.00 | 0.00 | 0.00 | 81 | 1013.5 |
| 20260903125305 | 61 | 29 | 3.0 | 4.0 | 0.00 | 0.00 | 0.00 | 81 | 1013.5 |
| 20260903125255 | 61 | 38 | 3.0 | 4.0 | 0.00 | 0.00 | 0.00 | 81 | 1014.7 |
| 20260903125231 | 61 | 68 | 2.0 | 0.0 | 0.00 | 0.00 | 0.00 | 81 | 1013.6 |
| 20260903125200 | 61 | 68 | 2.0 | 0.0 | 0.00 | 0.00 | 0.00 | 81 | 1013.6 |
| 20260903125129 | 61 | 68 | 2.0 | 0.0 | 0.00 | 0.00 | 0.00 | 83 | 1013.6 |
| 20260903125040 | 60 | 68 | 2.0 | 0.0 | 0.00 | 0.00 | 0.00 | 82 | 1013.6 |
| 20260903125032 | 62 | 68 | 2.0 | 0.0 | 0.00 | 0.00 | 0.00 | 84 | 1013.6 |
| 20260903125000 | 62 | 68 | 2.0 | 0.0 | 0.00 | 0.00 | 0.00 | 83 | 1013.6 |
| 20260903124930 | 62 | 68 | 2.0 | 0.0 | 0.00 | 0.00 | 0.00 | 83 | 1013.6 |
| 20260903124917 | 60 | 68 | 2.0 | 0.0 | 0.00 | 0.00 | 0.00 | 83 | 1013.6 |
| 20260903124829 | 61 | 68 | 2.0 | 0.0 | 0.00 | 0.00 | 0.00 | 82 | 1013.6 |
| 20260903124759 | 61 | 68 | 2.0 | 0.0 | 0.00 | 0.00 | 0.00 | 82 | 1013.6 |
| 20260903124754 | 61 | 91 | 2.0 | 3.0 | 0.00 | 0.00 | 0.00 | 82 | 1014.6 |
| 20260903124742 | 60 | 68 | 2.0 | 2.0 | 0.00 | 0.00 | 0.00 | 83 | 1013.6 |
| 20260903124729 | 60 | 68 | 2.0 | 0.0 | 0.00 | 0.00 | 0.00 | 82 | 1013.6 |
| 20260903124709 | 60 | 78 | 1.0 | 0.0 | 0.00 | 0.00 | 0.00 | 83 | 1013.5 |
| 20260903124701 | 60 | 68 | 2.0 | 0.0 | 0.00 | 0.00 | 0.00 | 82 | 1013.6 |
| 20260903124412 | 60 | 68 | 2.0 | 0.0 | 0.00 | 0.00 | 0.00 | 83 | 1013.6 |
| 20260903124250 | 60 | 97 | 0.0 | 3.0 | 0.00 | 0.00 | 0.00 | 82 | 1014.4 |
| 20260903124245 | 60 | 78 | 1.0 | 0.0 | 0.00 | 0.00 | 0.00 | 83 | 1013.5 |
| 20260903124032 | 60 | 78 | 1.0 | 0.0 | 0.00 | 0.00 | 0.00 | 83 | 1013.5 |
| 20260903124002 | 60 | 78 | 1.0 | 0.0 | 0.00 | 0.00 | 0.00 | 83 | 1013.5 |
| 20260903123930 | 60 | 78 | 1.0 | 0.0 | 0.00 | 0.00 | 0.00 | 83 | 1013.5 |
| 20260903123900 | 60 | 78 | 1.0 | 0.0 | 0.00 | 0.00 | 0.00 | 83 | 1013.5 |
| 20260903123829 | 60 | 78 | 1.0 | 0.0 | 0.00 | 0.00 | 0.00 | 83 | 1013.5 |
| 20260903123810 | 60 | 78 | 1.0 | 0.0 | 0.00 | 0.00 | 0.00 | 80 | 1013.5 |
| 20260903123800 | 60 | 78 | 1.0 | 0.0 | 0.00 | 0.00 | 0.00 | 83 | 1013.5 |
| 20260903123748 | 60 | 86 | 0.0 | 2.0 | 0.00 | 0.00 | 0.00 | 82 | 1014.6 |
| 20260903123729 | 60 | 78 | 1.0 | 0.0 | 0.00 | 0.00 | 0.00 | 83 | 1013.5 |
| 20260903123630 | 60 | 78 | 1.0 | 0.0 | 0.00 | 0.00 | 0.00 | 83 | 1013.5 |
| 20260903123537 | 59 | 9 | 2.0 | 0.0 | 0.00 | 0.00 | 0.00 | 80 | 1013.5 |
| 20260903123530 | 60 | 78 | 1.0 | 0.0 | 0.00 | 0.00 | 0.00 | 83 | 1013.5 |
| 20260903123445 | 60 | 78 | 1.0 | 0.0 | 0.00 | 0.00 | 0.00 | 80 | 1013.5 |
| 20260903123302 | 60 | 78 | 1.0 | 2.0 | 0.00 | 0.00 | 0.00 | 80 | 1013.5 |
| 20260903123248 | 60 | 34 | 0.0 | 2.0 | 0.00 | 0.00 | 0.00 | 81 | 1014.5 |
| 20260903123229 | 60 | 9 | 2.0 | 0.0 | 0.00 | 0.00 | 0.00 | 80 | 1013.5 |
| 20260903123218 | 59 | 9 | 2.0 | 0.0 | 0.00 | 0.00 | 0.00 | 79 | 1013.5 |
| 20260903123210 | 60 | 9 | 2.0 | 0.0 | 0.00 | 0.00 | 0.00 | 80 | 1013.5 |
| 20260903123039 | 59 | 9 | 2.0 | 0.0 | 0.00 | 0.00 | 0.00 | 79 | 1013.5 |
| 20260903123030 | 59 | 9 | 2.0 | 0.0 | 0.00 | 0.00 | 0.00 | 80 | 1013.5 |
| 20260903123001 | 59 | 9 | 2.0 | 0.0 | 0.00 | 0.00 | 0.00 | 80 | 1013.5 |
| 20260903122930 | 59 | 9 | 2.0 | 0.0 | 0.00 | 0.00 | 0.00 | 79 | 1013.5 |
| 20260903122848 | 59 | 9 | 2.0 | 2.0 | 0.00 | 0.00 | 0.00 | 79 | 1013.5 |
| 20260903122844 | 59 | 9 | 2.0 | 0.0 | 0.00 | 0.00 | 0.00 | 79 | 1013.5 |
| 20260903122747 | 59 | 48 | 2.0 | 3.0 | 0.00 | 0.00 | 0.00 | 79 | 1014.5 |
| 20260903122709 | 59 | 9 | 2.0 | 0.0 | 0.00 | 0.00 | 0.00 | 79 | 1013.5 |
| 20260903122529 | 59 | 9 | 2.0 | 0.0 | 0.00 | 0.00 | 0.00 | 79 | 1013.5 |
| 20260903122500 | 59 | 9 | 2.0 | 0.0 | 0.00 | 0.00 | 0.00 | 79 | 1013.5 |
| 20260903122429 | 59 | 9 | 2.0 | 0.0 | 0.00 | 0.00 | 0.00 | 79 | 1013.5 |
| 20260903122418 | 59 | 31 | 1.0 | 0.0 | 0.00 | 0.00 | 0.00 | 78 | 1013.6 |
| 20260903122411 | 59 | 9 | 2.0 | 0.0 | 0.00 | 0.00 | 0.00 | 79 | 1013.5 |
| 20260903122246 | 59 | 82 | 1.0 | 2.0 | 0.00 | 0.00 | 0.00 | 79 | 1014.5 |
| 20260903122229 | 59 | 31 | 1.0 | 0.0 | 0.00 | 0.00 | 0.00 | 79 | 1013.6 |
| 20260903122207 | 59 | 31 | 1.0 | 0.0 | 0.00 | 0.00 | 0.00 | 78 | 1013.6 |
| 20260903122130 | 59 | 31 | 1.0 | 0.0 | 0.00 | 0.00 | 0.00 | 79 | 1013.6 |
| 20260903122039 | 59 | 35 | 2.0 | 0.0 | 0.00 | 0.00 | 0.00 | 78 | 1013.6 |
| 20260903122031 | 59 | 31 | 1.0 | 0.0 | 0.00 | 0.00 | 0.00 | 79 | 1013.6 |
| 20260903122012 | 59 | 31 | 1.0 | 3.0 | 0.00 | 0.00 | 0.00 | 78 | 1013.6 |
| 20260903122008 | 59 | 31 | 1.0 | 0.0 | 0.00 | 0.00 | 0.00 | 79 | 1013.6 |
| 20260903121958 | 59 | 31 | 1.0 | 0.0 | 0.00 | 0.00 | 0.00 | 78 | 1013.6 |
| 20260903121744 | 59 | 39 | 1.0 | 2.0 | 0.00 | 0.00 | 0.00 | 78 | 1014.4 |
| 20260903121704 | 59 | 35 | 2.0 | 0.0 | 0.00 | 0.00 | 0.00 | 78 | 1013.6 |
| 20260903121639 | 59 | 31 | 1.0 | 0.0 | 0.00 | 0.00 | 0.00 | 78 | 1013.6 |
| 20260903121626 | 59 | 31 | 1.0 | 0.0 | 0.00 | 0.00 | 0.00 | 78 | 1013.6 |
| 20260903121502 | 59 | 31 | 1.0 | 0.0 | 0.00 | 0.00 | 0.00 | 78 | 1013.6 |
| 20260903121451 | 59 | 31 | 1.0 | 0.0 | 0.00 | 0.00 | 0.00 | 78 | 1013.6 |
| 20260903121241 | 59 | 24 | 2.0 | 3.0 | 0.00 | 0.00 | 0.00 | 78 | 1014.6 |
| 20260903121145 | 59 | 35 | 2.0 | 0.0 | 0.00 | 0.00 | 0.00 | 78 | 1013.6 |
| 20260903121013 | 59 | 35 | 2.0 | 0.0 | 0.00 | 0.00 | 0.00 | 78 | 1013.6 |
| 20260903120930 | 59 | 35 | 2.0 | 0.0 | 0.00 | 0.00 | 0.00 | 78 | 1013.6 |
| 20260903120900 | 59 | 35 | 2.0 | 0.0 | 0.00 | 0.00 | 0.00 | 78 | 1013.6 |
| 20260903120829 | 59 | 35 | 2.0 | 0.0 | 0.00 | 0.00 | 0.00 | 78 | 1013.6 |
| 20260903120801 | 59 | 35 | 2.0 | 0.0 | 0.00 | 0.00 | 0.00 | 77 | 1013.6 |
| 20260903120740 | 59 | 35 | 2.0 | 3.0 | 0.00 | 0.00 | 0.00 | 77 | 1013.6 |
| 20260903120736 | 59 | 30 | 0.0 | 3.0 | 0.00 | 0.00 | 0.00 | 78 | 1014.5 |
| 20260903120731 | 59 | 35 | 2.0 | 0.0 | 0.00 | 0.00 | 0.00 | 77 | 1013.6 |
| 20260903120630 | 59 | 35 | 2.0 | 0.0 | 0.00 | 0.00 | 0.00 | 77 | 1013.6 |
| 20260903120529 | 59 | 35 | 2.0 | 0.0 | 0.00 | 0.00 | 0.00 | 77 | 1013.6 |
| 20260903120445 | 59 | 35 | 2.0 | 0.0 | 0.00 | 0.00 | 0.00 | 77 | 1013.6 |
| 20260903120422 | 59 | 19 | 1.0 | 0.0 | 0.00 | 0.00 | 0.00 | 76 | 1013.5 |
| 20260903120412 | 59 | 35 | 2.0 | 0.0 | 0.00 | 0.00 | 0.00 | 77 | 1013.6 |
| 20260903120230 | 59 | 27 | 2.0 | 4.0 | 0.00 | 0.00 | 0.00 | 77 | 1014.6 |
| 20260903120213 | 59 | 19 | 1.0 | 0.0 | 0.00 | 0.00 | 0.00 | 77 | 1013.5 |
| 20260903120142 | 59 | 19 | 1.0 | 0.0 | 0.00 | 0.00 | 0.00 | 76 | 1013.5 |
| 20260903120118 | 59 | 19 | 1.0 | 0.0 | 0.00 | 0.00 | 0.00 | 76 | 1013.5 |
| 20260903120109 | 59 | 19 | 1.0 | 0.0 | 0.00 | 0.00 | 0.00 | 76 | 1013.5 |
| 20260903115829 | 59 | 19 | 1.0 | 0.0 | 0.00 | 0.00 | 0.00 | 76 | 1013.5 |
| 20260903115800 | 59 | 19 | 1.0 | 0.0 | 0.00 | 0.00 | 0.00 | 76 | 1013.5 |
| 20260903115729 | 59 | 29 | 2.0 | 4.0 | 0.00 | 0.00 | 0.00 | 76 | 1014.7 |
| 20260903115631 | 59 | 19 | 1.0 | 0.0 | 0.00 | 0.00 | 0.00 | 76 | 1013.5 |
| 20260903115610 | 59 | 19 | 1.0 | 0.0 | 0.00 | 0.00 | 0.00 | 76 | 1013.5 |
| 20260903115430 | 59 | 19 | 1.0 | 0.0 | 0.00 | 0.00 | 0.00 | 76 | 1013.5 |
| 20260903115342 | 59 | 19 | 1.0 | 0.0 | 0.00 | 0.00 | 0.00 | 76 | 1013.5 |
| 20260903115301 | 59 | 19 | 1.0 | 2.0 | 0.00 | 0.00 | 0.00 | 76 | 1013.5 |
| 20260903115233 | 60 | 55 | 1.0 | 0.0 | 0.00 | 0.00 | 0.00 | 76 | 1013.6 |
| 20260903115229 | 59 | 55 | 1.0 | 0.0 | 0.00 | 0.00 | 0.00 | 76 | 1013.6 |
| 20260903115224 | 60 | 38 | 0.0 | 2.0 | 0.00 | 0.00 | 0.00 | 77 | 1014.4 |
| 20260903115129 | 60 | 55 | 1.0 | 0.0 | 0.00 | 0.00 | 0.00 | 77 | 1013.6 |
| 20260903115035 | 60 | 55 | 1.0 | 0.0 | 0.00 | 0.00 | 0.00 | 77 | 1013.6 |
| 20260903115000 | 59 | 55 | 1.0 | 0.0 | 0.00 | 0.00 | 0.00 | 77 | 1013.6 |
| 20260903114937 | 59 | 55 | 1.0 | 0.0 | 0.00 | 0.00 | 0.00 | 75 | 1013.6 |
| 20260903114933 | 59 | 55 | 1.0 | 0.0 | 0.00 | 0.00 | 0.00 | 76 | 1013.6 |
| 20260903114922 | 59 | 55 | 1.0 | 0.0 | 0.00 | 0.00 | 0.00 | 76 | 1013.6 |
| 20260903114910 | 60 | 55 | 1.0 | 0.0 | 0.00 | 0.00 | 0.00 | 76 | 1013.6 |
| 20260903114732 | 59 | 55 | 1.0 | 0.0 | 0.00 | 0.00 | 0.00 | 76 | 1013.6 |
| 20260903114718 | 59 | 33 | 2.0 | 2.0 | 0.00 | 0.00 | 0.00 | 76 | 1014.5 |
| 20260903114631 | 59 | 55 | 1.0 | 0.0 | 0.00 | 0.00 | 0.00 | 76 | 1013.6 |
| 20260903114531 | 59 | 55 | 1.0 | 0.0 | 0.00 | 0.00 | 0.00 | 76 | 1013.6 |
| 20260903114459 | 59 | 55 | 1.0 | 0.0 | 0.00 | 0.00 | 0.00 | 75 | 1013.6 |
| 20260903114300 | 59 | 55 | 1.0 | 2.0 | 0.00 | 0.00 | 0.00 | 75 | 1013.6 |
| 20260903114229 | 59 | 51 | 1.0 | 0.0 | 0.00 | 0.00 | 0.00 | 75 | 1013.7 |
| 20260903114214 | 59 | 32 | 3.0 | 4.0 | 0.00 | 0.00 | 0.00 | 76 | 1014.7 |
| 20260903114136 | 59 | 51 | 1.0 | 0.0 | 0.00 | 0.00 | 0.00 | 75 | 1013.7 |
| 20260903114038 | 59 | 51 | 1.0 | 0.0 | 0.00 | 0.00 | 0.00 | 75 | 1013.7 |
| 20260903114031 | 59 | 51 | 1.0 | 0.0 | 0.00 | 0.00 | 0.00 | 75 | 1013.7 |
| 20260903113932 | 59 | 51 | 1.0 | 0.0 | 0.00 | 0.00 | 0.00 | 75 | 1013.7 |
| 20260903113859 | 59 | 51 | 1.0 | 0.0 | 0.00 | 0.00 | 0.00 | 75 | 1013.7 |
| 20260903113829 | 59 | 51 | 1.0 | 0.0 | 0.00 | 0.00 | 0.00 | 75 | 1013.7 |
| 20260903113735 | 59 | 51 | 1.0 | 0.0 | 0.00 | 0.00 | 0.00 | 75 | 1013.7 |
| 20260903113722 | 59 | 51 | 1.0 | 0.0 | 0.00 | 0.00 | 0.00 | 75 | 1013.7 |
| 20260903113709 | 59 | 41 | 2.0 | 2.0 | 0.00 | 0.00 | 0.00 | 75 | 1014.5 |
| 20260903113530 | 59 | 51 | 1.0 | 0.0 | 0.00 | 0.00 | 0.00 | 75 | 1013.7 |
| 20260903113451 | 59 | 27 | 0.0 | 0.0 | 0.00 | 0.00 | 0.00 | 75 | 1013.7 |
| 20260903113442 | 59 | 51 | 1.0 | 0.0 | 0.00 | 0.00 | 0.00 | 75 | 1013.7 |
| 20260903113343 | 59 | 27 | 0.0 | 0.0 | 0.00 | 0.00 | 0.00 | 75 | 1013.7 |
| 20260903113331 | 59 | 51 | 1.0 | 0.0 | 0.00 | 0.00 | 0.00 | 75 | 1013.7 |
| 20260903113300 | 59 | 51 | 1.0 | 1.0 | 0.00 | 0.00 | 0.00 | 75 | 1013.7 |
| 20260903113230 | 59 | 27 | 0.0 | 0.0 | 0.00 | 0.00 | 0.00 | 75 | 1013.7 |
| 20260903113205 | 59 | 61 | 2.0 | 2.0 | 0.00 | 0.00 | 0.00 | 75 | 1014.6 |
| 20260903113148 | 59 | 27 | 0.0 | 0.0 | 0.00 | 0.00 | 0.00 | 75 | 1013.7 |
| 20260903113123 | 59 | 27 | 0.0 | 0.0 | 0.00 | 0.00 | 0.00 | 75 | 1013.7 |
| 20260903112830 | 59 | 27 | 0.0 | 0.0 | 0.00 | 0.00 | 0.00 | 75 | 1013.7 |
| 20260903112749 | 59 | 44 | 1.0 | 0.0 | 0.00 | 0.00 | 0.00 | 73 | 1013.8 |
| 20260903112745 | 59 | 27 | 0.0 | 0.0 | 0.00 | 0.00 | 0.00 | 75 | 1013.7 |
| 20260903112701 | 59 | 13 | 2.0 | 2.0 | 0.00 | 0.00 | 0.00 | 74 | 1014.6 |
| 20260903112559 | 59 | 27 | 0.0 | 0.0 | 0.00 | 0.00 | 0.00 | 74 | 1013.7 |
| 20260903112529 | 59 | 27 | 0.0 | 0.0 | 0.00 | 0.00 | 0.00 | 74 | 1013.7 |
| 20260903112430 | 59 | 27 | 0.0 | 0.0 | 0.00 | 0.00 | 0.00 | 74 | 1013.7 |
| 20260903112336 | 59 | 44 | 1.0 | 0.0 | 0.00 | 0.00 | 0.00 | 73 | 1013.8 |
| 20260903112332 | 59 | 27 | 0.0 | 0.0 | 0.00 | 0.00 | 0.00 | 74 | 1013.7 |
| 20260903112322 | 59 | 27 | 0.0 | 2.0 | 0.00 | 0.00 | 0.00 | 74 | 1013.7 |
| 20260903112310 | 59 | 44 | 1.0 | 0.0 | 0.00 | 0.00 | 0.00 | 74 | 1013.8 |
| 20260903112156 | 59 | 67 | 1.0 | 3.0 | 0.00 | 0.00 | 0.00 | 73 | 1014.6 |
| 20260903112130 | 59 | 44 | 1.0 | 0.0 | 0.00 | 0.00 | 0.00 | 73 | 1013.8 |
| 20260903112112 | 59 | 44 | 1.0 | 0.0 | 0.00 | 0.00 | 0.00 | 73 | 1013.8 |
| 20260903112032 | 59 | 44 | 1.0 | 0.0 | 0.00 | 0.00 | 0.00 | 73 | 1013.8 |
| 20260903111959 | 59 | 44 | 1.0 | 0.0 | 0.00 | 0.00 | 0.00 | 73 | 1013.8 |
| 20260903111937 | 59 | 44 | 1.0 | 0.0 | 0.00 | 0.00 | 0.00 | 73 | 1013.8 |
| 20260903111929 | 59 | 44 | 1.0 | 0.0 | 0.00 | 0.00 | 0.00 | 73 | 1013.8 |
| 20260903111850 | 59 | 44 | 1.0 | 0.0 | 0.00 | 0.00 | 0.00 | 73 | 1013.8 |
| 20260903111844 | 59 | 44 | 1.0 | 0.0 | 0.00 | 0.00 | 0.00 | 73 | 1013.8 |
| 20260903111700 | 59 | 44 | 1.0 | 0.0 | 0.00 | 0.00 | 0.00 | 73 | 1013.8 |
| 20260903111655 | 59 | 43 | 2.0 | 3.0 | 0.00 | 0.00 | 0.00 | 73 | 1014.6 |
| 20260903111629 | 59 | 44 | 1.0 | 0.0 | 0.00 | 0.00 | 0.00 | 73 | 1013.8 |
| 20260903111616 | 60 | 44 | 1.0 | 0.0 | 0.00 | 0.00 | 0.00 | 72 | 1013.7 |
| 20260903111600 | 59 | 44 | 1.0 | 0.0 | 0.00 | 0.00 | 0.00 | 73 | 1013.8 |
| 20260903111301 | 59 | 44 | 1.0 | 2.0 | 0.00 | 0.00 | 0.00 | 73 | 1013.8 |
| 20260903111229 | 59 | 44 | 1.0 | 0.0 | 0.00 | 0.00 | 0.00 | 73 | 1013.7 |
| 20260903111150 | 59 | 66 | 2.0 | 3.0 | 0.00 | 0.00 | 0.00 | 73 | 1014.5 |
| 20260903111130 | 59 | 44 | 1.0 | 0.0 | 0.00 | 0.00 | 0.00 | 73 | 1013.7 |
| 20260903111101 | 59 | 44 | 1.0 | 0.0 | 0.00 | 0.00 | 0.00 | 73 | 1013.7 |
| 20260903111053 | 59 | 44 | 1.0 | 0.0 | 0.00 | 0.00 | 0.00 | 73 | 1013.7 |
| 20260903111030 | 59 | 44 | 1.0 | 0.0 | 0.00 | 0.00 | 0.00 | 72 | 1013.7 |
| 20260903110900 | 59 | 44 | 1.0 | 0.0 | 0.00 | 0.00 | 0.00 | 72 | 1013.7 |
| 20260903110829 | 59 | 44 | 1.0 | 0.0 | 0.00 | 0.00 | 0.00 | 72 | 1013.7 |
| 20260903110800 | 59 | 44 | 1.0 | 0.0 | 0.00 | 0.00 | 0.00 | 72 | 1013.7 |
| 20260903110742 | 60 | 44 | 1.0 | 0.0 | 0.00 | 0.00 | 0.00 | 72 | 1013.7 |
| 20260903110647 | 60 | 66 | 0.0 | 3.0 | 0.00 | 0.00 | 0.00 | 72 | 1014.8 |
| 20260903110630 | 60 | 44 | 1.0 | 0.0 | 0.00 | 0.00 | 0.00 | 72 | 1013.7 |
| 20260903110556 | 60 | 44 | 1.0 | 0.0 | 0.00 | 0.00 | 0.00 | 72 | 1013.7 |
| 20260903110412 | 60 | 44 | 1.0 | 0.0 | 0.00 | 0.00 | 0.00 | 72 | 1013.7 |
| 20260903110329 | 60 | 44 | 1.0 | 0.0 | 0.00 | 0.00 | 0.00 | 72 | 1013.7 |
| 20260903110314 | 60 | 44 | 1.0 | 2.0 | 0.00 | 0.00 | 0.00 | 72 | 1013.7 |
| 20260903110230 | 60 | 0 | 0.0 | 0.0 | 0.00 | 0.00 | 0.00 | 72 | 1013.6 |
| 20260903110221 | 60 | 0 | 0.0 | 0.0 | 0.00 | 0.00 | 0.00 | 71 | 1013.6 |
| 20260903110143 | 60 | 0 | 0.0 | 0.0 | 0.00 | 0.00 | 0.00 | 72 | 1013.6 |
| 20260903110112 | 60 | 0 | 0.0 | 0.0 | 0.00 | 0.00 | 0.00 | 72 | 1013.6 |
| 20260903110032 | 60 | 0 | 0.0 | 0.0 | 0.00 | 0.00 | 0.00 | 71 | 1013.6 |
| 20260903105929 | 60 | 0 | 0.0 | 0.0 | 0.00 | 0.00 | 0.00 | 71 | 1013.6 |
| 20260903105845 | 60 | 0 | 0.0 | 0.0 | 0.00 | 0.00 | 0.00 | 71 | 1013.6 |
| 20260903105707 | 59 | 0 | 0.0 | 1.0 | 0.00 | 0.00 | 0.00 | 71 | 1013.6 |
| 20260903105700 | 60 | 0 | 0.0 | 0.0 | 0.00 | 0.00 | 0.00 | 71 | 1013.6 |
| 20260903105636 | 60 | 34 | 3.0 | 4.0 | 0.00 | 0.00 | 0.00 | 71 | 1014.7 |
| 20260903105629 | 60 | 0 | 0.0 | 0.0 | 0.00 | 0.00 | 0.00 | 71 | 1013.6 |
| 20260903105601 | 60 | 0 | 0.0 | 0.0 | 0.00 | 0.00 | 0.00 | 71 | 1013.6 |
| 20260903105530 | 60 | 0 | 0.0 | 0.0 | 0.00 | 0.00 | 0.00 | 71 | 1013.6 |
| 20260903105500 | 60 | 0 | 0.0 | 0.0 | 0.00 | 0.00 | 0.00 | 71 | 1013.6 |
| 20260903105429 | 60 | 0 | 0.0 | 0.0 | 0.00 | 0.00 | 0.00 | 71 | 1013.6 |
| 20260903105352 | 60 | 0 | 0.0 | 0.0 | 0.00 | 0.00 | 0.00 | 71 | 1013.6 |
| 20260903105342 | 60 | 0 | 0.0 | 0.0 | 0.00 | 0.00 | 0.00 | 72 | 1013.6 |
| 20260903105159 | 59 | 45 | 1.0 | 0.0 | 0.00 | 0.00 | 0.00 | 71 | 1013.8 |
| 20260903105131 | 60 | 40 | 2.0 | 3.0 | 0.00 | 0.00 | 0.00 | 71 | 1014.7 |
| 20260903105037 | 60 | 45 | 1.0 | 0.0 | 0.00 | 0.00 | 0.00 | 71 | 1013.8 |
| 20260903105033 | 60 | 45 | 1.0 | 0.0 | 0.00 | 0.00 | 0.00 | 71 | 1013.8 |
| 20260903104931 | 60 | 45 | 1.0 | 0.0 | 0.00 | 0.00 | 0.00 | 71 | 1013.8 |
| 20260903104907 | 60 | 45 | 1.0 | 0.0 | 0.00 | 0.00 | 0.00 | 70 | 1013.8 |
| 20260903104901 | 60 | 45 | 1.0 | 0.0 | 0.00 | 0.00 | 0.00 | 71 | 1013.8 |
| 20260903104830 | 60 | 45 | 1.0 | 0.0 | 0.00 | 0.00 | 0.00 | 71 | 1013.8 |
| 20260903104800 | 60 | 45 | 1.0 | 0.0 | 0.00 | 0.00 | 0.00 | 71 | 1013.8 |
| 20260903104735 | 60 | 45 | 1.0 | 2.0 | 0.00 | 0.00 | 0.00 | 70 | 1013.8 |
| 20260903104730 | 60 | 45 | 1.0 | 0.0 | 0.00 | 0.00 | 0.00 | 71 | 1013.8 |
| 20260903104713 | 60 | 45 | 1.0 | 0.0 | 0.00 | 0.00 | 0.00 | 71 | 1013.8 |
| 20260903104630 | 60 | 66 | 1.0 | 3.0 | 0.00 | 0.00 | 0.00 | 71 | 1014.8 |
| 20260903104553 | 60 | 40 | 2.0 | 0.0 | 0.00 | 0.00 | 0.00 | 69 | 1013.7 |
| 20260903104548 | 60 | 45 | 1.0 | 0.0 | 0.00 | 0.00 | 0.00 | 71 | 1013.8 |
| 20260903104540 | 60 | 45 | 1.0 | 0.0 | 0.00 | 0.00 | 0.00 | 71 | 1013.8 |
| 20260903104351 | 60 | 45 | 1.0 | 0.0 | 0.00 | 0.00 | 0.00 | 70 | 1013.8 |
| 20260903104342 | 60 | 45 | 1.0 | 0.0 | 0.00 | 0.00 | 0.00 | 70 | 1013.8 |
| 20260903104207 | 60 | 40 | 2.0 | 0.0 | 0.00 | 0.00 | 0.00 | 70 | 1013.7 |
| 20260903104150 | 60 | 40 | 2.0 | 0.0 | 0.00 | 0.00 | 0.00 | 70 | 1013.7 |
| 20260903104141 | 60 | 40 | 2.0 | 0.0 | 0.00 | 0.00 | 0.00 | 70 | 1013.7 |
| 20260903104127 | 60 | 46 | 0.0 | 3.0 | 0.00 | 0.00 | 0.00 | 70 | 1014.8 |
| 20260903103959 | 60 | 40 | 2.0 | 0.0 | 0.00 | 0.00 | 0.00 | 69 | 1013.7 |
| 20260903103929 | 60 | 40 | 2.0 | 0.0 | 0.00 | 0.00 | 0.00 | 70 | 1013.7 |
| 20260903103850 | 60 | 40 | 2.0 | 0.0 | 0.00 | 0.00 | 0.00 | 70 | 1013.7 |
| 20260903103700 | 60 | 40 | 2.0 | 0.0 | 0.00 | 0.00 | 0.00 | 69 | 1013.7 |
| 20260903103629 | 60 | 40 | 2.0 | 0.0 | 0.00 | 0.00 | 0.00 | 70 | 1013.7 |
| 20260903103622 | 60 | 34 | 1.0 | 4.0 | 0.00 | 0.00 | 0.00 | 70 | 1014.7 |
| 20260903103530 | 60 | 40 | 2.0 | 0.0 | 0.00 | 0.00 | 0.00 | 70 | 1013.7 |
| 20260903103500 | 60 | 40 | 2.0 | 0.0 | 0.00 | 0.00 | 0.00 | 70 | 1013.7 |
| 20260903103429 | 60 | 40 | 2.0 | 0.0 | 0.00 | 0.00 | 0.00 | 70 | 1013.7 |
| 20260903103329 | 60 | 40 | 2.0 | 0.0 | 0.00 | 0.00 | 0.00 | 70 | 1013.7 |
| 20260903103303 | 60 | 40 | 2.0 | 0.0 | 0.00 | 0.00 | 0.00 | 70 | 1013.7 |
| 20260903103241 | 60 | 65 | 2.0 | 0.0 | 0.00 | 0.00 | 0.00 | 69 | 1013.9 |
| 20260903103232 | 60 | 40 | 2.0 | 2.0 | 0.00 | 0.00 | 0.00 | 70 | 1013.7 |
| 20260903103134 | 60 | 65 | 2.0 | 0.0 | 0.00 | 0.00 | 0.00 | 69 | 1013.9 |
| 20260903103130 | 60 | 65 | 2.0 | 0.0 | 0.00 | 0.00 | 0.00 | 70 | 1013.9 |
| 20260903103118 | 60 | 52 | 2.0 | 2.0 | 0.00 | 0.00 | 0.00 | 69 | 1014.6 |
| 20260903103030 | 60 | 65 | 2.0 | 0.0 | 0.00 | 0.00 | 0.00 | 69 | 1013.9 |
| 20260903102952 | 60 | 65 | 2.0 | 0.0 | 0.00 | 0.00 | 0.00 | 69 | 1013.9 |
| 20260903102947 | 60 | 65 | 2.0 | 2.0 | 0.00 | 0.00 | 0.00 | 69 | 1013.9 |
| 20260903102943 | 60 | 65 | 2.0 | 0.0 | 0.00 | 0.00 | 0.00 | 69 | 1013.9 |
| 20260903102915 | 60 | 65 | 2.0 | 0.0 | 0.00 | 0.00 | 0.00 | 69 | 1013.9 |
| 20260903102613 | 60 | 36 | 1.0 | 2.0 | 0.00 | 0.00 | 0.00 | 69 | 1014.7 |
| 20260903102530 | 60 | 65 | 2.0 | 0.0 | 0.00 | 0.00 | 0.00 | 69 | 1013.9 |
| 20260903102502 | 60 | 65 | 2.0 | 0.0 | 0.00 | 0.00 | 0.00 | 69 | 1013.9 |
| 20260903102449 | 60 | 65 | 2.0 | 0.0 | 0.00 | 0.00 | 0.00 | 69 | 1013.9 |
| 20260903102129 | 60 | 42 | 2.0 | 0.0 | 0.00 | 0.00 | 0.00 | 69 | 1013.9 |
| 20260903102112 | 60 | 38 | 1.0 | 2.0 | 0.00 | 0.00 | 0.00 | 69 | 1014.7 |
| 20260903102050 | 60 | 42 | 2.0 | 0.0 | 0.00 | 0.00 | 0.00 | 68 | 1013.9 |
| 20260903102034 | 60 | 42 | 2.0 | 0.0 | 0.00 | 0.00 | 0.00 | 69 | 1013.9 |
| 20260903102000 | 60 | 42 | 2.0 | 0.0 | 0.00 | 0.00 | 0.00 | 69 | 1013.9 |
| 20260903101930 | 60 | 42 | 2.0 | 0.0 | 0.00 | 0.00 | 0.00 | 69 | 1013.9 |
| 20260903101901 | 60 | 42 | 2.0 | 0.0 | 0.00 | 0.00 | 0.00 | 68 | 1013.9 |
| 20260903101829 | 60 | 42 | 2.0 | 0.0 | 0.00 | 0.00 | 0.00 | 69 | 1013.9 |
| 20260903101732 | 60 | 42 | 2.0 | 0.0 | 0.00 | 0.00 | 0.00 | 69 | 1013.9 |
| 20260903101721 | 60 | 42 | 2.0 | 0.0 | 0.00 | 0.00 | 0.00 | 69 | 1013.9 |
| 20260903101710 | 60 | 42 | 2.0 | 0.0 | 0.00 | 0.00 | 0.00 | 68 | 1013.9 |
| 20260903101607 | 60 | 83 | 1.0 | 2.0 | 0.00 | 0.00 | 0.00 | 68 | 1014.8 |
| 20260903101530 | 60 | 42 | 2.0 | 0.0 | 0.00 | 0.00 | 0.00 | 68 | 1013.9 |
| 20260903101500 | 60 | 42 | 2.0 | 0.0 | 0.00 | 0.00 | 0.00 | 68 | 1013.9 |
| 20260903101430 | 60 | 42 | 2.0 | 0.0 | 0.00 | 0.00 | 0.00 | 68 | 1013.9 |
| 20260903101329 | 60 | 42 | 2.0 | 0.0 | 0.00 | 0.00 | 0.00 | 68 | 1013.9 |
| 20260903101259 | 60 | 42 | 2.0 | 0.0 | 0.00 | 0.00 | 0.00 | 68 | 1013.9 |
| 20260903101233 | 60 | 42 | 2.0 | 2.0 | 0.00 | 0.00 | 0.00 | 68 | 1013.9 |
| 20260903101222 | 60 | 56 | 1.0 | 0.0 | 0.00 | 0.00 | 0.00 | 68 | 1013.7 |
| 20260903101130 | 60 | 56 | 1.0 | 0.0 | 0.00 | 0.00 | 0.00 | 68 | 1013.7 |
| 20260903101103 | 60 | 55 | 1.0 | 3.0 | 0.00 | 0.00 | 0.00 | 68 | 1014.8 |
| 20260903101059 | 60 | 56 | 1.0 | 0.0 | 0.00 | 0.00 | 0.00 | 68 | 1013.7 |
| 20260903101029 | 60 | 56 | 1.0 | 0.0 | 0.00 | 0.00 | 0.00 | 68 | 1013.7 |
| 20260903100930 | 60 | 56 | 1.0 | 0.0 | 0.00 | 0.00 | 0.00 | 68 | 1013.7 |
| 20260903100914 | 60 | 56 | 1.0 | 0.0 | 0.00 | 0.00 | 0.00 | 68 | 1013.7 |
| 20260903100903 | 60 | 56 | 1.0 | 0.0 | 0.00 | 0.00 | 0.00 | 68 | 1013.7 |
| 20260903100853 | 60 | 56 | 1.0 | 2.0 | 0.00 | 0.00 | 0.00 | 68 | 1013.7 |
| 20260903100849 | 60 | 56 | 1.0 | 0.0 | 0.00 | 0.00 | 0.00 | 69 | 1013.7 |
| 20260903100839 | 60 | 56 | 1.0 | 0.0 | 0.00 | 0.00 | 0.00 | 69 | 1013.7 |
| 20260903100707 | 60 | 55 | 0.0 | 0.0 | 0.00 | 0.00 | 0.00 | 68 | 1013.9 |
| 20260903100648 | 60 | 55 | 0.0 | 0.0 | 0.00 | 0.00 | 0.00 | 68 | 1013.9 |
| 20260903100634 | 60 | 55 | 0.0 | 0.0 | 0.00 | 0.00 | 0.00 | 67 | 1013.9 |
| 20260903100630 | 60 | 56 | 1.0 | 0.0 | 0.00 | 0.00 | 0.00 | 68 | 1013.7 |
| 20260903100614 | 60 | 56 | 1.0 | 0.0 | 0.00 | 0.00 | 0.00 | 68 | 1013.7 |
| 20260903100603 | 60 | 56 | 1.0 | 0.0 | 0.00 | 0.00 | 0.00 | 68 | 1013.7 |
| 20260903100533 | 60 | 56 | 1.0 | 0.0 | 0.00 | 0.00 | 0.00 | 68 | 1013.7 |
| 20260903095959 | 60 | 55 | 0.0 | 0.0 | 0.00 | 0.00 | 0.00 | 67 | 1013.9 |
| 20260903095929 | 60 | 55 | 0.0 | 0.0 | 0.00 | 0.00 | 0.00 | 67 | 1013.9 |
| 20260903095900 | 60 | 55 | 0.0 | 0.0 | 0.00 | 0.00 | 0.00 | 67 | 1013.9 |
| 20260903095843 | 60 | 55 | 0.0 | 0.0 | 0.00 | 0.00 | 0.00 | 67 | 1013.9 |
| 20260903095829 | 60 | 55 | 0.0 | 0.0 | 0.00 | 0.00 | 0.00 | 67 | 1013.9 |
| 20260903095810 | 60 | 55 | 0.0 | 0.0 | 0.00 | 0.00 | 0.00 | 67 | 1013.9 |
| 20260903095629 | 60 | 55 | 0.0 | 0.0 | 0.00 | 0.00 | 0.00 | 67 | 1013.9 |
| 20260903095559 | 60 | 38 | 2.0 | 2.0 | 0.00 | 0.00 | 0.00 | 67 | 1014.6 |
| 20260903095546 | 60 | 64 | 2.0 | 0.0 | 0.00 | 0.00 | 0.00 | 66 | 1014.0 |
| 20260903095534 | 60 | 64 | 2.0 | 0.0 | 0.00 | 0.00 | 0.00 | 66 | 1014.0 |
| 20260903095530 | 60 | 55 | 0.0 | 0.0 | 0.00 | 0.00 | 0.00 | 67 | 1013.9 |
| 20260903095520 | 60 | 55 | 0.0 | 0.0 | 0.00 | 0.00 | 0.00 | 66 | 1013.9 |
| 20260903095510 | 60 | 55 | 0.0 | 0.0 | 0.00 | 0.00 | 0.00 | 67 | 1013.9 |
| 20260903095331 | 60 | 55 | 0.0 | 0.0 | 0.00 | 0.00 | 0.00 | 67 | 1013.9 |
| 20260903095306 | 60 | 64 | 2.0 | 0.0 | 0.00 | 0.00 | 0.00 | 66 | 1014.0 |
| 20260903095259 | 60 | 55 | 0.0 | 0.0 | 0.00 | 0.00 | 0.00 | 66 | 1013.9 |
| 20260903095241 | 60 | 64 | 2.0 | 0.0 | 0.00 | 0.00 | 0.00 | 65 | 1014.0 |
| 20260903095237 | 60 | 55 | 0.0 | 2.0 | 0.00 | 0.00 | 0.00 | 66 | 1013.9 |
| 20260903095223 | 60 | 64 | 2.0 | 0.0 | 0.00 | 0.00 | 0.00 | 66 | 1014.0 |
| 20260903095054 | 60 | 48 | 1.0 | 2.0 | 0.00 | 0.00 | 0.00 | 66 | 1014.7 |
| 20260903094944 | 60 | 64 | 2.0 | 0.0 | 0.00 | 0.00 | 0.00 | 65 | 1014.0 |
| 20260903094932 | 60 | 64 | 2.0 | 0.0 | 0.00 | 0.00 | 0.00 | 67 | 1014.0 |
| 20260903094922 | 60 | 64 | 2.0 | 0.0 | 0.00 | 0.00 | 0.00 | 67 | 1014.0 |
| 20260903094911 | 60 | 64 | 2.0 | 0.0 | 0.00 | 0.00 | 0.00 | 66 | 1014.0 |
| 20260903094750 | 60 | 64 | 2.0 | 2.0 | 0.00 | 0.00 | 0.00 | 65 | 1014.0 |
| 20260903094746 | 60 | 64 | 2.0 | 0.0 | 0.00 | 0.00 | 0.00 | 66 | 1014.0 |
| 20260903094730 | 60 | 64 | 2.0 | 0.0 | 0.00 | 0.00 | 0.00 | 66 | 1014.0 |
| 20260903094722 | 60 | 64 | 2.0 | 0.0 | 0.00 | 0.00 | 0.00 | 66 | 1014.0 |
| 20260903094549 | 60 | 59 | 2.0 | 2.0 | 0.00 | 0.00 | 0.00 | 65 | 1014.8 |
| 20260903094430 | 60 | 64 | 2.0 | 0.0 | 0.00 | 0.00 | 0.00 | 65 | 1014.0 |
| 20260903094404 | 60 | 51 | 1.0 | 0.0 | 0.00 | 0.00 | 0.00 | 64 | 1014.1 |
| 20260903094350 | 60 | 64 | 2.0 | 0.0 | 0.00 | 0.00 | 0.00 | 65 | 1014.0 |
| 20260903094342 | 60 | 64 | 2.0 | 0.0 | 0.00 | 0.00 | 0.00 | 65 | 1014.0 |
| 20260903094202 | 60 | 51 | 1.0 | 0.0 | 0.00 | 0.00 | 0.00 | 65 | 1014.1 |
| 20260903094152 | 60 | 51 | 1.0 | 0.0 | 0.00 | 0.00 | 0.00 | 63 | 1014.1 |
| 20260903094129 | 60 | 51 | 1.0 | 0.0 | 0.00 | 0.00 | 0.00 | 65 | 1014.1 |
| 20260903094044 | 60 | 82 | 1.0 | 2.0 | 0.00 | 0.00 | 0.00 | 64 | 1015.0 |
| 20260903094036 | 60 | 51 | 1.0 | 0.0 | 0.00 | 0.00 | 0.00 | 63 | 1014.1 |
| 20260903094032 | 60 | 51 | 1.0 | 0.0 | 0.00 | 0.00 | 0.00 | 64 | 1014.1 |
| 20260903094016 | 61 | 51 | 1.0 | 0.0 | 0.00 | 0.00 | 0.00 | 63 | 1014.1 |
| 20260903094009 | 60 | 51 | 1.0 | 0.0 | 0.00 | 0.00 | 0.00 | 64 | 1014.1 |
| 20260903093840 | 61 | 72 | 0.0 | 0.0 | 0.00 | 0.00 | 0.00 | 62 | 1014.0 |
| 20260903093836 | 60 | 51 | 1.0 | 0.0 | 0.00 | 0.00 | 0.00 | 63 | 1014.1 |
| 20260903093823 | 60 | 51 | 1.0 | 0.0 | 0.00 | 0.00 | 0.00 | 63 | 1014.1 |
| 20260903093539 | 60 | 80 | 2.0 | 2.0 | 0.00 | 0.00 | 0.00 | 63 | 1014.9 |
| 20260903093400 | 61 | 51 | 1.0 | 0.0 | 0.00 | 0.00 | 0.00 | 63 | 1014.1 |
| 20260903093330 | 61 | 51 | 1.0 | 0.0 | 0.00 | 0.00 | 0.00 | 63 | 1014.1 |
| 20260903093300 | 61 | 51 | 1.0 | 0.0 | 0.00 | 0.00 | 0.00 | 62 | 1014.1 |
| 20260903093245 | 61 | 72 | 0.0 | 0.0 | 0.00 | 0.00 | 0.00 | 62 | 1014.0 |
| 20260903093234 | 61 | 51 | 1.0 | 2.0 | 0.00 | 0.00 | 0.00 | 62 | 1014.1 |
| 20260903093204 | 61 | 72 | 0.0 | 0.0 | 0.00 | 0.00 | 0.00 | 62 | 1014.0 |
| 20260903093147 | 61 | 72 | 0.0 | 0.0 | 0.00 | 0.00 | 0.00 | 62 | 1014.0 |
| 20260903093035 | 61 | 61 | 1.0 | 2.0 | 0.00 | 0.00 | 0.00 | 62 | 1014.9 |
| 20260903092936 | 61 | 72 | 0.0 | 0.0 | 0.00 | 0.00 | 0.00 | 62 | 1014.0 |
| 20260903092925 | 61 | 72 | 0.0 | 0.0 | 0.00 | 0.00 | 0.00 | 62 | 1014.0 |
| 20260903092631 | 61 | 72 | 0.0 | 0.0 | 0.00 | 0.00 | 0.00 | 62 | 1014.0 |
| 20260903092609 | 61 | 72 | 1.0 | 0.0 | 0.00 | 0.00 | 0.00 | 61 | 1014.2 |
| 20260903092534 | 61 | 31 | 2.0 | 2.0 | 0.00 | 0.00 | 0.00 | 62 | 1014.8 |
| 20260903092530 | 61 | 72 | 0.0 | 0.0 | 0.00 | 0.00 | 0.00 | 62 | 1014.0 |
| 20260903092429 | 61 | 72 | 0.0 | 0.0 | 0.00 | 0.00 | 0.00 | 61 | 1014.0 |
| 20260903092330 | 61 | 72 | 0.0 | 0.0 | 0.00 | 0.00 | 0.00 | 61 | 1014.0 |
| 20260903092314 | 61 | 72 | 1.0 | 0.0 | 0.00 | 0.00 | 0.00 | 61 | 1014.2 |
| 20260903092310 | 61 | 72 | 0.0 | 0.0 | 0.00 | 0.00 | 0.00 | 61 | 1014.0 |
| 20260903092300 | 61 | 72 | 0.0 | 1.0 | 0.00 | 0.00 | 0.00 | 61 | 1014.0 |
| 20260903092037 | 61 | 72 | 1.0 | 0.0 | 0.00 | 0.00 | 0.00 | 60 | 1014.2 |
| 20260903092031 | 61 | 72 | 1.0 | 0.0 | 0.00 | 0.00 | 0.00 | 61 | 1014.2 |
| 20260903092028 | 61 | 64 | 1.0 | 2.0 | 0.00 | 0.00 | 0.00 | 61 | 1015.2 |
| 20260903091959 | 61 | 72 | 1.0 | 0.0 | 0.00 | 0.00 | 0.00 | 61 | 1014.2 |
| 20260903091929 | 61 | 72 | 1.0 | 0.0 | 0.00 | 0.00 | 0.00 | 61 | 1014.2 |
| 20260903091911 | 61 | 72 | 1.0 | 0.0 | 0.00 | 0.00 | 0.00 | 61 | 1014.2 |
| 20260903091731 | 61 | 72 | 1.0 | 0.0 | 0.00 | 0.00 | 0.00 | 60 | 1014.2 |
| 20260903091721 | 61 | 72 | 1.0 | 0.0 | 0.00 | 0.00 | 0.00 | 60 | 1014.2 |
| 20260903091710 | 61 | 72 | 1.0 | 0.0 | 0.00 | 0.00 | 0.00 | 61 | 1014.2 |
| 20260903091529 | 61 | 72 | 1.0 | 0.0 | 0.00 | 0.00 | 0.00 | 60 | 1014.2 |
| 20260903091526 | 61 | 43 | 1.0 | 2.0 | 0.00 | 0.00 | 0.00 | 62 | 1015.1 |
| 20260903091500 | 61 | 72 | 1.0 | 0.0 | 0.00 | 0.00 | 0.00 | 61 | 1014.2 |
| 20260903091429 | 61 | 72 | 1.0 | 0.0 | 0.00 | 0.00 | 0.00 | 61 | 1014.2 |
| 20260903091330 | 61 | 72 | 1.0 | 0.0 | 0.00 | 0.00 | 0.00 | 60 | 1014.2 |
| 20260903091301 | 61 | 72 | 1.0 | 0.0 | 0.00 | 0.00 | 0.00 | 60 | 1014.2 |
| 20260903091232 | 61 | 72 | 1.0 | 2.0 | 0.00 | 0.00 | 0.00 | 60 | 1014.2 |
| 20260903091159 | 61 | 89 | 0.0 | 0.0 | 0.00 | 0.00 | 0.00 | 60 | 1014.5 |
| 20260903091129 | 61 | 89 | 0.0 | 0.0 | 0.00 | 0.00 | 0.00 | 60 | 1014.5 |
| 20260903091032 | 61 | 89 | 0.0 | 0.0 | 0.00 | 0.00 | 0.00 | 60 | 1014.5 |
| 20260903091021 | 61 | 89 | 0.0 | 2.0 | 0.00 | 0.00 | 0.00 | 61 | 1015.2 |
| 20260903091005 | 61 | 89 | 0.0 | 0.0 | 0.00 | 0.00 | 0.00 | 60 | 1014.5 |
| 20260903091001 | 61 | 89 | 0.0 | 0.0 | 0.00 | 0.00 | 0.00 | 60 | 1014.5 |
| 20260903090930 | 61 | 89 | 0.0 | 0.0 | 0.00 | 0.00 | 0.00 | 60 | 1014.5 |
| 20260903090859 | 61 | 89 | 0.0 | 0.0 | 0.00 | 0.00 | 0.00 | 60 | 1014.5 |
| 20260903090830 | 61 | 89 | 0.0 | 0.0 | 0.00 | 0.00 | 0.00 | 61 | 1014.5 |
| 20260903090730 | 61 | 89 | 0.0 | 0.0 | 0.00 | 0.00 | 0.00 | 60 | 1014.5 |
| 20260903090712 | 61 | 89 | 0.0 | 0.0 | 0.00 | 0.00 | 0.00 | 60 | 1014.5 |
| 20260903090636 | 61 | 89 | 0.0 | 0.0 | 0.00 | 0.00 | 0.00 | 60 | 1014.5 |
| 20260903090623 | 61 | 89 | 0.0 | 0.0 | 0.00 | 0.00 | 0.00 | 60 | 1014.5 |
| 20260903090518 | 61 | 80 | 0.0 | 2.0 | 0.00 | 0.00 | 0.00 | 60 | 1015.1 |
| 20260903090431 | 61 | 89 | 0.0 | 0.0 | 0.00 | 0.00 | 0.00 | 60 | 1014.5 |
| 20260903090342 | 61 | 89 | 0.0 | 0.0 | 0.00 | 0.00 | 0.00 | 60 | 1014.5 |
| 20260903090302 | 61 | 89 | 0.0 | 0.0 | 0.00 | 0.00 | 0.00 | 60 | 1014.5 |
| 20260903090249 | 61 | 89 | 0.0 | 1.0 | 0.00 | 0.00 | 0.00 | 60 | 1014.5 |
| 20260903090200 | 61 | 50 | 2.0 | 0.0 | 0.00 | 0.00 | 0.00 | 60 | 1014.3 |
| 20260903090129 | 61 | 50 | 2.0 | 0.0 | 0.00 | 0.00 | 0.00 | 60 | 1014.3 |
| 20260903090112 | 61 | 50 | 2.0 | 0.0 | 0.00 | 0.00 | 0.00 | 60 | 1014.3 |
| 20260903090038 | 61 | 50 | 2.0 | 0.0 | 0.00 | 0.00 | 0.00 | 59 | 1014.3 |
| 20260903090031 | 61 | 50 | 2.0 | 0.0 | 0.00 | 0.00 | 0.00 | 59 | 1014.3 |
| 20260903090016 | 61 | 70 | 0.0 | 2.0 | 0.00 | 0.00 | 0.00 | 59 | 1015.2 |
| 20260903085931 | 61 | 50 | 2.0 | 0.0 | 0.00 | 0.00 | 0.00 | 59 | 1014.3 |
| 20260903085830 | 61 | 50 | 2.0 | 0.0 | 0.00 | 0.00 | 0.00 | 59 | 1014.3 |
| 20260903085729 | 61 | 50 | 2.0 | 0.0 | 0.00 | 0.00 | 0.00 | 59 | 1014.3 |
| 20260903085716 | 62 | 33 | 2.0 | 0.0 | 0.00 | 0.00 | 0.00 | 59 | 1014.4 |
| 20260903085710 | 61 | 50 | 2.0 | 0.0 | 0.00 | 0.00 | 0.00 | 59 | 1014.3 |
| 20260903085529 | 61 | 50 | 2.0 | 0.0 | 0.00 | 0.00 | 0.00 | 59 | 1014.3 |
| 20260903085514 | 61 | 65 | 0.0 | 3.0 | 0.00 | 0.00 | 0.00 | 59 | 1015.2 |
| 20260903085431 | 61 | 50 | 2.0 | 0.0 | 0.00 | 0.00 | 0.00 | 59 | 1014.3 |
| 20260903085337 | 62 | 33 | 2.0 | 0.0 | 0.00 | 0.00 | 0.00 | 58 | 1014.4 |
| 20260903085333 | 62 | 50 | 2.0 | 0.0 | 0.00 | 0.00 | 0.00 | 59 | 1014.3 |
| 20260903085323 | 62 | 50 | 2.0 | 0.0 | 0.00 | 0.00 | 0.00 | 59 | 1014.3 |
| 20260903085313 | 62 | 50 | 2.0 | 2.0 | 0.00 | 0.00 | 0.00 | 59 | 1014.3 |
| 20260903085130 | 62 | 33 | 2.0 | 0.0 | 0.00 | 0.00 | 0.00 | 59 | 1014.4 |
| 20260903085112 | 62 | 33 | 2.0 | 0.0 | 0.00 | 0.00 | 0.00 | 59 | 1014.4 |
| 20260903085036 | 62 | 33 | 2.0 | 0.0 | 0.00 | 0.00 | 0.00 | 59 | 1014.4 |
| 20260903085010 | 62 | 43 | 0.0 | 2.0 | 0.00 | 0.00 | 0.00 | 59 | 1015.3 |
| 20260903085002 | 62 | 33 | 2.0 | 0.0 | 0.00 | 0.00 | 0.00 | 59 | 1014.4 |
| 20260903084952 | 62 | 33 | 2.0 | 0.0 | 0.00 | 0.00 | 0.00 | 57 | 1014.4 |
| 20260903084930 | 62 | 33 | 2.0 | 0.0 | 0.00 | 0.00 | 0.00 | 58 | 1014.4 |
| 20260903084917 | 62 | 33 | 2.0 | 0.0 | 0.00 | 0.00 | 0.00 | 57 | 1014.4 |
| 20260903084910 | 62 | 33 | 2.0 | 0.0 | 0.00 | 0.00 | 0.00 | 58 | 1014.4 |
| 20260903084729 | 62 | 33 | 2.0 | 0.0 | 0.00 | 0.00 | 0.00 | 58 | 1014.4 |
| 20260903084640 | 62 | 55 | 0.0 | 0.0 | 0.00 | 0.00 | 0.00 | 57 | 1014.3 |
| 20260903084634 | 62 | 33 | 2.0 | 0.0 | 0.00 | 0.00 | 0.00 | 58 | 1014.4 |
| 20260903084622 | 62 | 33 | 2.0 | 0.0 | 0.00 | 0.00 | 0.00 | 57 | 1014.4 |
| 20260903084508 | 62 | 43 | 0.0 | 2.0 | 0.00 | 0.00 | 0.00 | 57 | 1015.5 |
| 20260903084337 | 62 | 55 | 0.0 | 0.0 | 0.00 | 0.00 | 0.00 | 56 | 1014.3 |
| 20260903084333 | 62 | 33 | 2.0 | 0.0 | 0.00 | 0.00 | 0.00 | 57 | 1014.4 |
| 20260903084323 | 62 | 33 | 2.0 | 0.0 | 0.00 | 0.00 | 0.00 | 57 | 1014.4 |
| 20260903084313 | 62 | 33 | 2.0 | 2.0 | 0.00 | 0.00 | 0.00 | 57 | 1014.4 |
| 20260903084129 | 62 | 55 | 0.0 | 0.0 | 0.00 | 0.00 | 0.00 | 57 | 1014.3 |
| 20260903084107 | 62 | 55 | 0.0 | 0.0 | 0.00 | 0.00 | 0.00 | 56 | 1014.3 |
| 20260903084044 | 62 | 55 | 0.0 | 0.0 | 0.00 | 0.00 | 0.00 | 57 | 1014.3 |
| 20260903084003 | 62 | 89 | 0.0 | 2.0 | 0.00 | 0.00 | 0.00 | 57 | 1015.4 |
| 20260903083933 | 62 | 55 | 0.0 | 0.0 | 0.00 | 0.00 | 0.00 | 56 | 1014.3 |
| 20260903083929 | 62 | 55 | 0.0 | 0.0 | 0.00 | 0.00 | 0.00 | 57 | 1014.3 |
| 20260903083911 | 62 | 55 | 0.0 | 0.0 | 0.00 | 0.00 | 0.00 | 56 | 1014.3 |
| 20260903083543 | 62 | 55 | 0.0 | 0.0 | 0.00 | 0.00 | 0.00 | 56 | 1014.3 |
| 20260903083459 | 62 | 45 | 2.0 | 3.0 | 0.00 | 0.00 | 0.00 | 56 | 1015.4 |
| 20260903083400 | 62 | 55 | 0.0 | 0.0 | 0.00 | 0.00 | 0.00 | 56 | 1014.3 |
| 20260903083329 | 62 | 55 | 0.0 | 0.0 | 0.00 | 0.00 | 0.00 | 56 | 1014.3 |
| 20260903083259 | 62 | 55 | 0.0 | 0.0 | 0.00 | 0.00 | 0.00 | 56 | 1014.3 |
| 20260903083233 | 62 | 55 | 0.0 | 2.0 | 0.00 | 0.00 | 0.00 | 56 | 1014.3 |
| 20260903083210 | 62 | 0.0 | 0.0 | 0.00 | 0.00 | 0.00 | 56 | 1014.5 | |
| 20260903083002 | 0 | 0.0 | 0.0 | 0.00 | 0.00 | 0.00 | 1014.4 | ||
| 20260903082958 | 62 | 35 | 1.0 | 4.0 | 0.00 | 0.00 | 0.00 | 55 | 1015.4 |
| 20260903082755 | 0 | 0.0 | 0.0 | 0.00 | 0.00 | 0.00 | 1014.5 | ||
| 20260903082511 | 0 | 0.0 | 0.0 | 0.00 | 0.00 | 0.00 | 1014.4 | ||
| 20260903082452 | 62 | 80 | 1.0 | 2.0 | 0.00 | 0.00 | 0.00 | 55 | 1015.4 |
| 20260903082306 | 0 | 0.0 | 0.0 | 0.00 | 0.00 | 0.00 | 1014.6 | ||
| 20260903082057 | 0 | 0.0 | 0.0 | 0.00 | 0.00 | 0.00 | 1014.5 | ||
| 20260903081947 | 62 | 68 | 0.0 | 2.0 | 0.00 | 0.00 | 0.00 | 54 | 1015.3 |
| 20260903081826 | 0 | 0.0 | 0.0 | 0.00 | 0.00 | 0.00 | 1014.4 | ||
| 20260903081620 | 0 | 0.0 | 0.0 | 0.00 | 0.00 | 0.00 | 1014.4 | ||
| 20260903081443 | 62 | 89 | 1.0 | 1.0 | 0.00 | 0.00 | 0.00 | 54 | 1015.4 |
| 20260903081412 | 0 | 0.0 | 0.0 | 0.00 | 0.00 | 0.00 | 1014.5 | ||
| 20260903081210 | 0 | 0.0 | 0.0 | 0.00 | 0.00 | 0.00 | 1014.3 | ||
| 20260903081206 | 0 | 0.0 | 0.0 | 0.00 | 0.00 | 0.00 | 1014.3 | ||
| 20260903080939 | 62 | 37 | 1.0 | 2.0 | 0.00 | 0.00 | 0.00 | 54 | 1015.5 |
| 20260903080929 | 62 | 0.0 | 0.0 | 0.00 | 0.00 | 0.00 | 52 | 1014.4 | |
| 20260903080922 | 0 | 0.0 | 0.0 | 0.00 | 0.00 | 0.00 | 1014.4 | ||
| 20260903080557 | 62 | 0.0 | 0.0 | 0.00 | 0.00 | 0.00 | 52 | 1014.4 | |
| 20260903080436 | 62 | 89 | 0.0 | 2.0 | 0.00 | 0.00 | 0.00 | 54 | 1015.4 |
| 20260903080217 | 62 | 0.0 | 0.0 | 0.00 | 0.00 | 0.00 | 52 | 1014.5 | |
| 20260903080111 | 62 | 30 | 2.0 | 0.0 | 0.00 | 0.00 | 0.00 | 52 | 1014.4 |
| 20260903075931 | 62 | 89 | 0.0 | 2.0 | 0.00 | 0.00 | 0.00 | 53 | 1015.2 |